[[{"header":{"parameterUnit":"m.s-1","parameterCategory":1,"la1":31.0,"la2":29.5877,"lo1":-88.7671,"lo2":-86.6584,"dy":0.0162,"dx":0.0185,"nx":115,"ny":88,"refTime":"2024-02-14T18:00:00:Z","depth":0,"parameterNumber":2,"parameterNumberName":"U-component_of_WINDS"},"data":[0.0,0.0,0.0,0.0,0.0,0.0,0.0,0.0,0.0,0.0,0.0,0.0,0.0,0.0,0.0,0.0,0.0,0.0,0.0,0.0,0.0,0.0,0.0,0.0,0.0,0.0,0.0,0.0,0.0,0.0,0.0,0.0,0.0,0.0,0.0,0.0,0.0,0.0,0.0,0.0,0.0,0.0,0.0,0.0,0.0,0.0,0.0,0.0,0.0,0.0,0.0,0.0,0.0,0.0,0.0,0.0,0.0,0.0,0.0,0.0,0.0,0.0,0.0,0.0,0.0,0.0,0.0,0.0,0.0,0.0,0.0,0.0,0.0,0.0,0.0,0.0,0.0,0.0,0.0,0.0,0.0,0.0,0.0,0.0,0.0,0.0,0.0,0.0,0.0,0.0,0.0,0.0,0.0,0.0,0.0,0.0,0.0,0.0,0.0,0.0,0.0,0.0,0.0,0.0,0.0,0.0,0.0,0.0,0.0,0.0,0.0,0.0,0.0,0.0,0.0,0.0,0.0,0.0,0.0,0.0,0.0,0.0,0.0,0.0,0.0,0.0,0.0,0.0,0.0,0.0,0.0,0.0,0.0,0.0,0.0,0.0,0.0,0.0,0.0,0.0,0.0,0.0,0.0,0.0,0.0,0.0,0.0,0.0,0.0,0.0,0.0,0.0,0.0,0.0,0.0,0.0,0.0,0.0,0.0,0.0,0.0,0.0,0.0,0.0,0.0,0.0,0.0,0.0,0.0,0.0,0.0,0.0,0.0,0.0,0.0,0.0,0.0,0.0,0.0,0.0,0.0,0.0,0.0,0.0,0.0,0.0,0.0,0.0,0.0,0.0,0.0,0.0,0.0,0.0,0.0,0.0,0.0,0.0,0.0,0.0,0.0,0.0,0.0,0.0,0.0,0.0,0.0,0.0,0.0,0.0,0.0,0.0,0.0,0.0,0.0,0.0,0.0,0.0,0.0,0.0,0.0,0.0,0.0,0.0,0.0,0.0,0.0,0.0,0.0,0.0,0.0,0.0,0.0,0.0,0.0,0.0,0.0,0.0,0.0,0.0,0.0,0.0,0.0,0.0,0.0,0.0,0.0,0.0,0.0,0.0,0.0,0.0,0.0,0.0,0.0,0.0,0.0,0.0,0.0,0.0,0.0,0.0,0.0,0.0,0.0,0.0,0.0,0.0,0.0,0.0,0.0,0.0,0.0,0.0,0.0,0.0,0.0,0.0,0.0,0.0,0.0,0.0,0.0,0.0,0.0,0.0,0.0,0.0,0.0,0.0,0.0,0.0,0.0,0.0,0.0,0.0,0.0,0.0,0.0,0.0,0.0,0.0,0.0,0.0,0.0,0.0,0.0,0.0,0.0,0.0,0.0,0.0,0.0,0.0,0.0,0.0,0.0,0.0,0.0,0.0,0.0,0.0,0.0,0.0,0.0,0.0,0.0,0.0,0.0,0.0,0.0,0.0,0.0,0.0,0.0,0.0,0.0,0.0,0.0,0.0,0.0,0.0,0.0,0.0,0.0,0.0,0.0,0.0,0.0,0.0,0.0,0.0,0.0,0.0,0.0,0.0,0.0,0.0,0.0,0.0,0.0,0.0,0.0,0.0,0.0,0.0,0.0,0.0,0.0,0.0,0.0,0.0,0.0,0.0,0.0,0.0,0.0,0.0,0.0,0.0,0.0,0.0,0.0,0.0,0.0,0.0,0.0,0.0,0.0,0.0,0.0,0.0,0.0,0.0,0.0,0.0,0.0,0.0,0.0,0.0,0.0,0.0,0.0,0.0,0.0,0.0,0.0,0.0,0.0,0.0,0.0,0.0,0.0,0.0,0.0,0.0,0.0,0.0,0.0,0.0,0.0,0.0,0.0,0.0,0.0,0.0,0.0,0.0,0.0,0.0,0.0,0.0,0.0,0.0,0.0,0.0,0.0,0.0,0.0,0.0,0.0,0.0,0.0,0.0,0.0,0.0,0.0,0.0,0.0,0.0,0.0,0.0,0.0,0.0,0.0,0.0,0.0,0.0,0.0,0.0,0.0,0.0,0.0,0.0,0.0,0.0,0.0,0.0,0.0,0.0,0.0,0.0,0.0,0.0,0.0,0.0,0.0,0.0,0.0,0.0,0.0,0.0,0.0,0.0,0.0,0.0,0.0,0.0,0.0,0.0,0.0,0.0,0.0,0.0,0.0,0.0,0.0,0.0,0.0,0.0,0.0,0.0,0.0,0.0,0.0,0.0,0.0,0.0,0.0,0.0,0.0,0.0,0.0,0.0,0.0,0.0,0.0,0.0,0.0,0.0,0.0,0.0,0.0,0.0,0.0,0.0,0.0,0.0,0.0,0.0,0.0,0.0,0.0,0.0,0.0,0.0,0.0,0.0,0.0,0.0,0.0,0.0,0.0,0.0,0.0,0.0,0.0,0.0,0.0,0.0,0.0,0.0,0.0,0.0,0.0,0.0,0.0,0.0,0.0,0.0,0.0,0.0,0.0,0.0,0.0,0.0,0.0,0.0,0.0,0.0,0.0,0.0,0.0,0.0,0.0,0.0,0.0,0.0,0.0,0.0,0.0,0.0,0.0,0.0,0.0,0.0,0.0,0.0,0.0,0.0,0.0,0.0,0.0,0.0,0.0,0.0,0.0,0.0,0.0,0.0,0.0,0.0,0.0,0.0,0.0,0.0,0.0,0.0,0.0,0.0,0.0,0.0,0.0,0.0,0.0,0.0,0.0,0.0,0.0,0.0,0.0,0.0,0.0,0.0,0.0,0.0,0.0,0.0,0.0,0.0,0.0,0.0,0.0,0.0,0.0,0.0,0.0,0.0,0.0,0.0,0.0,0.0,0.0,0.0,0.0,0.0,0.0,0.0,0.0,0.0,0.0,0.0,0.0,0.0,0.0,0.0,0.0,0.0,0.0,0.0,0.0,0.0,0.0,0.0,0.0,0.0,0.0,0.0,0.0,0.0,0.0,0.0,0.0,0.0,0.0,0.0,0.0,0.0,0.0,0.0,0.0,0.0,0.0,0.0,0.0,0.0,0.0,0.0,0.0,0.0,0.0,0.0,0.0,0.0,0.0,0.0,0.0,0.0,0.0,0.0,0.0,0.0,0.0,0.0,0.0,0.0,0.0,0.0,0.0,0.0,0.0,0.0,0.0,0.0,0.0,0.0,0.0,0.0,0.0,0.0,0.0,0.0,0.0,0.0,0.0,0.0,0.0,0.0,0.0,0.0,0.0,0.0,0.0,0.0,0.0,0.0,0.0,0.0,0.0,0.0,0.0,0.0,0.0,0.0,0.0,0.0,0.0,0.0,0.0,0.0,0.0,0.0,0.0,0.0,0.0,0.0,0.0,0.0,0.0,0.0,0.0,0.0,0.0,0.0,0.0,0.0,0.0,0.0,0.0,0.0,0.0,0.0,0.0,0.0,0.0,0.0,0.0,0.0,0.0,0.0,0.0,0.0,0.0,0.0,0.0,0.0,0.0,0.0,0.0,0.0,0.0,0.0,0.0,0.0,0.0,0.0,0.0,0.0,0.0,0.0,0.0,0.0,0.0,0.0,0.0,0.0,0.0,0.0,0.0,0.0,0.0,0.0,0.0,0.0,0.0,0.0,0.0,0.0,0.0,0.0,0.0,0.0,0.0,0.0,0.0,0.0,0.0,0.0,0.0,0.0,0.0,0.0,0.0,0.0,0.0,0.0,0.0,0.0,0.0,0.0,0.0,0.0,0.0,0.0,0.0,0.0,0.0,0.0,0.0,0.0,0.0,0.0,0.0,0.0,0.0,0.0,0.0,0.0,0.0,0.0,0.0,0.0,0.0,0.0,0.0,0.0,0.0,0.0,0.0,0.0,0.0,0.0,0.0,0.0,0.0,0.0,0.0,0.0,0.0,0.0,0.0,0.0,0.0,0.0,0.0,0.0,0.0,0.0,0.0,0.0,0.0,0.0,0.0,0.0,0.0,0.0,0.0,0.0,0.0,0.0,0.0,0.0,0.0,0.0,0.0,0.0,0.0,0.0,0.0,0.0,0.0,0.0,0.0,0.0,0.0,0.0,0.0,0.0,0.0,0.0,0.0,0.0,0.0,0.0,0.0,0.0,0.0,0.0,0.0,0.0,0.0,0.0,0.0,0.0,0.0,0.0,0.0,0.0,0.0,0.0,0.0,0.0,0.0,0.0,0.0,0.0,0.0,0.0,0.0,0.0,0.0,0.0,0.0,0.0,0.0,0.0,0.0,0.0,0.0,0.0,0.0,0.0,0.0,0.0,0.0,0.0,-0.7666,0.0,0.0,0.0,0.0,0.0,0.0,0.0,0.0,0.0,0.0,0.0,0.0,0.0,0.0,0.0,0.0,0.0,0.0,0.0,0.0,0.0,0.0,0.0,0.0,0.0,0.0,0.0,0.0,0.0,0.0,0.0,0.0,0.0,0.0,0.0,0.0,0.0,0.0,0.0,0.0,0.0,0.0,0.0,0.0,0.0,0.0,0.0,0.0,0.0,0.0,0.0,0.0,0.0,0.0,0.0,0.0,0.0,0.0,0.0,0.0,0.0,0.0,0.0,0.0,0.0,0.0,0.0,0.0,0.0,0.0,0.0,0.0,0.0,0.0,0.0,0.0,0.0,0.0,0.0,0.0,0.0,0.0,0.0,0.0,0.0,0.0,0.0,0.0,0.0,0.0,0.0,0.0,0.0,0.0,0.0,0.0,0.0,0.0,0.0,0.0,0.0,0.0,0.0,0.0,0.0,0.0,0.0,0.0,0.0,0.0,-0.6393,-0.656,-0.6826,-0.6997,-0.709,0.0,0.0,0.0,0.0,0.0,0.0,0.0,0.0,0.0,0.0,0.0,0.0,0.0,0.0,0.0,0.0,0.0,0.0,0.0,0.0,0.0,0.0,0.0,0.0,0.0,0.0,0.0,0.0,0.0,0.0,0.0,0.0,0.0,0.0,0.0,0.0,0.0,0.0,0.0,0.0,0.0,0.0,0.0,0.0,0.0,0.0,0.0,0.0,0.0,0.0,0.0,0.0,0.0,0.0,0.0,0.0,0.0,0.0,0.0,0.0,0.0,0.0,0.0,0.0,0.0,0.0,0.0,0.0,0.0,0.0,0.0,0.0,0.0,0.0,0.0,0.0,0.0,0.0,0.0,0.0,0.0,0.0,0.0,0.0,0.0,0.0,0.0,0.0,0.0,0.0,0.0,0.0,0.0,0.0,0.0,0.0,0.0,0.0,0.0,0.0,0.0,0.0,0.0,0.0,0.0,0.0,0.0,0.0,0.0,0.0,0.0,0.0,-0.6773,-0.7111,-0.7266,0.0,0.0,0.0,0.0,0.0,0.0,0.0,0.0,0.0,0.0,0.0,0.0,0.0,0.0,0.0,0.0,0.0,0.0,0.0,0.0,0.0,0.0,0.0,0.0,0.0,0.0,0.0,0.0,0.0,0.0,0.0,0.0,0.0,0.0,0.0,0.0,0.0,0.0,0.0,0.0,0.0,0.0,0.0,0.0,0.0,0.0,0.0,0.0,0.0,0.0,0.0,0.0,0.0,0.0,0.0,0.0,0.0,0.0,0.0,0.0,0.0,0.0,0.0,0.0,0.0,0.0,0.0,0.0,0.0,0.0,0.0,0.0,0.0,0.0,0.0,0.0,0.0,0.0,0.0,0.0,0.0,0.0,0.0,0.0,0.0,0.0,0.0,0.0,0.0,0.0,0.0,0.0,0.0,0.0,0.0,0.0,0.0,0.0,0.0,0.0,0.0,0.0,0.0,0.0,0.0,0.0,0.0,0.0,0.0,0.0,-0.5797,-0.6376,-0.6898,0.0,-0.9279,0.0,0.0,0.0,0.0,0.0,0.0,0.0,0.0,0.0,0.0,0.0,0.0,0.0,0.0,0.0,0.0,0.0,0.0,0.0,0.0,0.0,0.0,0.0,0.0,0.0,0.0,0.0,0.0,0.0,0.0,0.0,0.0,0.0,0.0,0.0,0.0,0.0,0.0,0.0,0.0,0.0,0.0,0.0,0.0,0.0,0.0,0.0,0.0,0.0,0.0,0.0,0.0,0.0,0.0,0.0,0.0,0.0,0.0,0.0,0.0,0.0,0.0,0.0,0.0,0.0,0.0,0.0,0.0,0.0,0.0,0.0,0.0,0.0,0.0,0.0,0.0,0.0,0.0,0.0,0.0,0.0,0.0,0.0,0.0,0.0,0.0,0.0,0.0,0.0,0.0,0.0,0.0,0.0,0.0,0.0,0.0,0.0,0.0,0.0,0.0,0.0,0.0,0.0,0.0,0.0,0.0,0.0,0.0,0.0,0.0,-0.5035,-0.6012,-0.6257,-0.6857,0.0,0.0,0.0,0.0,0.0,0.0,0.0,0.0,0.0,0.0,0.0,0.0,0.0,0.0,0.0,0.0,0.0,0.0,0.0,0.0,0.0,0.0,0.0,0.0,0.0,0.0,0.0,0.0,0.0,0.0,0.0,0.0,0.0,0.0,0.0,0.0,0.0,0.0,0.0,0.0,0.0,0.0,0.0,0.0,0.0,0.0,0.0,0.0,0.0,0.0,0.0,0.0,0.0,0.0,0.0,0.0,0.0,0.0,0.0,0.0,0.0,0.0,0.0,0.0,0.0,0.0,0.0,0.0,0.0,0.0,0.0,0.0,0.0,0.0,0.0,0.0,0.0,0.0,0.0,0.0,0.0,0.0,0.0,0.0,0.0,0.0,0.0,0.0,0.0,0.0,0.0,0.0,0.0,0.0,0.0,0.0,0.0,0.0,0.0,0.0,0.0,0.0,0.0,0.0,0.0,0.0,0.0,0.0,0.0,0.0,-0.4223,-0.4717,-0.6042,-0.5722,-0.6112,-0.7428,0.0,0.0,0.0,0.0,0.0,0.0,0.0,0.0,0.0,0.0,0.0,0.0,0.0,0.0,0.0,0.0,0.0,0.0,0.0,0.0,0.0,0.0,0.0,0.0,0.0,0.0,0.0,0.0,0.0,0.0,0.0,0.0,0.0,0.0,0.0,0.0,0.0,0.0,0.0,0.0,0.0,0.0,0.0,0.0,0.0,0.0,0.0,0.0,0.0,0.0,0.0,0.0,0.0,0.0,0.0,0.0,0.0,0.0,0.0,0.0,0.0,0.0,0.0,0.0,0.0,0.0,0.0,0.0,0.0,0.0,0.0,0.0,0.0,0.0,0.0,0.0,0.0,0.0,0.0,0.0,0.0,0.0,0.0,0.0,0.0,0.0,0.0,0.0,0.0,0.0,0.0,0.0,0.0,0.0,0.0,0.0,0.0,0.0,0.0,0.0,0.0,0.0,0.0,0.0,0.0,0.0,0.0,0.0,-0.4886,-0.4579,-0.5219,-0.6865,-0.5544,-0.6186,0.0,0.0,0.0,0.0,0.0,0.0,0.0,0.0,0.0,0.0,0.0,0.0,0.0,0.0,0.0,0.0,0.0,0.0,0.0,0.0,0.0,0.0,0.0,0.0,0.0,0.0,0.0,0.0,0.0,0.0,0.0,0.0,0.0,0.0,0.0,0.0,0.0,0.0,0.0,0.0,0.0,0.0,0.0,0.0,0.0,0.0,0.0,0.0,0.0,0.0,0.0,0.0,0.0,0.0,0.0,0.0,0.0,0.0,0.0,0.0,0.0,0.0,0.0,0.0,0.0,0.0,0.0,0.0,0.0,0.0,0.0,0.0,0.0,0.0,0.0,0.0,0.0,0.0,0.0,0.0,0.0,0.0,0.0,0.0,0.0,0.0,0.0,0.0,0.0,0.0,0.0,0.0,0.0,0.0,0.0,0.0,0.0,0.0,0.0,0.0,0.0,0.0,0.0,0.0,0.0,0.0,0.0,0.0,0.0,-0.4031,-0.4348,-0.4643,-0.4909,-0.5302,-0.6249,0.0,0.0,0.0,0.0,0.0,0.0,0.0,0.0,0.0,0.0,0.0,0.0,0.0,0.0,0.0,0.0,0.0,0.0,0.0,0.0,0.0,0.0,0.0,0.0,0.0,0.0,0.0,0.0,0.0,0.0,0.0,0.0,0.0,0.0,0.0,0.0,0.0,0.0,0.0,0.0,0.0,0.0,0.0,0.0,0.0,0.0,0.0,0.0,0.0,0.0,0.0,0.0,0.0,0.0,0.0,0.0,0.0,0.0,0.0,0.0,0.0,0.0,0.0,0.0,0.0,0.0,0.0,0.0,0.0,0.0,0.0,0.0,0.0,0.0,0.0,0.0,0.0,0.0,0.0,0.0,0.0,0.0,0.0,0.0,0.0,0.0,0.0,0.0,0.0,0.0,0.0,0.0,0.0,0.0,0.0,0.0,0.0,0.0,0.0,0.0,0.0,0.0,0.0,0.0,0.0,0.0,0.0,0.0,0.0,-0.3432,0.0,-0.4088,-0.4218,-0.51,-0.6062,0.0,0.0,0.0,0.0,0.0,0.0,0.0,0.0,0.0,0.0,0.0,0.0,0.0,0.0,0.0,0.0,0.0,0.0,0.0,0.0,0.0,0.0,0.0,0.0,0.0,0.0,0.0,0.0,0.0,0.0,0.0,0.0,0.0,0.0,0.0,0.0,0.0,0.0,0.0,0.0,0.0,0.0,0.0,0.0,0.0,0.0,0.0,0.0,0.0,0.0,0.0,0.0,0.0,0.0,0.0,0.0,0.0,0.0,0.0,0.0,0.0,0.0,0.0,0.0,0.0,0.0,0.0,0.0,0.0,0.0,0.0,0.0,0.0,0.0,0.0,0.0,0.0,0.0,0.0,0.0,0.0,0.0,0.0,0.0,0.0,0.0,0.0,0.0,0.0,0.0,0.0,0.0,0.0,0.0,0.0,0.0,0.0,0.0,0.0,0.0,0.0,0.0,0.0,0.0,0.0,0.0,0.0,0.0,-0.2504,-0.3188,-0.2954,-0.349,-0.5081,-0.4879,-0.5691,0.0,0.0,0.0,0.0,0.0,0.0,0.0,0.0,0.0,0.0,0.0,0.0,0.0,0.0,0.0,0.0,0.0,0.0,0.0,0.0,0.0,0.0,0.0,0.0,0.0,0.0,0.0,0.0,0.0,0.0,0.0,0.0,0.0,0.0,0.0,0.0,0.0,0.0,0.0,0.0,0.0,0.0,0.0,0.0,0.0,0.0,0.0,0.0,0.0,0.0,0.0,0.0,0.0,0.0,0.0,0.0,0.0,0.0,0.0,0.0,0.0,0.0,0.0,0.0,0.0,0.0,0.0,0.0,0.0,0.0,0.0,0.0,0.0,0.0,0.0,0.0,0.0,0.0,0.0,0.0,0.0,0.0,0.0,0.0,0.0,0.0,0.0,0.0,0.0,0.0,0.0,0.0,0.0,0.0,0.0,0.0,0.0,0.0,0.0,0.0,0.0,0.0,0.0,0.0,0.0,0.0,0.0,0.0,0.0,-0.1137,-0.068,-0.1221,-0.2852,-0.3566,-0.4669,0.0,0.0,0.0,0.0,0.0,0.0,0.0,0.0,0.0,0.0,0.0,0.0,0.0,0.0,0.0,0.0,0.0,0.0,0.0,0.0,0.0,0.0,0.0,0.0,0.0,0.0,0.0,0.0,0.0,0.0,0.0,0.0,0.0,0.0,0.0,0.0,0.0,0.0,0.0,0.0,0.0,0.0,0.0,0.0,0.0,0.0,0.0,0.0,0.0,0.0,0.0,0.0,0.0,0.0,0.0,0.0,0.0,0.0,0.0,0.0,0.0,0.0,0.0,0.0,0.0,0.0,0.0,0.0,0.0,0.0,0.0,0.0,0.0,0.0,0.0,0.0,0.0,0.0,0.0,0.0,0.0,0.0,0.0,0.0,0.0,0.0,0.0,0.0,0.0,0.0,0.0,0.0,0.0,0.0,0.0,0.0,0.0,0.0,0.0,0.0,0.0,0.0,0.0,0.0,0.0,0.0,0.0,0.0,0.0,0.0887,0.0799,0.0158,-0.1163,-0.1992,-0.3272,-0.4996,0.0,0.0,0.0,0.0,0.0,0.0,0.0,0.0,0.0,0.0,0.0,0.0,0.0,0.0,0.0,0.0,0.0,0.0,0.0,0.0,0.0,0.0,0.0,0.0,0.0,0.0,0.0,0.0,0.0,0.0,0.0,0.0,0.0,0.0,0.0,0.0,0.0,0.0,0.0,0.0,0.0,0.0,0.0,0.0,0.0,0.0,0.0,0.0,0.0,0.0,0.0,0.0,0.0,0.0,0.0,0.0,0.0,0.0,0.0,0.0,0.0,0.0,0.0,0.0,0.0,0.0,0.0,0.0,0.0,0.0,0.0,0.0,0.0,0.0,0.0,0.0,0.0,0.0,0.0,0.0,0.0,0.0,0.0,0.0,0.0,0.0,0.0,0.0,0.0,0.0,0.0,0.0,0.0,0.0,0.0,0.0,0.0,0.0,0.0,0.0,0.0,0.0,0.0,0.0,0.0,0.0,0.0,0.0,0.2792,0.1717,0.0854,0.0178,-0.0274,-0.1521,0.0,0.0,0.0,0.0,0.0,0.0,0.0,0.0,0.0,0.0,0.0,0.0,0.0,0.0,0.0,0.0,0.0,0.0,0.0,0.0,0.0,0.0,0.0,0.0,0.0,0.0,0.0,0.0,0.0,0.0,0.0,0.0,0.0,0.0,0.0,0.0,0.0,0.0,0.0,0.0,0.0,0.0,0.0,0.0,0.0,0.0,0.0,0.0,0.0,0.0,0.0,0.0,0.0,0.0,0.0,0.0,0.0,0.0,0.0,0.0,0.0,0.0,0.0,0.0,0.0,0.0,0.0,0.0,0.0,0.0,0.0,0.0,0.0,0.0,0.0,0.0,0.0,0.0,0.0,0.0,0.0,0.0,0.0,0.0,0.0,0.0,0.0,0.0,0.0,0.0,0.0,0.0,0.0,0.0,0.0,0.0,0.0,0.0,0.0,0.0,0.0,0.0,0.0,0.0,0.0,0.0,0.0,0.0,0.0,0.3784,0.4017,0.3438,0.1974,0.1202,-0.0081,0.0,0.0,0.0,0.0,0.0,0.0,0.0,0.0,0.0,0.0,0.0,0.0,0.0,0.0,0.0,0.0,0.0,0.0,0.0,0.0,0.0,0.0,0.0,0.0,0.0,0.0,0.0,0.0,0.0,0.0,0.0,0.0,0.0,0.0,0.0,0.0,0.0,0.0,0.0,0.0,0.0,0.0,0.0,0.0,0.0,0.0,0.0,0.0,0.0,0.0,0.0,0.0,0.0,0.0,0.0,0.0,0.0,0.0,0.0,0.0,0.0,0.0,0.0,0.0,0.0,0.0,0.0,0.0,0.0,0.0,0.0,0.0,0.0,0.0,0.0,0.0,0.0,0.0,0.0,0.0,0.0,0.0,0.0,0.0,0.0,0.0,0.0,0.0,0.0,0.0,0.0,0.0,0.0,0.0,0.0,0.0,0.0,0.0,0.0,0.0,0.0,0.0,0.0,0.0,0.0,0.0,0.0,0.0,0.3257,0.4192,0.5037,0.4918,0.3761,0.3058,0.1513,0.0,0.0,0.0,0.0,0.0,0.0,0.0,0.0,0.0,0.0,0.0,0.0,0.0,0.0,0.0,0.0,0.0,0.0,0.0,0.0,0.0,0.0,0.0,0.0,0.0,0.0,0.0,0.0,0.0,0.0,0.0,0.0,0.0,0.0,0.0,0.0,0.0,0.0,0.0,0.0,0.0,0.0,0.0,0.0,0.0,0.0,0.0,0.0,0.0,0.0,0.0,0.0,0.0,0.0,0.0,0.0,0.0,0.0,0.0,0.0,0.0,0.0,0.0,0.0,0.0,0.0,0.0,0.0,0.0,0.0,0.0,0.0,0.0,0.0,0.0,0.0,0.0,0.0,0.0,0.0,0.0,0.0,0.0,0.0,0.0,0.0,0.0,0.0,0.0,0.0,0.0,0.0,0.0,0.0,0.0,0.0,0.0,0.0,0.0,0.0,0.0,0.0,0.0,0.0,0.0,0.0,0.0,0.0,0.3607,0.4337,0.5279,0.5584,0.5289,0.4796,0.303,0.0,0.0,0.0,0.0,0.0,0.0,0.0,0.0,0.0,0.0,0.0,0.0,0.0,0.0,0.0,0.0,0.0,0.0,0.0,0.0,0.0,0.0,0.0,0.0,0.0,0.0,0.0,0.0,0.0,0.0,0.0,0.0,0.0,0.0,0.0,0.0,0.0,0.0,0.0,0.0,0.0,0.0,0.0,0.0,0.0,0.0,0.0,0.0,0.0,0.0,0.0,0.0,0.0,0.0,0.0,0.0,0.0,0.0,0.0,0.0,0.0,0.0,0.0,0.0,0.0,0.0,0.0,0.0,0.0,0.0,0.0,0.0,0.0,0.0,0.0,0.0,0.0,0.0,0.0,0.0,0.0,0.0,0.0,0.0,0.0,0.0,0.0,0.0,0.0,0.0,0.0,0.0,0.0,0.0,0.0,0.0,0.0,0.0,0.0,0.0,0.0,0.0,0.0,0.0,0.0,0.0,0.0,0.0,0.4514,0.5348,0.5838,0.5776,0.515,0.4493,0.3281,0.0,0.0,0.0,0.0,0.0,0.0,0.0,0.0,0.0,0.0,0.0,0.0,0.0,0.0,0.0,0.0,0.0,0.0,0.0,0.0,0.0,0.0,0.0,0.0,0.0,0.0,0.0,0.0,0.0,0.0,0.0,0.0,0.0,0.0,0.0,0.0,0.0,0.0,0.0,0.0,0.0,0.0,0.0,0.0,0.0,0.0,0.0,0.0,0.579,0.0,0.0,0.0,0.0,0.0,0.0,0.0,0.0,0.0,0.0,0.0,0.0,0.0,0.0,0.0,0.0,0.0,0.0,0.0,0.0,0.0,0.0,0.0,0.0,0.0,0.0,0.0,0.0,0.0,0.0,0.0,0.0,0.0,0.0,0.0,0.0,0.0,0.0,0.0,0.0,0.0,0.0,0.0,0.0,0.0,0.0,0.0,0.0,0.0,0.0,0.0,0.0,0.0,0.0,0.0,0.0,0.0,0.0,0.0,0.4903,0.5894,0.6124,0.594,0.5391,0.467,0.3566,0.0,0.0,0.0,0.0,0.0,0.0,0.0,0.0,0.0,0.0,0.0,0.0,0.0,0.0,0.0,0.0,0.0,0.0,0.0,0.0,0.0,0.0,0.0,0.0,0.0,0.0,0.0,0.0,0.0,0.0,0.0,0.0,0.0,0.0,0.0,0.0,0.0,0.0,0.0,0.0,0.0,0.0,0.0,0.0,0.0,0.0,0.0,0.0,0.0,0.0,0.0,0.0,0.0,0.0,0.0,0.0,0.0,0.0,0.0,0.0,0.0,0.0,0.0,0.0,0.0,0.0,0.0,0.0,0.0,0.0,0.0,0.0,0.0,0.0,0.0,0.0,0.0,0.0,0.0,0.0,0.0,0.0,0.0,0.0,0.0,0.0,0.0,0.0,0.0,0.0,0.0,0.0,0.0,0.0,0.0,0.0,0.0,0.0,0.0,0.0,0.0,0.0,0.0,0.0,0.0,0.0,0.0,0.4463,0.5204,0.6277,0.624,0.6057,0.5761,0.4926,0.3795,0.2368,0.0,0.0,0.0,0.0,0.0,0.0,0.0,0.0,0.0,0.0,0.0,0.0,0.0,0.0,0.0,0.0,0.0,0.0,0.0,0.0,0.0,0.0,0.0,0.0,0.0,0.0,0.0,0.0,0.0,0.0,0.0,0.0,0.0,0.0,0.0,0.0,0.0,0.0,0.3785,0.429,0.0,0.0,0.0,0.0,0.0,0.0,0.0,0.0,0.5569,0.0,0.0,0.0,0.0,0.0,0.0,0.0,0.0,0.0,0.0,0.0,0.0,0.0,0.0,0.0,0.0,0.0,0.0,0.0,0.0,0.0,0.0,0.0,0.0,0.0,0.0,0.0,0.0,0.0,0.0,0.0,0.0,0.0,0.0,0.0,0.0,0.0,0.0,0.0,0.0,0.0,0.0,0.0,0.0,0.0,0.0,0.0,0.0,0.0,0.0,0.0,0.0,0.0,0.0,0.0,0.0,0.4336,0.5375,0.6216,0.6846,0.6421,0.6169,0.6084,0.4701,0.3838,0.3628,0.0,0.0,0.0,0.0,0.0,0.0,0.0,0.0,0.0,0.0,0.0,0.0,0.0,0.0,0.0,0.0,0.0,0.0,0.0,0.0,0.0,0.0,0.0,0.0,0.0,0.0,0.0,0.0,0.0,0.0,0.0,0.0,0.0,0.0,0.0,0.0,0.0,0.0,0.0,0.5425,0.5557,0.0,0.0,0.0,0.0,0.0,0.0,0.0,0.0,0.5851,0.0,0.0,0.0,0.0,0.0,0.0,0.0,0.0,0.0,0.0,0.0,0.0,0.0,0.0,0.0,0.0,0.0,0.0,0.0,0.0,0.0,0.0,0.0,0.0,0.0,0.0,0.0,0.0,0.0,0.0,0.0,0.0,0.0,0.0,0.0,0.0,0.0,0.0,0.0,0.0,0.0,0.0,0.0,0.0,0.0,0.0,0.0,0.0,0.0,0.0,0.0,0.0,0.0,0.0,0.0,0.5269,0.5902,0.6613,0.741,0.664,0.6196,0.6182,0.515,0.432,0.0,0.0,0.0,0.0,0.0,0.0,0.0,0.0,0.0,0.0,0.0,0.0,0.0,0.0,0.0,0.0,0.0,0.0,0.0,0.0,0.0,0.0,0.0,0.0,0.0,0.0,0.0,0.0,0.0,0.0,0.0,0.0,0.0,0.0,0.0,0.0,0.0,0.0,0.0,0.0,0.6465,0.6723,0.6538,0.0,0.0,0.0,0.0,0.0,0.0,0.7755,0.6998,0.0,0.0,0.0,0.0,0.0,0.0,0.0,0.0,0.0,0.0,0.0,0.0,0.0,0.0,0.0,0.0,0.0,0.0,0.0,0.0,0.0,0.0,0.0,0.0,0.0,0.0,0.0,0.0,0.0,0.0,0.0,0.0,0.0,0.0,0.0,0.0,0.0,0.0,0.0,0.0,0.0,0.0,0.0,0.0,0.0,0.0,0.0,0.0,0.0,0.0,0.0,0.0,0.0,0.0,0.0,0.6128,0.6318,0.6802,0.7629,0.6727,0.6196,0.6182,0.5518,0.4674,0.0,0.0,0.0,0.0,0.0,0.0,0.0,0.0,0.0,0.0,0.0,0.0,0.0,0.0,0.0,0.0,0.0,0.0,0.0,0.0,0.0,0.0,0.0,0.0,0.0,0.0,0.0,0.0,0.0,0.0,0.0,0.0,0.0,0.0,0.0,0.0,0.0,0.0,0.0,0.0,0.0,0.7996,0.7566,0.8084,0.0,0.0,0.0,0.0,0.912,0.8711,0.0,0.0,0.0,0.0,0.0,0.0,0.0,0.0,0.0,0.0,0.0,0.0,0.0,0.0,0.0,0.0,0.0,0.0,0.0,0.0,0.0,0.0,0.0,0.0,0.0,0.0,0.0,0.0,0.0,0.0,0.0,0.0,0.0,0.0,0.0,0.0,0.0,0.0,0.0,0.0,0.0,0.0,0.0,0.0,0.0,0.0,0.0,0.0,0.0,0.0,0.0,0.0,0.0,0.0,0.0,0.0,0.6147,0.6679,0.6955,0.7073,0.6512,0.6196,0.6189,0.5225,0.4499,0.0,0.0,0.0,0.0,0.0,0.0,0.0,0.0,0.0,0.0,0.0,0.0,0.0,0.0,0.0,0.0,0.0,0.0,0.0,0.0,0.0,0.0,0.0,0.0,0.0,0.0,0.0,0.0,0.0,0.0,0.0,0.0,0.0,0.0,0.0,0.0,0.0,0.0,0.0,0.0,0.0,0.9213,0.8913,0.9244,0.9369,0.0,0.0,0.9973,0.9611,0.9709,0.0,0.0,0.0,0.0,0.0,0.0,0.0,0.0,0.0,0.0,0.0,0.0,0.0,0.0,0.0,0.0,0.0,0.0,0.0,0.0,0.0,0.0,0.0,0.0,0.0,0.0,0.0,0.0,0.0,0.0,0.0,0.0,0.0,0.0,0.0,0.0,0.0,0.0,0.0,0.0,0.0,0.0,0.0,0.0,0.0,0.0,0.0,0.0,0.0,0.0,0.0,0.0,0.0,0.0,0.0,0.5402,0.6406,0.6809,0.708,0.7241,0.6579,0.6196,0.6196,0.5427,0.4961,0.0,0.0,0.0,0.0,0.0,0.0,0.0,0.0,0.0,0.0,0.0,0.0,0.0,0.0,0.0,0.0,0.0,0.0,0.0,0.0,0.0,0.0,0.0,0.0,0.0,0.0,0.0,0.0,0.0,0.0,0.0,0.0,0.0,0.0,0.0,0.0,0.0,0.0,0.0,0.0,0.0,0.0,1.0616,1.0743,0.0,0.0,0.0,1.1326,1.0598,0.0,0.0,0.0,0.0,0.0,0.0,0.0,0.0,0.0,0.0,0.0,0.0,0.0,0.0,0.0,0.0,0.0,0.0,0.0,0.0,0.0,0.0,0.0,0.0,0.0,0.0,0.0,0.0,0.0,0.0,0.0,0.0,0.0,0.0,0.0,0.0,0.0,0.0,0.0,0.0,0.0,0.0,0.0,0.0,0.0,0.0,0.0,0.0,0.0,0.0,0.0,0.0,0.0,0.0,0.0,0.0,0.0,0.6678,0.7049,0.7262,0.7343,0.668,0.6263,0.6189,0.5675,0.0,0.0,0.0,0.0,0.0,0.0,0.0,0.0,0.0,0.0,0.0,0.0,0.0,0.0,0.0,0.0,0.0,0.0,0.0,0.0,0.0,0.0,0.0,0.0,0.0,0.0,0.0,0.318,0.0,0.0,0.0,0.0,0.0,0.0,0.0,0.0,0.0,0.0,0.0,0.0,0.0,0.0,1.1488,1.2325,1.2335,1.2288,0.0,0.0,1.2539,1.1508,1.1448,1.0612,0.0,0.0,0.0,0.0,0.0,0.0,0.0,0.0,0.0,0.0,0.0,0.0,0.0,0.0,0.0,0.0,0.0,0.0,0.0,0.0,0.0,0.0,0.0,0.0,0.0,0.0,0.0,0.0,0.0,0.0,0.0,0.0,0.0,0.0,0.0,0.0,0.0,0.0,0.0,0.0,0.0,0.0,0.0,0.0,0.0,0.0,0.0,0.0,0.0,0.0,0.0,0.0,0.0,0.0,0.0,0.6963,0.7545,0.7573,0.7062,0.6727,0.6445,0.6203,0.5869,0.5569,0.0,0.0,0.0,0.0,0.0,0.0,0.0,0.0,0.0,0.0,0.0,0.0,0.0,0.0,0.0,0.0,0.0,0.0,0.0,0.0,0.0,0.0,0.0,0.0,0.0,0.0,0.0,0.0,0.0,0.0,0.0,0.0,0.0,0.0,0.0,0.0,0.0,0.0,0.0,0.0,0.0,1.366,1.3922,1.3935,1.3935,0.0,0.0,1.3483,1.1987,1.2415,1.1659,0.7847,0.0,0.0,0.0,0.0,0.0,0.0,0.0,0.0,0.0,0.0,0.0,0.0,0.0,0.0,0.0,0.0,0.0,0.0,0.0,0.0,0.0,0.0,0.0,0.0,0.0,0.0,0.0,0.0,0.0,0.0,0.0,0.0,0.0,0.0,0.0,0.0,0.0,0.0,0.0,0.0,0.0,0.0,0.0,0.0,0.0,0.0,0.0,0.0,0.0,0.0,0.0,0.0,0.0,0.6539,0.7288,0.7334,0.7238,0.7014,0.674,0.6559,0.6445,0.5965,0.5746,0.0,0.0,0.0,0.0,0.0,0.0,0.0,0.0,0.0,0.0,0.0,0.0,0.0,0.0,0.0,0.0,0.0,0.0,0.0,0.0,0.0,0.0,0.0,0.0,0.0,0.0,0.0,0.0,0.5023,0.5152,0.5704,0.0,0.0,0.0,0.0,0.0,0.0,0.0,0.0,0.0,0.0,1.3498,1.489,1.4734,0.0,0.0,1.5057,1.4588,1.3416,1.2712,1.1374,0.8673,0.7259,0.0,0.0,0.0,0.0,0.0,0.0,0.0,0.0,0.0,0.0,0.0,0.0,0.0,0.0,0.0,0.0,0.0,0.0,0.0,0.0,0.0,0.0,0.0,0.0,0.0,0.0,0.0,0.0,0.0,0.0,0.0,0.0,0.0,0.0,0.0,0.0,0.0,0.0,0.0,0.0,0.0,0.0,0.0,0.0,0.0,0.0,0.0,0.0,0.0,0.0,0.0,0.0,0.7076,0.7602,0.7545,0.7377,0.7169,0.6867,0.67,0.6587,0.6186,0.6057,0.0,0.0,0.0,0.0,0.0,0.0,0.0,0.0,0.0,0.0,0.0,0.0,0.0,0.0,0.0,0.0,0.0,0.0,0.0,0.0,0.0,0.0,0.0,0.0,0.0,0.0,0.0,0.0,0.5885,0.599,0.638,0.0,0.0,0.0,0.0,0.0,0.0,0.0,0.0,0.0,0.0,1.3845,1.5674,1.5526,1.5348,1.5635,1.5622,1.5167,1.3982,1.2718,1.1205,0.9232,0.0,0.0,0.0,0.0,0.0,0.0,0.0,0.0,0.0,0.0,0.0,0.0,0.0,0.0,0.0,0.0,0.0,0.0,0.0,0.0,0.0,0.0,0.0,0.0,0.0,0.0,0.0,0.0,0.0,0.0,0.0,0.0,0.0,0.0,0.0,0.0,0.0,0.0,0.0,0.0,0.0,0.0,0.0,0.0,0.0,0.0,0.0,0.0,0.0,0.0,0.0,0.0,0.0,0.8051,0.7903,0.835,0.8257,0.7488,0.7168,0.6853,0.6613,0.6573,0.6459,0.6209,0.0,0.0,0.0,0.0,0.0,0.0,0.0,0.0,0.0,0.0,0.0,0.0,0.0,0.0,0.0,0.0,0.0,0.0,0.0,0.0,0.0,0.0,0.0,0.0,0.0,0.0,0.6527,0.658,0.668,0.0,0.0,0.0,0.0,0.0,0.0,0.0,0.0,0.0,0.0,1.4048,1.5073,1.629,1.6466,1.6225,1.5718,1.5608,1.5023,1.3418,1.2562,1.1366,0.0,0.0,0.0,0.0,0.0,0.0,0.0,0.0,0.0,0.0,0.0,0.0,0.0,0.0,0.0,0.0,0.0,0.0,0.0,0.0,0.0,0.0,0.0,0.0,0.0,0.0,0.0,0.1429,0.1741,0.0,0.0,0.0,0.0,0.0,0.0,0.0,0.0,0.0,0.0,0.0,0.3429,0.3447,0.0,0.0,0.0,0.0,0.0,0.0,0.0,0.0,0.0,0.0,0.0,0.0,0.8423,0.7943,0.8349,0.8111,0.7217,0.7046,0.6953,0.688,0.6687,0.6566,0.6466,0.0,0.0,0.0,0.0,0.0,0.0,0.0,0.0,0.0,0.0,0.0,0.0,0.0,0.0,0.0,0.0,0.0,0.0,0.0,0.0,0.0,0.0,0.0,0.0,0.0,0.671,0.0,0.0,0.0,0.0,0.0,0.0,0.0,0.0,0.0,0.0,0.0,1.1687,1.3317,1.4221,1.513,1.6349,1.6513,1.6423,0.0,0.0,0.0,0.0,0.0,0.0,0.0,0.0,0.0,0.0,0.0,0.0,0.0,0.0,0.1734,0.1497,0.1634,0.1836,0.1999,0.0,0.0,0.0,0.0,0.0,0.0,0.0,0.0,0.0,0.0,0.0,0.0,0.0,0.0,0.2046,0.0,0.2052,0.0,0.0,0.0,0.0,0.0,0.0,0.0,0.0,0.3128,0.3366,0.3604,0.3862,0.4364,0.0,0.5181,0.537,0.0,0.0,0.0,0.0,0.0,0.0,0.0,0.0,0.909,0.8588,0.8701,0.842,0.7693,0.7228,0.6993,0.6993,0.674,0.664,0.6734,0.6647,0.6653,0.0,0.0,0.0,0.0,0.0,0.0,0.0,0.0,0.0,0.0,0.0,0.0,0.0,0.0,0.0,0.0,0.0,0.0,0.0,0.0,0.0,0.0,0.0,0.7454,0.0,0.0,0.0,0.0,0.0,0.0,0.0,0.0,0.0,1.0092,1.0924,1.2163,1.3825,1.4423,1.5062,1.6064,0.0,0.0,0.0,0.0,0.0,0.0,0.0,1.1175,1.0772,0.8732,0.6832,0.5772,0.4677,0.3854,0.358,0.0,0.0,0.264,0.2586,0.2777,0.3063,0.3124,0.341,0.4207,0.4307,0.4399,0.0,0.0,0.0,0.0,0.0,0.0,0.0,0.0,0.1887,0.1997,0.0,0.2115,0.0,0.0,0.0,0.0,0.0,0.2853,0.0,0.0,0.3644,0.382,0.3758,0.4433,0.4771,0.485,0.6158,0.6944,0.7211,0.6035,0.0,0.0,0.0,0.0,0.0,0.0,1.0081,0.9739,0.9483,0.9181,0.879,0.7649,0.7006,0.7,0.6754,0.674,0.6973,0.6754,0.672,0.7,0.7273,0.0,0.0,0.0,0.0,0.0,0.0,0.0,0.0,0.0,0.0,0.0,0.0,0.0,0.0,0.0,0.0,0.0,0.0,0.0,0.0,0.7579,0.0,0.0,0.0,0.0,0.0,0.0,0.0,0.0,0.0,0.0,1.1451,1.1695,1.255,1.4489,0.0,0.0,0.0,0.0,1.5903,1.4212,1.4351,1.4292,1.3128,1.2038,1.1296,1.127,0.0,0.0,0.6538,0.6246,0.6026,0.5339,0.612,0.6162,0.3643,0.3203,0.3375,0.4217,0.4337,0.4464,0.5256,0.5322,0.5127,0.288,0.0,0.0,0.0,0.0,0.26,0.277,0.2755,0.3197,0.3401,0.3434,0.3434,0.0,0.0,0.0,0.0,0.0,0.0,0.4233,0.4636,0.5337,0.5579,0.5472,0.5684,0.5995,0.6427,0.6825,0.7263,0.7695,0.7353,0.7416,0.7898,0.0,0.0,0.0,0.0,1.0267,0.9587,0.9898,0.936,0.7936,0.7555,0.7235,0.6985,0.692,0.692,0.6993,0.6926,0.7034,0.7321,0.6852,0.0,0.0,0.0,0.0,0.0,0.0,0.0,0.0,0.0,0.0,0.0,0.0,0.0,0.0,0.0,0.0,0.0,0.0,0.0,0.8711,0.8614,0.8741,0.0,0.0,0.0,0.0,0.0,0.0,0.0,0.0,0.0,1.2851,1.2713,1.3352,0.0,0.0,1.5799,1.7246,1.7154,1.6622,1.5788,1.4988,0.0,1.3652,1.23,1.1286,1.1286,0.9886,0.8474,0.7613,0.7639,0.7695,0.7461,0.787,0.8007,0.7504,0.7189,0.7086,0.7278,0.6839,0.67,0.7504,0.6605,0.5854,0.2968,0.2078,0.2813,0.3057,0.3016,0.3396,0.351,0.3476,0.3855,0.4028,0.406,0.4085,0.3933,0.3672,0.3643,0.0,0.0,0.0,0.4776,0.5412,0.5857,0.6152,0.6365,0.6669,0.6971,0.7329,0.7635,0.7947,0.8245,0.8252,0.8432,0.8791,0.0,0.0,0.9806,1.0466,1.0538,0.9989,1.0262,0.9692,0.8289,0.7763,0.735,0.7013,0.6993,0.7053,0.7194,0.7194,0.7363,0.7635,0.7276,0.7053,0.0,0.0,0.0,0.0,0.0,0.0,0.0,0.0,0.0,0.0,0.0,0.7209,0.0,0.0,0.0,0.0,0.8291,0.9393,1.0268,0.9583,0.0,0.0,0.0,0.0,0.0,0.0,0.0,1.1971,1.2558,1.3193,1.3902,1.3905,1.4305,1.5604,1.5356,1.5532,1.6792,0.0,1.6161,1.557,1.4752,1.4049,1.372,1.2573,1.1599,1.1285,1.0283,0.9355,0.8804,0.8809,0.8865,0.88,0.9157,0.9578,0.9741,0.9955,0.985,0.9044,0.8436,0.8251,0.871,0.7698,0.7038,0.2815,0.3541,0.4208,0.4389,0.4214,0.4214,0.4159,0.4031,0.4031,0.4105,0.4207,0.421,0.4338,0.4487,0.4546,0.0,0.457,0.468,0.5113,0.5674,0.5728,0.6113,0.6804,0.7471,0.7777,0.7803,0.8487,0.8778,0.8771,0.8771,0.8778,0.8798,0.8544,0.8887,0.9773,1.0415,1.0712,1.0712,1.0467,0.9995,0.9283,0.8103,0.7343,0.7006,0.7026,0.7188,0.7471,0.7517,0.7665,0.7925,0.8203,0.8114,0.7611,0.0,0.0,0.0,0.0,0.0,0.0,0.0,0.0,0.0,0.0,0.0,0.0,0.0,0.0,0.0,0.9959,0.0,1.1562,1.0441,0.0,0.0,0.0,1.0148,0.9734,1.1536,1.2765,1.2591,0.0,0.0,1.4761,1.5096,1.5243,1.5211,1.4881,1.4774,1.5216,1.5463,1.5121,1.4449,1.4002,1.3751,1.3456,1.2706,1.1934,1.1329,1.0856,1.0347,0.9916,0.9813,0.9673,0.9468,1.01,1.0773,1.0896,1.1588,1.1737,0.9943,0.939,0.9166,0.9171,0.8766,0.8161,0.407,0.4267,0.4432,0.447,0.4412,0.444,0.4416,0.4385,0.4358,0.4406,0.4412,0.4409,0.4457,0.4546,0.503,0.5269,0.5328,0.6448,0.7015,0.7203,0.7771,0.8123,0.8289,0.8454,0.854,0.856,0.8699,0.8778,0.8778,0.8778,0.8778,0.8798,0.8738,0.907,0.978,0.9969,1.0038,1.0038,0.9987,0.9405,0.8294,0.7777,0.7343,0.7006,0.7241,0.7417,0.7513,0.7695,0.7963,0.8268,0.8123,0.8076,0.8181,0.8016,0.0,0.0,0.0,0.0,0.0,0.0,0.0,0.0,0.0,0.816,0.8143,0.0,0.9275,0.0,1.0352,1.1016,1.1531,1.0463,0.0,0.0,1.0435,1.0287,1.1883,1.2076,1.2373,1.3167,1.3675,1.4384,1.5502,1.5687,1.5821,1.6123,1.6277,1.6528,1.6938,1.6531,1.5923,1.5049,1.4376,1.3813,1.3143,1.2377,1.1813,1.1662,1.1058,1.0623,1.0679,1.084,1.1024,1.1223,1.158,1.1875,1.1909,1.215,1.215,1.1607,1.0809,1.0335,1.0946,0.9671,0.8429,0.4552,0.4491,0.4491,0.4491,0.4491,0.4491,0.4491,0.4491,0.4491,0.4491,0.4491,0.4491,0.468,0.4976,0.5324,0.5678,0.6036,0.6853,0.7396,0.7723,0.8129,0.848,0.8778,0.8778,0.8778,0.8785,0.8911,0.8904,0.8824,0.8911,0.8904,0.8811,0.9106,0.9283,0.9354,0.964,0.9795,0.9795,0.951,0.8892,0.7949,0.7762,0.7528,0.7241,0.727,0.7484,0.7903,0.7909,0.8105,0.853,0.841,0.8337,0.8395,0.8223,0.813,0.0,0.0,0.0,0.0,0.0,0.0,0.0,0.0,0.0,0.0,0.0,1.0425,1.0935,1.1449,1.1862,1.2148,1.1244,1.1019,1.1906,1.1096,1.1002,1.2301,1.2353,1.2673,1.3659,1.3968,1.4491,1.553,1.5984,1.6123,1.6053,1.6752,1.7103,1.6637,1.5935,1.5314,1.5029,1.4188,1.3516,1.3199,1.2343,1.178,1.1924,1.1234,1.0727,1.1109,1.1316,1.1557,1.1971,1.2198,1.2305,1.2305,1.2305,1.2271,1.1989,1.1144,1.0727,1.1453,0.9885,0.8477,0.4644,0.4518,0.4529,0.4491,0.4491,0.4491,0.4491,0.4491,0.4491,0.4546,0.4625,0.4708,0.5085,0.5624,0.5651,0.5982,0.6588,0.6618,0.6982,0.7609,0.7724,0.812,0.8751,0.8864,0.8925,0.8925,0.9144,0.9138,0.8938,0.9144,0.9124,0.8871,0.9444,0.943,0.8857,0.9387,0.9658,0.9692,0.9106,0.8537,0.7979,0.7965,0.7842,0.7558,0.7275,0.7528,0.8348,0.8099,0.8212,0.8738,0.8778,0.8691,0.8469,0.8456,0.8456,0.0,0.8183,0.0,0.0,0.0,0.0,0.0,0.0,0.0,0.0,1.0523,1.1667,1.2235,1.2656,1.2915,1.2915,1.2236,1.1839,1.1913,1.1839,1.1839,1.1947,1.2548,1.3312,1.4149,1.4277,1.4676,1.5788,1.6386,1.6539,1.6044,1.6834,1.7102,1.584,1.5089,1.4764,1.4761,1.3769,1.335,1.3513,1.2725,1.2125,1.2321,1.1577,1.0923,1.1309,1.1389,1.161,1.2138,1.2291,1.2305,1.2305,1.2305,1.2204,1.1951,1.0943,1.0361,1.0769,0.966,0.8322,0.4674,0.4636,0.4539,0.4491,0.4491,0.4491,0.4491,0.4491,0.4491,0.4814,0.5355,0.5932,0.6258,0.6394,0.6394,0.6475,0.6625,0.6769,0.69,0.7079,0.7886,0.8334,0.8513,0.9192,0.9519,0.9519,0.9601,0.9573,0.9519,0.9573,0.9452,0.9138,0.9261,0.914,0.8818,0.0,0.0,0.0,0.8883,0.8637,0.8328,0.8322,0.815,0.7832,0.7766,0.0,0.8368,0.8342,0.8476,0.8784,0.8778,0.0,0.0,0.0,0.0,0.0,0.0,0.0,0.0,0.0,0.0,0.0,1.0142,1.0417,1.0179,1.1604,1.2624,1.2764,1.2856,1.2915,1.2905,1.2236,1.2055,1.2593,1.2153,1.203,1.2618,1.3099,1.3779,1.4863,1.5336,1.6186,1.7662,1.8194,1.795,1.7235,1.744,1.7257,1.6415,1.6189,1.5738,1.4556,1.4037,1.4033,1.45,1.3784,1.3027,1.2879,1.2181,1.1564,1.1452,1.1436,1.163,1.2191,1.2305,1.2305,1.2305,1.2305,1.2204,1.196,1.0953,1.0076,1.0003,0.9014,0.7844,0.4867,0.0,0.464,0.4604,0.0,0.46,0.4752,0.4976,0.4976,0.5382,0.6068,0.6588,0.7025,0.7395,0.7538,0.779,0.8133,0.8234,0.8293,0.8299,0.8806,0.902,0.9049,0.9499,0.9715,0.9722,0.9826,0.9826,0.9699,0.9826,0.9679,0.9217,0.9563,0.9438,0.8818,0.8778,0.8778,0.8778,0.8778,0.8664,0.8415,0.8402,0.8328,0.8156,0.7985,0.0,0.0,0.0,0.0,0.0,0.0,0.0,0.0,0.8778,0.0,0.8778,0.8778,0.8778,0.8778,0.8778,0.9087,0.9762,1.0745,1.1388,1.161,1.242,1.2915,1.2915,1.2915,1.2915,1.2881,1.2559,1.2476,1.2822,1.2559,1.2501,1.2861,1.3252,1.3961,1.5002,1.5622,1.6494,1.7962,1.8178,1.8031,1.7677,1.7934,1.7788,1.694,1.651,1.5871,1.4844,1.4631,1.467,1.4705,1.4119,1.3656,1.3459,1.2709,1.2109,1.202,1.1819,1.1797,1.2204,1.2305,1.2305,1.2305,1.2305,1.2164,1.1686,1.083,0.9828,0.9053,0.807,0.7242,0.5032,0.4914,0.4792,0.4718,0.4694,0.4721,0.5119,0.5758,0.0,0.0,0.0,0.738,0.7892,0.8454,0.8544,0.8938,0.9476,0.9376,0.9366,0.9372,0.9541,0.9626,0.9633,0.9804,0.9869,0.9883,1.0087,1.0074,0.9883,1.0027,0.9817,0.938,0.9859,0.9674,0.8851,0.8778,0.8778,0.8778,0.8778,0.8717,0.8489,0.8476,0.8476,0.8476,0.8139,0.8232,0.8778,0.8556,0.8529,0.8784,0.8778,0.8778,0.8778,0.8778,0.8778,0.8778,0.8778,0.8857,0.8956,0.8982,0.9309,1.009,1.13,1.2236,1.2856,1.2915,1.2915,1.2915,1.2915,1.2915,1.2915,1.2915,1.2915,1.2915,1.2915,1.2905,1.2944,1.333,1.4035,1.5034,1.5717,1.651,1.7664,1.7924,1.7827,1.7884,1.8301,1.8398,1.7448,1.6691,1.6084,1.561,1.5495,1.5333,1.4915,1.445,1.4045,1.407,1.3351,1.276,1.2621,1.2401,1.2215,1.2245,1.2305,1.2305,1.2305,1.2305,1.2091,1.1509,1.0833,0.9839,0.8379,0.7437,0.6887,0.5121,0.5059,0.4918,0.4809,0.4701,0.48,0.5557,0.6751,0.7488,0.8006,0.8352,0.9044,0.9382,0.9446,0.8868,0.8669,0.8716,0.8215,0.7972,0.8014,0.8919,0.9352,0.939,1.0121,1.0466,1.0472,1.0512,1.0506,1.0452,1.0221,0.9947,0.9626,0.945,0.9173,0.8831,0.8778,0.8778,0.8778,0.8778,0.8791,0.8751,0.8744,0.8744,0.8738,0.8464,0.8464,0.8784,0.8556,0.8536,0.8791,0.8778,0.8778,0.8778,0.8778,0.8778,0.8778,0.8778,0.9035,0.9614,0.9658,1.0192,1.1408,1.227,1.2798,1.2881,1.2915,1.2915,1.2915,1.2915,1.2915,1.2915,1.2915,1.2915,1.2915,1.2915,1.2915,1.2925,1.3564,1.4314,1.5184,1.6059,1.7111,1.8245,1.8618,1.8623,1.8569,1.8691,1.8652,1.8351,1.752,1.6852,1.6607,1.6417,1.6069,1.5436,1.5264,1.4857,1.4284,1.4403,1.4005,1.3048,1.2969,1.2899,1.2428,1.2342,1.2305,1.2305,1.2305,1.2051,1.1535,1.123,1.0454,0.8489,0.7814,0.7246,0.6815,0.6638,0.6488,0.6118,0.5654,0.6027,0.6964,0.8226,0.8913,0.9109,0.9017,0.962,0.992,0.9903,0.9741,0.969,0.9665,0.9407,0.9268,0.9312,0.9787,1.0015,1.0047,1.0396,1.0586,1.0586,1.0586,1.0586,1.0573,1.0421,1.0134,0.9679,0.9225,0.8938,0.8818,0.8778,0.8778,0.8778,0.8778,0.8778,0.8778,0.8778,0.8778,0.8778,0.8677,0.8671,0.8778,0.8684,0.8671,0.8778,0.8778,0.8778,0.8778,0.8778,0.8778,0.8811,0.9166,0.9484,0.9762,1.0491,1.1141,1.1765,1.2476,1.2915,1.2915,1.2915,1.2915,1.2915,1.2915,1.2915,1.2915,1.2915,1.2915,1.2915,1.2915,1.2915,1.3003,1.3597,1.4552,1.5657,1.6293,1.7205,1.8685,1.8618,1.8571,1.8775,1.9085,1.9268,1.9281,1.8851,1.8175,1.7416,1.7131,1.6592,1.5642,1.542,1.5235,1.4864,1.4974,1.4847,1.4139,1.3897,1.3421,1.3092,1.2696,1.2342,1.2291,1.2164,1.1951,1.1764,1.1363,1.0397,0.8771,0.7428,0.6342,0.8256,0.8083,0.7848,0.7354,0.6836,0.735,0.8199,0.9202,0.9796,0.983,0.9517,0.9963,1.0221,1.0241,1.0492,1.0586,1.0586,1.0586,1.0586,1.0586,1.0586,1.0626,1.068,1.0633,1.0626,1.0667,1.0626,1.0586,1.0586,1.0526,1.0231,0.9708,0.9158,0.8905,0.8878,0.8838,0.8778,0.8804,0.8936,0.9008,0.9035,0.9166,0.9263,0.9237,0.9113,0.9001,0.9008,0.8883,0.8778,0.8778,0.8778,0.8778,0.8804,0.8936,0.9008,0.9087,0.9633,1.009,1.032,1.1375,1.2055,1.2055,1.2559,1.2915,1.2915,1.2915,1.2915,1.2915,1.2915,1.2915,1.2915,1.2915,1.2915,1.2915,1.2915,1.2915,1.2983,1.3535,1.4447,1.5705,1.6202,1.7029,1.8228,1.8409,1.8495,1.912,1.9534,1.9786,1.9798,1.9798,1.9228,1.8286,1.7715,1.6996,1.5719,1.542,1.5381,1.54,1.5449,1.5296,1.5033,1.4418,1.3842,1.3512,1.2863,1.2339,1.2136,1.1931,1.1744,1.1618,1.1269,1.0447,0.8655,0.705,0.5723,0.8376,0.8325,0.8072,0.7931,0.7908,0.8281,0.8639,0.899,0.9719,1.0063,1.006,1.0405,1.0546,1.0553,1.0579,1.0586,1.0593,1.0593,1.06,1.0606,1.0586,1.0734,1.0935,1.072,1.0734,1.0875,1.0713,1.0586,1.0573,1.0301,1.0007,0.9708,0.9331,0.9137,0.9138,0.8938,0.8785,0.8811,0.9413,0.9692,0.9744,1.0287,1.061,1.0593,0.9987,0.971,0.9614,0.9133,0.8778,0.8778,0.8778,0.8804,0.8857,0.9361,0.9684,0.9744,1.0338,1.0965,1.1591,1.2378,1.2774,1.2798,1.2822,1.2915,1.2915,1.2915,1.2915,1.2915,1.2915,1.2915,1.2915,1.2915,1.2915,1.2915,1.2915,1.2915,1.2964,1.3281,1.3825,1.4488,1.5655,1.6712,1.786,1.8485,1.9071,1.9471,1.9685,1.9798,1.9798,1.9798,1.9527,1.8688,1.8058,1.7047,1.5842,1.541,1.5419,1.5449,1.5742,1.5569,1.5091,1.4941,1.4759,1.3454,1.2816,1.2427,1.1784,1.1463,1.1369,1.1202,1.0877,1.028,0.8543,0.7098,0.6159,0.8412,0.8275,0.8085,0.8291,0.8747,0.8939,0.9352,0.9887,1.025,1.0412,1.0419,1.0546,1.0586,1.0586,1.0586,1.0586,1.06,1.0767,1.0815,1.0868,1.0989,1.1049,1.0975,1.0882,1.0834,1.0767,1.0646,1.0586,1.0539,1.0261,1.0053,0.992,0.9646,0.9391,0.9217,0.9098,0.8958,0.8818,0.9465,0.9987,1.0312,1.0269,1.021,1.0141,0.9562,0.9211,0.9185,0.8936,0.8778,0.8778,0.8778,0.8982,0.9387,0.9666,0.9969,1.0389,1.1015,1.1699,1.2403,1.2749,1.2915,1.2915,1.2915,1.2915,1.2915,1.2915,1.2915,1.2915,1.2915,1.2915,1.2915,1.2915,1.2915,1.2915,1.2915,1.2915,1.2915,1.3242,1.3867,1.4873,1.5615,1.655,1.7809,1.8623,1.907,1.9346,1.9572,1.9798,1.9798,1.9798,1.9475,1.8838,1.8175,1.7421,1.6421,1.5898,1.5611,1.5333,1.5274,1.5119,1.5179,1.4945,1.4565,1.358,1.3035,1.2383,1.1559,1.1149,1.0921,1.0679,0.9592,0.8593,0.7209,0.6243,0.5531,0.8579,0.8611,0.8679,0.9069,0.9658,0.9658,1.0009,1.0555,1.0586,1.0586,1.0586,1.0586,1.0586,1.0586,1.0586,1.0586,1.062,1.0814,1.0875,1.0928,1.1096,1.1116,1.0989,1.0902,1.0841,1.0713,1.0633,1.0586,1.0566,1.0392,1.0241,1.0194,0.9947,0.9693,0.9451,0.9317,0.9111,0.8991,0.9489,1.0038,1.0389,1.0038,0.9987,1.0236,0.951,0.9061,0.9087,0.8883,0.8883,0.9061,0.9087,0.9387,1.0012,1.0236,1.0644,1.1309,1.1832,1.2344,1.2881,1.2915,1.2915,1.2915,1.2915,1.2915,1.2915,1.2915,1.2915,1.2915,1.2915,1.2915,1.2915,1.2915,1.2915,1.2915,1.2915,1.2915,1.2935,1.3288,1.4078,1.5289,1.5984,1.6885,1.8289,1.8983,1.9271,1.9334,1.9585,1.9798,1.9798,1.9798,1.9554,1.8889,1.8437,1.7847,1.6999,1.6297,1.5727,1.5252,1.5026,1.5014,1.5066,1.469,1.4072,1.308,1.2751,1.2055,1.0971,1.0499,1.0199,1.0008,0.9009,0.7547,0.6605,0.5703,0.5252,0.8879,0.9614,1.0226,1.0364,1.0498,1.0498,1.0523,1.0586,1.0586,1.0586,1.0586,1.0586,1.0586,1.0586,1.0586,1.0586,1.0593,1.0633,1.068,1.0693,1.0713,1.0801,1.0995,1.0754,1.076,1.0935,1.0707,1.0586,1.0586,1.0573,1.0573,1.0539,1.0234,1.0057,0.9937,0.9484,0.9211,0.9227,0.9523,0.9814,0.9858,0.9814,1.0346,1.1291,1.0415,0.9658,0.9666,0.914,0.9087,0.9744,0.9762,1.0064,1.072,1.1341,1.2005,1.2642,1.2808,1.2856,1.2881,1.2915,1.2915,1.2915,1.2944,1.2915,1.2915,1.2954,1.2954,1.2915,1.2915,1.2915,1.2954,1.2983,1.2988,1.3027,1.2973,1.2983,1.2968,1.3522,1.4283,1.544,1.6591,1.7832,1.942,1.9748,1.971,1.971,1.9773,1.9773,1.9723,1.9748,1.9471,1.9071,1.8747,1.841,1.7099,1.6262,1.5712,1.5171,1.48,1.4797,1.4437,1.3967,1.3222,1.258,1.2167,1.1408,1.0253,0.9577,0.9307,0.8972,0.8569,0.7419,0.6028,0.6117,0.5564,0.7289,0.8039,0.927,0.9754,0.9817,1.0364,1.0586,1.0586,1.0586,1.0586,1.0586,1.0586,1.0586,1.0586,1.0586,1.0586,1.0606,1.078,1.0968,1.1116,1.1343,1.1491,1.1503,1.1249,1.1049,1.0955,1.074,1.0586,1.0586,1.0586,1.0586,1.0579,1.0492,1.0314,1.008,0.9726,0.9411,0.9225,0.9179,0.9368,0.9736,0.9387,0.9814,1.099,0.9865,0.9361,0.9795,0.9569,0.9736,1.0415,1.044,1.0745,1.1416,1.2113,1.2608,1.2856,1.2915,1.2915,1.2915,1.2915,1.2915,1.2935,1.316,1.3135,1.2988,1.3105,1.3174,1.2983,1.2915,1.3003,1.3223,1.3281,1.3437,1.3789,1.3852,1.391,1.4052,1.4271,1.4807,1.6009,1.7412,1.8772,1.9483,1.9798,1.9798,1.9798,1.9798,1.9648,1.9359,1.9284,1.9096,1.8569,1.818,1.7812,1.7386,1.6257,1.5457,1.4804,1.4352,1.3998,1.3629,1.3259,1.2618,1.2077,1.1621,1.0898,0.9823,0.9032,0.8657,0.7751,0.7335,0.671,0.5324,0.5132,0.4596,0.7225,0.8006,0.9384,0.9876,0.9836,1.0437,1.068,1.06,1.0586,1.0586,1.0586,1.0586,1.0586,1.0586,1.0586,1.0586,1.0606,1.0794,1.0962,1.1162,1.145,1.1618,1.1605,1.1476,1.1329,1.1116,1.0874,1.0687,1.06,1.0586,1.0586,1.0586,1.0506,1.0438,1.0375,1.0082,0.9834,0.9775,0.9597,0.9684,1.002,0.9692,0.9865,1.0517,0.9917,0.964,1.009,1.0115,1.044,1.1023,1.126,1.172,1.2473,1.2886,1.3101,1.3076,1.2974,1.2915,1.2915,1.2915,1.2915,1.2915,1.314,1.3164,1.2954,1.3169,1.3125,1.2974,1.2915,1.3047,1.3469,1.3818,1.416,1.4449,1.4775,1.4974,1.4987,1.5324,1.6056,1.7183,1.8413,1.9334,1.9698,1.9786,1.971,1.9572,1.9534,1.9346,1.887,1.8719,1.8581,1.8041,1.7712,1.7388,1.6876,1.5951,1.5308,1.4673,1.4063,1.3549,1.3043,1.264,1.2113,1.1624,1.0974,1.0272,0.9486,0.8651,0.7715,0.6754,0.6251,0.5814,0.4799,0.3974,0.366,0.8992,0.9692,1.0923,1.0963,1.0637,1.0829,1.0854,1.0646,1.06,1.0586,1.0586,1.0586,1.0586,1.0586,1.0586,1.0586,1.06,1.0626,1.0673,1.0747,1.0942,1.1096,1.1162,1.1349,1.1362,1.1323,1.1096,1.0854,1.06,1.0586,1.0618,1.0551,1.036,1.0567,1.1078,1.0617,1.0628,1.0921,1.0745,1.0669,1.0788,1.0661,1.0686,1.0838,1.0762,1.0762,1.0864,1.0838,1.1116,1.176,1.22,1.2976,1.359,1.3568,1.3422,1.334,1.3086,1.2935,1.2915,1.2915,1.2915,1.2959,1.293,1.3052,1.3101,1.3066,1.3086,1.3115,1.3081,1.316,1.372,1.4558,1.4976,1.4662,1.5543,1.6101,1.585,1.6572,1.7666,1.8585,1.9309,1.9748,1.9798,1.9798,1.9635,1.9246,1.917,1.8931,1.839,1.8262,1.8023,1.7561,1.7285,1.7061,1.633,1.5579,1.5119,1.4605,1.401,1.3453,1.2861,1.2398,1.1684,1.1109,1.0325,0.9592,0.8868,0.8039,0.7351,0.6475,0.5869,0.5214,0.4587,0.3901,0.3342,0.9605,1.023,1.0837,1.1149,1.1129,1.1049,1.0935,1.0861,1.0687,1.0593,1.0586,1.0586,1.0586,1.0586,1.0586,1.0586,1.0586,1.0593,1.0693,1.0868,1.0981,1.1202,1.1496,1.147,1.1289,1.1109,1.0868,1.0687,1.0606,1.0586,1.0711,1.0859,1.0836,1.1034,1.1456,1.1169,1.1126,1.1237,1.0969,1.0813,1.0813,1.0813,1.1015,1.1441,1.1482,1.1699,1.2181,1.1749,1.1848,1.2501,1.2693,1.2926,1.3173,1.3145,1.3101,1.3091,1.2983,1.2915,1.2915,1.2925,1.3008,1.3223,1.3301,1.3467,1.3665,1.3707,1.3765,1.3885,1.3943,1.4138,1.4735,1.5503,1.5681,1.5099,1.6418,1.7095,1.6582,1.726,1.7965,1.8433,1.9246,1.9736,1.9798,1.9786,1.9535,1.9132,1.9201,1.9039,1.8063,1.7955,1.7769,1.702,1.6888,1.6745,1.6174,1.5488,1.488,1.4387,1.3813,1.3372,1.2803,1.1965,1.1275,1.0491,0.971,0.8995,0.8256,0.7536,0.6885,0.6095,0.5328,0.4842,0.446,0.3904,0.3289,1.0372,1.0986,1.134,1.1443,1.1395,1.1329,1.1189,1.0989,1.0841,1.07,1.0613,1.0586,1.0586,1.0586,1.0586,1.0586,1.0586,1.0586,1.0687,1.0868,1.0962,1.1209,1.1564,1.1483,1.1276,1.1015,1.0841,1.0693,1.0618,1.0708,1.0887,1.1063,1.1156,1.1431,1.1852,1.1641,1.1576,1.1808,1.1707,1.1584,1.1584,1.1584,1.1792,1.2138,1.2212,1.2452,1.2822,1.2427,1.2427,1.2827,1.3032,1.3164,1.3311,1.3232,1.3115,1.312,1.2993,1.2915,1.2915,1.2915,1.3003,1.3248,1.3487,1.3691,1.3967,1.4119,1.4372,1.4481,1.4481,1.467,1.5086,1.5893,1.6033,1.5509,1.7144,1.8032,1.7858,1.8342,1.8744,1.902,1.9422,1.9635,1.9572,1.9497,1.9283,1.8883,1.8806,1.8868,1.7825,1.7597,1.714,1.6803,1.6726,1.6507,1.6132,1.5466,1.4709,1.4107,1.3539,1.3224,1.2822,1.1717,1.0813,0.9961,0.9159,0.8705,0.8023,0.7241,0.6534,0.5687,0.4924,0.4653,0.4322,0.3652,0.301,1.1223,1.1937,1.2131,1.1911,1.1529,1.173,1.1516,1.1076,1.0982,1.0847,1.0633,1.0586,1.0586,1.0586,1.0586,1.0586,1.0593,1.0653,1.064,1.0713,1.0848,1.1056,1.1109,1.1269,1.1216,1.1022,1.0895,1.0826,1.0825,1.0922,1.1182,1.1433,1.1507,1.1727,1.2219,1.204,1.2218,1.2675,1.2793,1.2759,1.2749,1.2783,1.2798,1.2822,1.2822,1.2822,1.2856,1.2832,1.2832,1.2954,1.3218,1.3486,1.3802,1.3672,1.3379,1.335,1.3076,1.2954,1.2915,1.3017,1.3066,1.3214,1.3652,1.3902,1.4179,1.4545,1.48,1.4922,1.4911,1.4879,1.5143,1.5786,1.6154,1.609,1.737,1.8571,1.9497,1.951,1.9296,1.9447,1.966,1.956,1.9058,1.9007,1.8778,1.8296,1.7965,1.8017,1.7639,1.7295,1.696,1.6752,1.6637,1.6312,1.5964,1.5332,1.4583,1.3944,1.329,1.2745,1.2421,1.1359,1.0312,0.9484,0.8765,0.8315,0.7696,0.6858,0.6122,0.5359,0.4842,0.4598,0.4181,0.3622,0.3121,1.146,1.2144,1.181,1.1817,1.2024,1.1944,1.167,1.1269,1.1082,1.0888,1.064,1.0586,1.0586,1.0586,1.0586,1.0586,1.0633,1.0826,1.078,1.066,1.0855,1.0982,1.0995,1.1095,1.1102,1.0975,1.0774,1.075,1.1379,1.1152,1.16,1.2886,1.2318,1.2428,1.2994,1.2788,1.271,1.2881,1.2915,1.2915,1.2915,1.2915,1.2915,1.2915,1.2915,1.2915,1.2915,1.2915,1.2915,1.2915,1.2969,1.3076,1.3232,1.3145,1.3086,1.3081,1.3003,1.2915,1.2968,1.33,1.3649,1.3989,1.4234,1.473,1.5373,1.5222,1.5412,1.5706,1.5881,1.589,1.6031,1.6289,1.6547,1.6898,1.731,1.7754,1.8493,1.8618,1.8618,1.8656,1.8995,1.8933,1.8641,1.8676,1.8593,1.7965,1.7931,1.8044,1.7525,1.718,1.693,1.6659,1.6466,1.6139,1.571,1.5107,1.4468,1.3792,1.2982,1.203,1.1584,1.0872,0.9909,0.9035,0.8415,0.791,0.7095,0.6231,0.5578,0.503,0.4759,0.446,0.4267,0.3846,0.3456,1.1844,1.2278,1.1937,1.1948,1.2271,1.2124,1.1884,1.159,1.1303,1.1009,1.0794,1.064,1.0586,1.0586,1.0586,1.0586,1.0651,1.1099,1.1231,1.1227,1.1658,1.1489,1.1118,1.1086,1.1343,1.1372,1.1319,1.1729,1.2188,1.2006,1.2614,1.3313,1.3222,1.3223,1.3394,1.3291,1.3037,1.2944,1.2915,1.2915,1.2915,1.2915,1.2915,1.2915,1.2915,1.2915,1.2915,1.2915,1.2915,1.2915,1.2915,1.2915,1.2915,1.2915,1.2915,1.2915,1.2915,1.2915,1.3027,1.3467,1.386,1.4196,1.4625,1.5268,1.5705,1.5753,1.604,1.6266,1.6383,1.6426,1.6529,1.6722,1.7137,1.7566,1.7426,1.7601,1.8455,1.8819,1.8744,1.8694,1.8744,1.8682,1.8014,1.8345,1.8146,1.7722,1.7774,1.7707,1.744,1.7186,1.6854,1.6548,1.6051,1.5644,1.496,1.4284,1.3514,1.2904,1.215,1.125,1.0686,1.0126,0.9444,0.8626,0.807,0.7396,0.6524,0.5792,0.5386,0.4924,0.4625,0.4432,0.4294,0.4181,0.379,1.2278,1.2298,1.2271,1.2271,1.2298,1.2298,1.2071,1.1784,1.151,1.1209,1.0967,1.0789,1.0839,1.0713,1.1045,1.0933,1.0965,1.1766,1.1939,1.2181,1.2492,1.2336,1.1321,1.1722,1.1956,1.205,1.2679,1.2921,1.304,1.3339,1.357,1.3866,1.4048,1.3849,1.3672,1.3525,1.3281,1.2974,1.2915,1.2915,1.2915,1.2915,1.2915,1.2915,1.2915,1.2915,1.2915,1.2915,1.2915,1.2915,1.2915,1.2915,1.2915,1.2915,1.2915,1.2915,1.2915,1.2915,1.3002,1.3443,1.3862,1.414,1.5017,1.5632,1.584,1.614,1.6393,1.647,1.6513,1.6545,1.6717,1.7087,1.7526,1.7978,1.8166,1.8494,1.8857,1.9334,1.9459,1.8995,1.887,1.8317,1.7883,1.7743,1.7975,1.7534,1.7614,1.7589,1.7214,1.6718,1.648,1.6253,1.5686,1.5039,1.4227,1.3382,1.2531,1.1756,1.0956,1.0185,0.9636,0.915,0.8738,0.8164,0.7385,0.6686,0.595,0.5406,0.5058,0.4814,0.4543,0.4491,0.446,0.4377,0.4125,1.2091,1.2285,1.21,1.2098,1.2285,1.2298,1.2004,1.1509,1.1429,1.1156,1.0928,1.1293,1.1545,1.16,1.212,1.2489,1.239,1.2821,1.3044,1.3115,1.3296,1.3155,1.2583,1.2773,1.2765,1.2799,1.2682,1.3169,1.3694,1.3672,1.3867,1.4811,1.4348,1.4055,1.3948,1.3633,1.3301,1.2983,1.2915,1.2915,1.2915,1.2915,1.2915,1.2915,1.2915,1.2915,1.2915,1.2915,1.2915,1.2915,1.2915,1.2915,1.2915,1.2915,1.2915,1.2915,1.2915,1.2915,1.3027,1.3443,1.4003,1.4491,1.5118,1.5808,1.6293,1.6392,1.6513,1.6513,1.6513,1.6697,1.7074,1.7297,1.7652,1.8103,1.8494,1.8632,1.8505,1.8518,1.8606,1.8367,1.8052,1.7622,1.7359,1.7743,1.7753,1.7456,1.7401,1.7504,1.7008,1.6343,1.6027,1.5806,1.5207,1.4492,1.3538,1.2589,1.1573,1.0729,0.9928,0.9313,0.8764,0.8125,0.77,0.7192,0.6627,0.595,0.5406,0.503,0.468,0.4543,0.4491,0.4491,0.4491,0.4491,0.446,1.2164,1.2278,1.2131,1.2164,1.2285,1.2298,1.2051,1.1663,1.1442,1.1525,1.1696,1.2037,1.2288,1.2649,1.3062,1.319,1.3208,1.3808,1.4324,1.4604,1.475,1.4682,1.4462,1.4183,1.3995,1.3661,1.3886,1.4295,1.4492,1.443,1.4659,1.5264,1.4736,1.4319,1.4075,1.3695,1.3301,1.2993,1.2915,1.2915,1.2915,1.2915,1.2915,1.2915,1.2915,1.2915,1.2915,1.2915,1.2915,1.2915,1.2915,1.2915,1.2915,1.2915,1.2915,1.2915,1.2915,1.2915,1.3041,1.3457,1.405,1.4675,1.5253,1.5842,1.6337,1.6513,1.6513,1.6513,1.655,1.6726,1.731,1.7398,1.7674,1.8091,1.8431,1.8493,1.8317,1.8417,1.8329,1.7978,1.7624,1.7283,1.7238,1.7578,1.7422,1.7055,1.7312,1.734,1.679,1.6139,1.5599,1.5208,1.4641,1.3899,1.288,1.1805,1.0636,0.9773,0.8981,0.8534,0.8111,0.7358,0.6627,0.6276,0.5977,0.5546,0.503,0.4653,0.4491,0.4491,0.4491,0.4491,0.4491,0.4491,0.4491,1.2305,1.2305,1.2305,1.2305,1.2305,1.2305,1.2131,1.1879,1.1603,1.197,1.2732,1.2618,1.3052,1.3794,1.4033,1.38,1.3982,1.4496,1.5361,1.5913,1.611,1.5975,1.5813,1.5511,1.5112,1.4547,1.4865,1.5255,1.5313,1.54,1.5148,1.5264,1.498,1.4453,1.4016,1.3685,1.3301,1.2939,1.2915,1.2915,1.2915,1.2915,1.2915,1.2915,1.2915,1.2915,1.2915,1.2915,1.2915,1.2915,1.2915,1.2915,1.2915,1.2915,1.2915,1.2915,1.2915,1.2915,1.2954,1.3348,1.3897,1.4606,1.5118,1.5776,1.6293,1.6513,1.6513,1.6513,1.655,1.676,1.731,1.7398,1.7674,1.8053,1.8204,1.8166,1.8166,1.8481,1.8141,1.7652,1.7272,1.697,1.6991,1.7209,1.6951,1.6816,1.7063,1.7084,1.6527,1.5898,1.5287,1.4538,1.3912,1.274,1.1672,1.1174,0.9979,0.9026,0.8176,0.7717,0.7364,0.6681,0.6005,0.5733,0.5406,0.503,0.4787,0.4598,0.4491,0.4491,0.4491,0.4491,0.4491,0.4491,0.4491,1.2305,1.2305,1.2305,1.2305,1.2305,1.2305,1.2138,1.1933,1.1868,1.2235,1.2893,1.3187,1.4049,1.4951,1.5557,1.5761,1.5704,1.5892,1.6075,1.6553,1.6768,1.6728,1.6105,1.6113,1.5846,1.5409,1.5381,1.5391,1.542,1.541,1.5254,1.4961,1.4795,1.4394,1.3802,1.348,1.3262,1.2939,1.2915,1.2915,1.2915,1.2915,1.2915,1.2915,1.2915,1.2915,1.2915,1.2915,1.2915,1.2915,1.2915,1.2915,1.2929,1.2929,1.2954,1.2915,1.2915,1.2915,1.2954,1.3002,1.3658,1.4387,1.4858,1.5444,1.6173,1.6513,1.6513,1.6513,1.655,1.6748,1.7322,1.731,1.7637,1.799,1.8053,1.7928,1.7639,1.7601,1.7677,1.7322,1.6992,1.6784,1.6871,1.6972,1.6909,1.6837,1.6951,1.6833,1.6355,1.5634,1.488,1.4029,1.3134,1.1738,1.0338,1.0074,0.9418,0.8448,0.761,0.6929,0.6492,0.595,0.5487,0.5269,0.503,0.4732,0.4543,0.4481,0.446,0.4412,0.446,0.4481,0.4464,0.4423,0.4487,1.2305,1.2305,1.2305,1.2305,1.2305,1.2305,1.2174,1.1997,1.2424,1.31,1.3857,1.4512,1.5405,1.6233,1.6372,1.6445,1.6348,1.6465,1.6406,1.6533,1.6768,1.6582,1.584,1.5976,1.5771,1.5469,1.541,1.542,1.542,1.542,1.5166,1.4824,1.459,1.4121,1.3584,1.3271,1.313,1.2925,1.2915,1.2915,1.2915,1.2915,1.2915,1.2915,1.2915,1.2915,1.2915,1.2915,1.2915,1.2978,1.32,1.3162,1.3089,1.3128,1.319,1.2978,1.2915,1.2915,1.2915,1.2954,1.3478,1.4502,1.4732,1.5287,1.6107,1.6513,1.6513,1.6513,1.6513,1.66,1.6886,1.6948,1.7074,1.7227,1.7363,1.725,1.7049,1.6974,1.6986,1.6999,1.6794,1.6662,1.6718,1.6795,1.6845,1.6888,1.6888,1.657,1.6151,1.5354,1.4491,1.3195,1.2205,1.0965,0.9651,0.9157,0.8698,0.778,0.7042,0.6362,0.5846,0.5355,0.5081,0.4866,0.4625,0.4464,0.4426,0.4406,0.4382,0.4355,0.4324,0.4324,0.4368,0.4389,0.4464,1.2305,1.2305,1.2305,1.2409,1.2549,1.2592,1.2637,1.2721,1.3371,1.4223,1.5086,1.5755,1.6453,1.7054,1.6804,1.6436,1.6232,1.6492,1.6406,1.6406,1.6582,1.6278,1.5762,1.5527,1.5547,1.5459,1.542,1.542,1.5381,1.5283,1.5078,1.4727,1.428,1.3851,1.3506,1.3135,1.2974,1.2915,1.2915,1.2915,1.2915,1.2915,1.2915,1.2915,1.2915,1.2915,1.2915,1.2915,1.2915,1.3027,1.3224,1.3338,1.3079,1.3358,1.3382,1.3002,1.2915,1.2954,1.3089,1.3128,1.3695,1.4858,1.4903,1.5522,1.6141,1.6513,1.6513,1.6513,1.6513,1.6513,1.6588,1.6538,1.655,1.6575,1.66,1.6538,1.6588,1.66,1.6626,1.66,1.6513,1.6543,1.6616,1.6616,1.6701,1.6539,1.6527,1.6222,1.5754,1.4949,1.3946,1.2425,1.119,1.0143,0.9131,0.8402,0.778,0.6945,0.633,0.5764,0.5328,0.4893,0.4718,0.458,0.4501,0.4368,0.4362,0.4331,0.4257,0.4223,0.419,0.4207,0.4274,0.4375,0.4477,1.2305,1.2305,1.2305,1.2769,1.3455,1.3528,1.4047,1.4699,1.4852,1.552,1.6216,1.6134,1.6585,1.7005,1.6564,1.6387,1.6445,1.6359,1.6328,1.6475,1.656,1.6387,1.5996,1.6026,1.5664,1.5469,1.542,1.542,1.5361,1.5107,1.4921,1.4696,1.4141,1.3555,1.3496,1.3164,1.2925,1.2915,1.2915,1.2915,1.2915,1.2915,1.2915,1.2915,1.2915,1.2915,1.2915,1.2915,1.2915,1.2929,1.3002,1.2992,1.2929,1.292,1.2992,1.2929,1.2954,1.3152,1.3529,1.3684,1.4133,1.5118,1.541,1.5854,1.6293,1.6513,1.6513,1.6513,1.6513,1.6513,1.6513,1.6513,1.6513,1.6513,1.6513,1.6513,1.6513,1.6513,1.6513,1.6513,1.6513,1.6513,1.6543,1.6522,1.65,1.6315,1.6107,1.5798,1.5163,1.4204,1.3311,1.1812,1.0518,0.9444,0.8606,0.7877,0.7117,0.6249,0.5706,0.5246,0.4937,0.4652,0.4476,0.4368,0.4284,0.4227,0.4173,0.4142,0.4126,0.4119,0.408,0.4156,0.4223,0.4341,0.4481,1.2305,1.2342,1.2886,1.331,1.3738,1.4279,1.4772,1.5234,1.5799,1.621,1.6653,1.7014,1.7097,1.695,1.6553,1.6396,1.6338,1.6163,1.6173,1.6299,1.6309,1.6113,1.5762,1.5693,1.5537,1.5488,1.542,1.542,1.5332,1.5234,1.5059,1.4784,1.4394,1.3965,1.3594,1.3355,1.312,1.2983,1.2915,1.2915,1.2915,1.2915,1.2915,1.2915,1.2915,1.2915,1.2915,1.2915,1.2915,1.2978,1.3176,1.342,1.3515,1.3729,1.3954,1.3931,1.3954,1.392,1.3839,1.4143,1.4778,1.532,1.5654,1.5876,1.6349,1.6513,1.6513,1.6513,1.6513,1.6513,1.6513,1.6513,1.6513,1.6513,1.6513,1.6513,1.6513,1.6513,1.6513,1.6513,1.6513,1.6513,1.6479,1.6402,1.6414,1.6358,1.592,1.5365,1.4333,1.2994,1.2107,1.1182,0.9979,0.889,0.8117,0.7369,0.6686,0.5896,0.5222,0.4835,0.4652,0.4429,0.4341,0.4223,0.4159,0.4095,0.4014,0.3995,0.3968,0.3988,0.3991,0.4075,0.4169,0.4355,0.425,1.2305,1.2415,1.3317,1.3818,1.4171,1.5119,1.5728,1.6018,1.6645,1.6957,1.7039,1.7389,1.7152,1.6629,1.6387,1.6113,1.5938,1.5919,1.5919,1.5928,1.5899,1.5713,1.5547,1.5439,1.5439,1.542,1.542,1.542,1.542,1.5361,1.5215,1.4922,1.4424,1.416,1.376,1.3389,1.313,1.2935,1.2915,1.2915,1.2915,1.2915,1.2915,1.2915,1.2915,1.2915,1.2915,1.2915,1.2915,1.2992,1.3443,1.3708,1.3779,1.4201,1.4502,1.4594,1.4652,1.4687,1.4595,1.4778,1.5208,1.5588,1.5842,1.6073,1.6392,1.6513,1.6513,1.6513,1.6513,1.6513,1.6513,1.6513,1.6513,1.6513,1.6513,1.6513,1.6513,1.6513,1.6513,1.6513,1.6513,1.6513,1.6457,1.6303,1.6281,1.6337,1.5854,1.5039,1.3658,1.2107,1.1299,1.0542,0.9684,0.8659,0.7851,0.7095,0.6335,0.5601,0.4924,0.4567,0.4498,0.4412,0.4317,0.4216,0.4078,0.3933,0.386,0.3843,0.3819,0.3873,0.3951,0.4014,0.4126,0.4324,0.4128,1.2305,1.2372,1.331,1.4207,1.5128,1.6105,1.7001,1.7545,1.7759,1.7808,1.7596,1.7194,1.667,1.6182,1.5869,1.5654,1.5488,1.5459,1.5508,1.5508,1.5459,1.5478,1.542,1.542,1.542,1.542,1.542,1.542,1.542,1.541,1.5381,1.5264,1.4453,1.4036,1.3675,1.332,1.3062,1.2915,1.2915,1.2915,1.2915,1.2915,1.2915,1.2915,1.2915,1.2915,1.2915,1.2915,1.2905,1.2929,1.3481,1.3909,1.4027,1.4537,1.4835,1.5085,1.5343,1.541,1.5432,1.5466,1.582,1.6216,1.6402,1.6324,1.6479,1.6513,1.6513,1.6513,1.6513,1.6513,1.6513,1.6513,1.6513,1.6513,1.6513,1.6513,1.6513,1.6513,1.6513,1.6513,1.6513,1.6513,1.6315,1.616,1.6073,1.6129,1.5208,1.4377,1.297,1.1532,1.0805,1.0064,0.9387,0.8553,0.7771,0.7015,0.6285,0.555,0.4814,0.4598,0.4484,0.4412,0.429,0.4189,0.4041,0.387,0.3734,0.3809,0.3853,0.3843,0.391,0.4051,0.4189,0.4328,0.4017,1.2305,1.2378,1.331,1.4279,1.534,1.6828,1.7647,1.7974,1.8008,1.7852,1.7588,1.697,1.6484,1.6124,1.5948,1.5644,1.542,1.542,1.542,1.542,1.542,1.542,1.542,1.542,1.542,1.542,1.542,1.542,1.542,1.542,1.5205,1.4893,1.4404,1.4072,1.3711,1.3232,1.2993,1.2915,1.2915,1.2915,1.2915,1.2915,1.2915,1.2915,1.2915,1.2915,1.2915,1.2915,1.2915,1.3089,1.3529,1.3956,1.4388,1.4937,1.5377,1.5656,1.5986,1.603,1.6073,1.6107,1.6293,1.6392,1.65,1.6513,1.6513,1.6513,1.6513,1.6513,1.6513,1.6513,1.6513,1.6513,1.6513,1.6513,1.6513,1.6513,1.6513,1.6513,1.6513,1.6513,1.6513,1.6513,1.6259,1.5996,1.5908,1.5798,1.4744,1.3606,1.2239,1.1116,1.0415,0.9729,0.9047,0.8282,0.7503,0.6826,0.6177,0.5496,0.4759,0.4598,0.4477,0.4318,0.422,0.4122,0.4055,0.394,0.3876,0.389,0.3893,0.3907,0.4004,0.4183,0.4297,0.4338,0.3949,1.2305,1.2415,1.331,1.4279,1.534,1.6897,1.7759,1.7974,1.8008,1.7676,1.7178,1.6804,1.6396,1.6006,1.586,1.5713,1.5469,1.542,1.542,1.542,1.542,1.542,1.542,1.542,1.542,1.542,1.542,1.542,1.542,1.542,1.5078,1.4746,1.4551,1.4102,1.3603,1.3115,1.2915,1.2915,1.2915,1.2915,1.2915,1.2915,1.2915,1.2915,1.2915,1.2915,1.3002,1.3089,1.3248,1.3491,1.3944,1.4537,1.5005,1.5511,1.6051,1.6337,1.6479,1.6423,1.6303,1.6423,1.6392,1.6216,1.6436,1.6457,1.6513,1.6513,1.6513,1.6513,1.6513,1.6513,1.6513,1.6513,1.6513,1.6513,1.6513,1.6513,1.6513,1.6513,1.6513,1.6513,1.6479,1.6414,1.5766,1.5387,1.4949,1.4778,1.4077,1.2966,1.1722,1.0745,1.009,0.9432,0.8758,0.7984,0.7182,0.6475,0.5846,0.5546,0.4921,0.4598,0.4426,0.4308,0.424,0.418,0.4119,0.4055,0.4028,0.4014,0.3981,0.3947,0.4092,0.4237,0.4217,0.423,0.401,1.2305,1.2409,1.3273,1.4243,1.5199,1.621,1.7139,1.7799,1.7867,1.7471,1.6746,1.6599,1.6201,1.5615,1.5527,1.5478,1.5449,1.542,1.542,1.542,1.542,1.542,1.542,1.542,1.542,1.542,1.541,1.54,1.5361,1.54,1.4961,1.4377,1.4143,1.3906,1.3486,1.3086,1.2915,1.2915,1.2915,1.2915,1.2915,1.2915,1.2915,1.2915,1.2915,1.2915,1.2978,1.3406,1.3552,1.3732,1.471,1.5253,1.5477,1.603,1.6402,1.6479,1.6457,1.6173,1.571,1.6151,1.6073,1.5864,1.6095,1.6371,1.6479,1.6513,1.6513,1.6513,1.6513,1.6513,1.6513,1.6513,1.6513,1.6513,1.6513,1.6513,1.6513,1.6513,1.6513,1.6436,1.6392,1.6228,1.541,1.4698,1.4052,1.3629,1.3192,1.2263,1.1091,1.044,0.984,0.9178,0.8527,0.7797,0.702,0.6113,0.5515,0.5296,0.5027,0.4653,0.4491,0.4419,0.4351,0.4254,0.4227,0.4226,0.4159,0.4122,0.4105,0.4099,0.4136,0.422,0.4164,0.4071,0.3912,1.2305,1.2342,1.2666,1.3346,1.4378,1.593,1.6819,1.7045,1.7072,1.6846,1.6309,1.6006,1.5722,1.5459,1.542,1.542,1.543,1.542,1.542,1.542,1.542,1.542,1.541,1.5391,1.5391,1.541,1.5391,1.5186,1.499,1.5215,1.4855,1.4289,1.3851,1.3486,1.3174,1.292,1.2915,1.2915,1.2915,1.2915,1.2915,1.2915,1.2915,1.2915,1.2915,1.2915,1.2954,1.3515,1.3849,1.4027,1.505,1.561,1.5742,1.6216,1.6479,1.6371,1.6207,1.541,1.4881,1.4915,1.5421,1.5577,1.5798,1.6151,1.6414,1.6513,1.6513,1.6513,1.6513,1.6513,1.6513,1.6513,1.6513,1.6513,1.6513,1.6513,1.6513,1.6513,1.6479,1.6337,1.6259,1.5444,1.463,1.3833,1.3181,1.2638,1.2224,1.1523,1.044,1.0115,0.9666,0.8968,0.8295,0.7616,0.6885,0.6091,0.541,0.5085,0.4869,0.457,0.4491,0.4491,0.4467,0.4372,0.4375,0.4379,0.4304,0.4227,0.425,0.4267,0.4196,0.4156,0.411,0.4018,0.3842,1.2305,1.2305,1.2305,1.2622,1.3491,1.5296,1.6428,1.6977,1.7129,1.6924,1.6555,1.6094,1.5868,1.579,1.5537,1.5557,1.5596,1.5459,1.542,1.542,1.542,1.542,1.5391,1.5245,1.5146,1.5166,1.5029,1.4824,1.4862,1.5068,1.4738,1.4163,1.3695,1.334,1.3027,1.2915,1.3003,1.3042,1.3071,1.2915,1.2915,1.2915,1.2915,1.2915,1.2915,1.2915,1.3138,1.3563,1.412,1.4457,1.5096,1.5842,1.6051,1.6228,1.648,1.6281,1.5566,1.5005,1.4811,1.4226,1.4869,1.5543,1.5588,1.5886,1.6337,1.6513,1.6513,1.6513,1.6513,1.6513,1.6513,1.6513,1.6513,1.6513,1.6513,1.6513,1.6513,1.6513,1.6337,1.6194,1.5798,1.4881,1.3922,1.3014,1.2288,1.1756,1.1241,1.0542,0.9891,0.9666,0.938,0.8758,0.8189,0.7589,0.6907,0.6172,0.5519,0.4952,0.468,0.4491,0.4491,0.4491,0.4491,0.4487,0.446,0.4433,0.4375,0.4348,0.4247,0.4156,0.4083,0.4045,0.4065,0.392,0.3754,1.2305,1.2305,1.2305,1.2342,1.2732,1.4657,1.6367,1.7867,1.7915,1.7666,1.7298,1.6768,1.6531,1.6434,1.583,1.5684,1.584,1.5576,1.5449,1.542,1.542,1.542,1.5273,1.5049,1.4941,1.4707,1.4541,1.4504,1.4717,1.4873,1.4619,1.4143,1.3782,1.3418,1.3145,1.2983,1.3081,1.313,1.3052,1.2925,1.2915,1.2915,1.2915,1.2915,1.2915,1.2968,1.331,1.3931,1.4502,1.5062,1.5788,1.625,1.6479,1.6513,1.6443,1.5986,1.5081,1.4936,1.473,1.405,1.448,1.5186,1.5454,1.5898,1.6293,1.6513,1.6513,1.6513,1.6513,1.6513,1.6513,1.6513,1.6513,1.6513,1.6513,1.6513,1.6513,1.6392,1.6151,1.5886,1.5499,1.4721,1.3663,1.2706,1.1697,1.1132,1.0644,1.002,0.9465,0.9237,0.8949,0.8573,0.8023,0.7589,0.688,0.595,0.541,0.4787,0.4653,0.4491,0.4491,0.4491,0.4491,0.4487,0.4477,0.4443,0.4345,0.423,0.4139,0.4041,0.3955,0.3927,0.3941,0.3792,0.3655,1.2305,1.2305,1.2305,1.2666,1.352,1.5367,1.6732,1.7512,1.7559,1.7324,1.6914,1.6755,1.6755,1.6629,1.6133,1.6046,1.5889,1.5674,1.5478,1.542,1.542,1.542,1.5254,1.4971,1.4824,1.46,1.4358,1.4104,1.4355,1.4561,1.4541,1.4133,1.389,1.3588,1.3291,1.3018,1.3062,1.3062,1.2974,1.2935,1.2915,1.2915,1.2915,1.2915,1.2978,1.3104,1.3624,1.4294,1.4858,1.5444,1.6086,1.65,1.6513,1.6829,1.689,1.5762,1.4898,1.4261,1.3741,1.3382,1.3789,1.4824,1.5085,1.5599,1.612,1.6513,1.6513,1.6513,1.6513,1.6513,1.6513,1.6513,1.6513,1.6513,1.6513,1.6513,1.6513,1.6436,1.6173,1.5499,1.5141,1.4249,1.3218,1.2233,1.1283,1.0661,1.009,0.9562,0.9185,0.8982,0.8752,0.8427,0.8017,0.761,0.6443,0.5464,0.5058,0.468,0.457,0.4519,0.4491,0.4491,0.4491,0.4477,0.4457,0.4362,0.425,0.4208,0.4257,0.399,0.388,0.3832,0.3788,0.3698,0.3622,1.2305,1.2305,1.2305,1.3055,1.4414,1.593,1.6989,1.7546,1.7637,1.7461,1.7236,1.7038,1.7038,1.7126,1.666,1.6328,1.6299,1.5918,1.5635,1.542,1.542,1.5273,1.5098,1.4775,1.4414,1.4219,1.3965,1.3652,1.3955,1.4221,1.427,1.387,1.386,1.3597,1.3271,1.2988,1.2935,1.2935,1.2915,1.2915,1.2915,1.2915,1.2915,1.2954,1.3041,1.3443,1.3839,1.4514,1.5208,1.5632,1.6194,1.65,1.6414,1.6553,1.6251,1.5152,1.4451,1.4264,1.4157,1.3647,1.4224,1.488,1.5152,1.5611,1.6086,1.6513,1.6513,1.6513,1.6513,1.6513,1.6513,1.6513,1.6513,1.6513,1.6513,1.6513,1.6513,1.6513,1.5954,1.5208,1.4445,1.3586,1.2638,1.1699,1.1116,1.0939,1.044,0.971,0.9309,0.9035,0.8831,0.8566,0.8103,0.7637,0.6416,0.5492,0.53,0.5034,0.4625,0.457,0.4519,0.4515,0.4515,0.4491,0.4429,0.4337,0.4225,0.4404,0.4439,0.4175,0.4062,0.4195,0.4081,0.3767,0.3692,1.2305,1.2342,1.2475,1.3702,1.5305,1.6358,1.7232,1.7974,1.7969,1.7988,1.7881,1.7588,1.7607,1.7627,1.6989,1.6638,1.6436,1.6074,1.5644,1.542,1.542,1.5283,1.4951,1.4406,1.4268,1.3672,1.334,1.3437,1.3588,1.3899,1.4016,1.351,1.3529,1.3379,1.3027,1.2964,1.2915,1.2915,1.2915,1.2915,1.2915,1.2915,1.2915,1.2968,1.331,1.3742,1.4073,1.4732,1.5565,1.5776,1.6095,1.6479,1.63,1.5707,1.5125,1.4686,1.4074,1.4049,1.4129,1.3779,1.4537,1.5265,1.5876,1.592,1.6163,1.6479,1.6513,1.6513,1.6513,1.6513,1.6513,1.6513,1.6513,1.6513,1.6513,1.6513,1.6513,1.6228,1.5545,1.4789,1.3944,1.3176,1.2837,1.199,1.1491,1.1358,1.0686,0.984,0.9484,0.9159,0.8771,0.8566,0.8129,0.7637,0.6988,0.6199,0.5873,0.5492,0.4952,0.4598,0.4519,0.4515,0.457,0.4549,0.4516,0.433,0.4238,0.4312,0.4352,0.4393,0.4383,0.4635,0.4447,0.3995,0.3714,1.2305,1.2445,1.3882,1.5234,1.6324,1.7251,1.7759,1.8008,1.8008,1.7974,1.7988,1.791,1.7871,1.7803,1.7116,1.6736,1.6512,1.6055,1.5586,1.5439,1.542,1.5312,1.5166,1.4717,1.4336,1.3948,1.3627,1.333,1.3461,1.3753,1.388,1.3535,1.3457,1.3232,1.2935,1.2915,1.2915,1.2915,1.2915,1.2915,1.2915,1.2915,1.2929,1.2954,1.3176,1.3481,1.3897,1.4514,1.5163,1.5588,1.6173,1.6404,1.6399,1.523,1.472,1.4493,1.3921,1.3854,1.3779,1.3789,1.4294,1.4812,1.5265,1.5744,1.6086,1.6371,1.6513,1.6513,1.6513,1.6513,1.6513,1.6513,1.6513,1.6513,1.6513,1.6513,1.6491,1.5822,1.513,1.4363,1.3539,1.3104,1.2813,1.2452,1.1981,1.1291,1.044,0.9769,0.9588,0.9256,0.8633,0.8348,0.8049,0.7584,0.7128,0.6718,0.6281,0.5737,0.514,0.4814,0.4598,0.4924,0.5214,0.4827,0.4631,0.4536,0.4332,0.3917,0.4002,0.4357,0.455,0.4745,0.4554,0.4119,0.3832,1.2556,1.3127,1.5013,1.6114,1.6706,1.7604,1.8008,1.794,1.7579,1.7613,1.7974,1.7998,1.791,1.7764,1.7207,1.668,1.6455,1.5967,1.5635,1.5478,1.5391,1.5254,1.5098,1.4912,1.4316,1.3916,1.3467,1.3213,1.332,1.3369,1.3379,1.3271,1.3248,1.316,1.2915,1.2915,1.2915,1.2915,1.2915,1.2915,1.2915,1.2915,1.2915,1.2905,1.319,1.3457,1.3933,1.4514,1.5005,1.5231,1.5488,1.5487,1.5275,1.4609,1.4185,1.4043,1.3805,1.365,1.3635,1.3776,1.4165,1.488,1.5152,1.5798,1.625,1.6513,1.6513,1.6513,1.6513,1.6513,1.6513,1.6513,1.6513,1.6513,1.6513,1.6513,1.6163,1.5589,1.5085,1.4606,1.3789,1.3017,1.2832,1.2798,1.2378,1.2113,1.1116,1.0269,0.9987,0.9335,0.8712,0.8295,0.8103,0.7803,0.7456,0.7015,0.6551,0.595,0.5437,0.555,0.5637,0.5796,0.5873,0.5542,0.5235,0.5018,0.4709,0.4216,0.4227,0.4648,0.4756,0.4819,0.4541,0.4275,0.4046,1.2915,1.4099,1.5825,1.6671,1.6888,1.7638,1.8008,1.7852,1.697,1.7014,1.7653,1.7682,1.7552,1.749,1.7256,1.6721,1.6242,1.5869,1.5635,1.5488,1.542,1.5293,1.5117,1.4873,1.4394,1.3799,1.3242,1.3037,1.3003,1.3062,1.3071,1.2935,1.2915,1.2915,1.2915,1.2915,1.2915,1.2915,1.2915,1.2915,1.2915,1.2915,1.2915,1.3113,1.3372,1.3661,1.405,1.448,1.4915,1.4846,1.4663,1.462,1.4517,1.4127,1.3924,1.3756,1.4007,1.4157,1.441,1.4479,1.5175,1.5788,1.571,1.5886,1.6337,1.6513,1.6513,1.6513,1.6513,1.6513,1.6513,1.6513,1.6513,1.6513,1.6513,1.6479,1.5976,1.5466,1.5085,1.4732,1.3978,1.3138,1.2905,1.2881,1.2774,1.2569,1.2024,1.13,1.0517,0.9562,0.8745,0.8593,0.8507,0.8182,0.7863,0.7423,0.6956,0.6605,0.6253,0.6448,0.6615,0.6637,0.6578,0.6352,0.6051,0.5601,0.5159,0.4688,0.4807,0.48,0.4609,0.4546,0.473,0.449,0.4275,1.3346,1.5021,1.614,1.7001,1.7681,1.793,1.8008,1.7804,1.6717,1.6455,1.6695,1.6646,1.6712,1.7344,1.6982,1.6389,1.5697,1.5512,1.5488,1.542,1.5206,1.5226,1.5167,1.4876,1.465,1.4004,1.3262,1.2974,1.2915,1.2915,1.2915,1.2915,1.2915,1.2915,1.2915,1.2915,1.2915,1.2915,1.2915,1.2915,1.2915,1.2915,1.2915,1.2978,1.2992,1.3055,1.3286,1.3779,1.398,1.4003,1.4048,1.4052,1.4105,1.4034,1.3912,1.4082,1.4296,1.4547,1.4812,1.4949,1.5577,1.5842,1.582,1.5964,1.6315,1.6513,1.6513,1.6513,1.6513,1.6513,1.6513,1.6513,1.6513,1.6513,1.6513,1.6445,1.6173,1.5644,1.5163,1.4641,1.4014,1.3358,1.2915,1.2905,1.2881,1.2495,1.1692,1.1023,1.0686,0.9788,0.8831,0.8778,0.8778,0.8778,0.856,0.7963,0.7524,0.7203,0.6988,0.702,0.7106,0.7295,0.7203,0.7117,0.6574,0.6032,0.5569,0.5068,0.4737,0.4617,0.4282,0.4225,0.4531,0.4632,0.4361]},{"header":{"parameterUnit":"m.s-1","parameterCategory":1,"la1":31.0,"la2":29.5877,"lo1":-88.7671,"lo2":-86.6584,"dy":0.0162,"dx":0.0185,"nx":115,"ny":88,"refTime":"2024-02-14T18:00:00:Z","depth":0,"parameterNumber":3,"parameterNumberName":"V-component_of_WINDS"},"data":[0.0,0.0,0.0,0.0,0.0,0.0,0.0,0.0,0.0,0.0,0.0,0.0,0.0,0.0,0.0,0.0,0.0,0.0,0.0,0.0,0.0,0.0,0.0,0.0,0.0,0.0,0.0,0.0,0.0,0.0,0.0,0.0,0.0,0.0,0.0,0.0,0.0,0.0,0.0,0.0,0.0,0.0,0.0,0.0,0.0,0.0,0.0,0.0,0.0,0.0,0.0,0.0,0.0,0.0,0.0,0.0,0.0,0.0,0.0,0.0,0.0,0.0,0.0,0.0,0.0,0.0,0.0,0.0,0.0,0.0,0.0,0.0,0.0,0.0,0.0,0.0,0.0,0.0,0.0,0.0,0.0,0.0,0.0,0.0,0.0,0.0,0.0,0.0,0.0,0.0,0.0,0.0,0.0,0.0,0.0,0.0,0.0,0.0,0.0,0.0,0.0,0.0,0.0,0.0,0.0,0.0,0.0,0.0,0.0,0.0,0.0,0.0,0.0,0.0,0.0,0.0,0.0,0.0,0.0,0.0,0.0,0.0,0.0,0.0,0.0,0.0,0.0,0.0,0.0,0.0,0.0,0.0,0.0,0.0,0.0,0.0,0.0,0.0,0.0,0.0,0.0,0.0,0.0,0.0,0.0,0.0,0.0,0.0,0.0,0.0,0.0,0.0,0.0,0.0,0.0,0.0,0.0,0.0,0.0,0.0,0.0,0.0,0.0,0.0,0.0,0.0,0.0,0.0,0.0,0.0,0.0,0.0,0.0,0.0,0.0,0.0,0.0,0.0,0.0,0.0,0.0,0.0,0.0,0.0,0.0,0.0,0.0,0.0,0.0,0.0,0.0,0.0,0.0,0.0,0.0,0.0,0.0,0.0,0.0,0.0,0.0,0.0,0.0,0.0,0.0,0.0,0.0,0.0,0.0,0.0,0.0,0.0,0.0,0.0,0.0,0.0,0.0,0.0,0.0,0.0,0.0,0.0,0.0,0.0,0.0,0.0,0.0,0.0,0.0,0.0,0.0,0.0,0.0,0.0,0.0,0.0,0.0,0.0,0.0,0.0,0.0,0.0,0.0,0.0,0.0,0.0,0.0,0.0,0.0,0.0,0.0,0.0,0.0,0.0,0.0,0.0,0.0,0.0,0.0,0.0,0.0,0.0,0.0,0.0,0.0,0.0,0.0,0.0,0.0,0.0,0.0,0.0,0.0,0.0,0.0,0.0,0.0,0.0,0.0,0.0,0.0,0.0,0.0,0.0,0.0,0.0,0.0,0.0,0.0,0.0,0.0,0.0,0.0,0.0,0.0,0.0,0.0,0.0,0.0,0.0,0.0,0.0,0.0,0.0,0.0,0.0,0.0,0.0,0.0,0.0,0.0,0.0,0.0,0.0,0.0,0.0,0.0,0.0,0.0,0.0,0.0,0.0,0.0,0.0,0.0,0.0,0.0,0.0,0.0,0.0,0.0,0.0,0.0,0.0,0.0,0.0,0.0,0.0,0.0,0.0,0.0,0.0,0.0,0.0,0.0,0.0,0.0,0.0,0.0,0.0,0.0,0.0,0.0,0.0,0.0,0.0,0.0,0.0,0.0,0.0,0.0,0.0,0.0,0.0,0.0,0.0,0.0,0.0,0.0,0.0,0.0,0.0,0.0,0.0,0.0,0.0,0.0,0.0,0.0,0.0,0.0,0.0,0.0,0.0,0.0,0.0,0.0,0.0,0.0,0.0,0.0,0.0,0.0,0.0,0.0,0.0,0.0,0.0,0.0,0.0,0.0,0.0,0.0,0.0,0.0,0.0,0.0,0.0,0.0,0.0,0.0,0.0,0.0,0.0,0.0,0.0,0.0,0.0,0.0,0.0,0.0,0.0,0.0,0.0,0.0,0.0,0.0,0.0,0.0,0.0,0.0,0.0,0.0,0.0,0.0,0.0,0.0,0.0,0.0,0.0,0.0,0.0,0.0,0.0,0.0,0.0,0.0,0.0,0.0,0.0,0.0,0.0,0.0,0.0,0.0,0.0,0.0,0.0,0.0,0.0,0.0,0.0,0.0,0.0,0.0,0.0,0.0,0.0,0.0,0.0,0.0,0.0,0.0,0.0,0.0,0.0,0.0,0.0,0.0,0.0,0.0,0.0,0.0,0.0,0.0,0.0,0.0,0.0,0.0,0.0,0.0,0.0,0.0,0.0,0.0,0.0,0.0,0.0,0.0,0.0,0.0,0.0,0.0,0.0,0.0,0.0,0.0,0.0,0.0,0.0,0.0,0.0,0.0,0.0,0.0,0.0,0.0,0.0,0.0,0.0,0.0,0.0,0.0,0.0,0.0,0.0,0.0,0.0,0.0,0.0,0.0,0.0,0.0,0.0,0.0,0.0,0.0,0.0,0.0,0.0,0.0,0.0,0.0,0.0,0.0,0.0,0.0,0.0,0.0,0.0,0.0,0.0,0.0,0.0,0.0,0.0,0.0,0.0,0.0,0.0,0.0,0.0,0.0,0.0,0.0,0.0,0.0,0.0,0.0,0.0,0.0,0.0,0.0,0.0,0.0,0.0,0.0,0.0,0.0,0.0,0.0,0.0,0.0,0.0,0.0,0.0,0.0,0.0,0.0,0.0,0.0,0.0,0.0,0.0,0.0,0.0,0.0,0.0,0.0,0.0,0.0,0.0,0.0,0.0,0.0,0.0,0.0,0.0,0.0,0.0,0.0,0.0,0.0,0.0,0.0,0.0,0.0,0.0,0.0,0.0,0.0,0.0,0.0,0.0,0.0,0.0,0.0,0.0,0.0,0.0,0.0,0.0,0.0,0.0,0.0,0.0,0.0,0.0,0.0,0.0,0.0,0.0,0.0,0.0,0.0,0.0,0.0,0.0,0.0,0.0,0.0,0.0,0.0,0.0,0.0,0.0,0.0,0.0,0.0,0.0,0.0,0.0,0.0,0.0,0.0,0.0,0.0,0.0,0.0,0.0,0.0,0.0,0.0,0.0,0.0,0.0,0.0,0.0,0.0,0.0,0.0,0.0,0.0,0.0,0.0,0.0,0.0,0.0,0.0,0.0,0.0,0.0,0.0,0.0,0.0,0.0,0.0,0.0,0.0,0.0,0.0,0.0,0.0,0.0,0.0,0.0,0.0,0.0,0.0,0.0,0.0,0.0,0.0,0.0,0.0,0.0,0.0,0.0,0.0,0.0,0.0,0.0,0.0,0.0,0.0,0.0,0.0,0.0,0.0,0.0,0.0,0.0,0.0,0.0,0.0,0.0,0.0,0.0,0.0,0.0,0.0,0.0,0.0,0.0,0.0,0.0,0.0,0.0,0.0,0.0,0.0,0.0,0.0,0.0,0.0,0.0,0.0,0.0,0.0,0.0,0.0,0.0,0.0,0.0,0.0,0.0,0.0,0.0,0.0,0.0,0.0,0.0,0.0,0.0,0.0,0.0,0.0,0.0,0.0,0.0,0.0,0.0,0.0,0.0,0.0,0.0,0.0,0.0,0.0,0.0,0.0,0.0,0.0,0.0,0.0,0.0,0.0,0.0,0.0,0.0,0.0,0.0,0.0,0.0,0.0,0.0,0.0,0.0,0.0,0.0,0.0,0.0,0.0,0.0,0.0,0.0,0.0,0.0,0.0,0.0,0.0,0.0,0.0,0.0,0.0,0.0,0.0,0.0,0.0,0.0,0.0,0.0,0.0,0.0,0.0,0.0,0.0,0.0,0.0,0.0,0.0,0.0,0.0,0.0,0.0,0.0,0.0,0.0,0.0,0.0,0.0,0.0,0.0,0.0,0.0,0.0,0.0,0.0,0.0,0.0,0.0,0.0,0.0,0.0,0.0,0.0,0.0,0.0,0.0,0.0,0.0,0.0,0.0,0.0,0.0,0.0,0.0,0.0,0.0,0.0,0.0,0.0,0.0,0.0,0.0,0.0,0.0,0.0,0.0,0.0,0.0,0.0,0.0,0.0,0.0,0.0,0.0,0.0,0.0,0.0,0.0,0.0,0.0,0.0,0.0,0.0,0.0,0.0,0.0,0.0,0.0,0.0,0.0,0.0,0.0,0.0,0.0,0.0,0.0,0.0,0.0,0.0,0.0,0.0,0.0,0.0,0.0,0.0,0.0,0.0,0.0,0.0,0.0,0.0,0.0,0.0,0.0,0.0,0.0,0.0,0.0,0.0,0.0,0.0,0.0,0.0,0.0,0.0,0.0,0.0,0.0,0.0,0.0,0.0,0.0,0.0,0.0,0.0,0.0,0.0,0.0,0.0,0.0,0.0,0.0,0.0,0.8551,0.0,0.0,0.0,0.0,0.0,0.0,0.0,0.0,0.0,0.0,0.0,0.0,0.0,0.0,0.0,0.0,0.0,0.0,0.0,0.0,0.0,0.0,0.0,0.0,0.0,0.0,0.0,0.0,0.0,0.0,0.0,0.0,0.0,0.0,0.0,0.0,0.0,0.0,0.0,0.0,0.0,0.0,0.0,0.0,0.0,0.0,0.0,0.0,0.0,0.0,0.0,0.0,0.0,0.0,0.0,0.0,0.0,0.0,0.0,0.0,0.0,0.0,0.0,0.0,0.0,0.0,0.0,0.0,0.0,0.0,0.0,0.0,0.0,0.0,0.0,0.0,0.0,0.0,0.0,0.0,0.0,0.0,0.0,0.0,0.0,0.0,0.0,0.0,0.0,0.0,0.0,0.0,0.0,0.0,0.0,0.0,0.0,0.0,0.0,0.0,0.0,0.0,0.0,0.0,0.0,0.0,0.0,0.0,0.0,0.0,0.9868,1.0248,1.0167,0.9764,0.9034,0.0,0.0,0.0,0.0,0.0,0.0,0.0,0.0,0.0,0.0,0.0,0.0,0.0,0.0,0.0,0.0,0.0,0.0,0.0,0.0,0.0,0.0,0.0,0.0,0.0,0.0,0.0,0.0,0.0,0.0,0.0,0.0,0.0,0.0,0.0,0.0,0.0,0.0,0.0,0.0,0.0,0.0,0.0,0.0,0.0,0.0,0.0,0.0,0.0,0.0,0.0,0.0,0.0,0.0,0.0,0.0,0.0,0.0,0.0,0.0,0.0,0.0,0.0,0.0,0.0,0.0,0.0,0.0,0.0,0.0,0.0,0.0,0.0,0.0,0.0,0.0,0.0,0.0,0.0,0.0,0.0,0.0,0.0,0.0,0.0,0.0,0.0,0.0,0.0,0.0,0.0,0.0,0.0,0.0,0.0,0.0,0.0,0.0,0.0,0.0,0.0,0.0,0.0,0.0,0.0,0.0,0.0,0.0,0.0,0.0,0.0,0.0,1.0529,1.0517,0.9978,0.0,0.0,0.0,0.0,0.0,0.0,0.0,0.0,0.0,0.0,0.0,0.0,0.0,0.0,0.0,0.0,0.0,0.0,0.0,0.0,0.0,0.0,0.0,0.0,0.0,0.0,0.0,0.0,0.0,0.0,0.0,0.0,0.0,0.0,0.0,0.0,0.0,0.0,0.0,0.0,0.0,0.0,0.0,0.0,0.0,0.0,0.0,0.0,0.0,0.0,0.0,0.0,0.0,0.0,0.0,0.0,0.0,0.0,0.0,0.0,0.0,0.0,0.0,0.0,0.0,0.0,0.0,0.0,0.0,0.0,0.0,0.0,0.0,0.0,0.0,0.0,0.0,0.0,0.0,0.0,0.0,0.0,0.0,0.0,0.0,0.0,0.0,0.0,0.0,0.0,0.0,0.0,0.0,0.0,0.0,0.0,0.0,0.0,0.0,0.0,0.0,0.0,0.0,0.0,0.0,0.0,0.0,0.0,0.0,0.0,0.9436,1.0933,1.075,0.0,1.151,0.0,0.0,0.0,0.0,0.0,0.0,0.0,0.0,0.0,0.0,0.0,0.0,0.0,0.0,0.0,0.0,0.0,0.0,0.0,0.0,0.0,0.0,0.0,0.0,0.0,0.0,0.0,0.0,0.0,0.0,0.0,0.0,0.0,0.0,0.0,0.0,0.0,0.0,0.0,0.0,0.0,0.0,0.0,0.0,0.0,0.0,0.0,0.0,0.0,0.0,0.0,0.0,0.0,0.0,0.0,0.0,0.0,0.0,0.0,0.0,0.0,0.0,0.0,0.0,0.0,0.0,0.0,0.0,0.0,0.0,0.0,0.0,0.0,0.0,0.0,0.0,0.0,0.0,0.0,0.0,0.0,0.0,0.0,0.0,0.0,0.0,0.0,0.0,0.0,0.0,0.0,0.0,0.0,0.0,0.0,0.0,0.0,0.0,0.0,0.0,0.0,0.0,0.0,0.0,0.0,0.0,0.0,0.0,0.0,0.0,0.9776,1.1248,1.0595,1.0311,0.0,0.0,0.0,0.0,0.0,0.0,0.0,0.0,0.0,0.0,0.0,0.0,0.0,0.0,0.0,0.0,0.0,0.0,0.0,0.0,0.0,0.0,0.0,0.0,0.0,0.0,0.0,0.0,0.0,0.0,0.0,0.0,0.0,0.0,0.0,0.0,0.0,0.0,0.0,0.0,0.0,0.0,0.0,0.0,0.0,0.0,0.0,0.0,0.0,0.0,0.0,0.0,0.0,0.0,0.0,0.0,0.0,0.0,0.0,0.0,0.0,0.0,0.0,0.0,0.0,0.0,0.0,0.0,0.0,0.0,0.0,0.0,0.0,0.0,0.0,0.0,0.0,0.0,0.0,0.0,0.0,0.0,0.0,0.0,0.0,0.0,0.0,0.0,0.0,0.0,0.0,0.0,0.0,0.0,0.0,0.0,0.0,0.0,0.0,0.0,0.0,0.0,0.0,0.0,0.0,0.0,0.0,0.0,0.0,0.0,1.0322,1.0471,1.1827,1.0539,0.9999,1.0559,0.0,0.0,0.0,0.0,0.0,0.0,0.0,0.0,0.0,0.0,0.0,0.0,0.0,0.0,0.0,0.0,0.0,0.0,0.0,0.0,0.0,0.0,0.0,0.0,0.0,0.0,0.0,0.0,0.0,0.0,0.0,0.0,0.0,0.0,0.0,0.0,0.0,0.0,0.0,0.0,0.0,0.0,0.0,0.0,0.0,0.0,0.0,0.0,0.0,0.0,0.0,0.0,0.0,0.0,0.0,0.0,0.0,0.0,0.0,0.0,0.0,0.0,0.0,0.0,0.0,0.0,0.0,0.0,0.0,0.0,0.0,0.0,0.0,0.0,0.0,0.0,0.0,0.0,0.0,0.0,0.0,0.0,0.0,0.0,0.0,0.0,0.0,0.0,0.0,0.0,0.0,0.0,0.0,0.0,0.0,0.0,0.0,0.0,0.0,0.0,0.0,0.0,0.0,0.0,0.0,0.0,0.0,0.0,1.2811,1.1442,1.1552,1.3293,1.0678,1.0501,0.0,0.0,0.0,0.0,0.0,0.0,0.0,0.0,0.0,0.0,0.0,0.0,0.0,0.0,0.0,0.0,0.0,0.0,0.0,0.0,0.0,0.0,0.0,0.0,0.0,0.0,0.0,0.0,0.0,0.0,0.0,0.0,0.0,0.0,0.0,0.0,0.0,0.0,0.0,0.0,0.0,0.0,0.0,0.0,0.0,0.0,0.0,0.0,0.0,0.0,0.0,0.0,0.0,0.0,0.0,0.0,0.0,0.0,0.0,0.0,0.0,0.0,0.0,0.0,0.0,0.0,0.0,0.0,0.0,0.0,0.0,0.0,0.0,0.0,0.0,0.0,0.0,0.0,0.0,0.0,0.0,0.0,0.0,0.0,0.0,0.0,0.0,0.0,0.0,0.0,0.0,0.0,0.0,0.0,0.0,0.0,0.0,0.0,0.0,0.0,0.0,0.0,0.0,0.0,0.0,0.0,0.0,0.0,0.0,1.1708,1.1553,1.1564,1.1708,1.0931,1.0961,0.0,0.0,0.0,0.0,0.0,0.0,0.0,0.0,0.0,0.0,0.0,0.0,0.0,0.0,0.0,0.0,0.0,0.0,0.0,0.0,0.0,0.0,0.0,0.0,0.0,0.0,0.0,0.0,0.0,0.0,0.0,0.0,0.0,0.0,0.0,0.0,0.0,0.0,0.0,0.0,0.0,0.0,0.0,0.0,0.0,0.0,0.0,0.0,0.0,0.0,0.0,0.0,0.0,0.0,0.0,0.0,0.0,0.0,0.0,0.0,0.0,0.0,0.0,0.0,0.0,0.0,0.0,0.0,0.0,0.0,0.0,0.0,0.0,0.0,0.0,0.0,0.0,0.0,0.0,0.0,0.0,0.0,0.0,0.0,0.0,0.0,0.0,0.0,0.0,0.0,0.0,0.0,0.0,0.0,0.0,0.0,0.0,0.0,0.0,0.0,0.0,0.0,0.0,0.0,0.0,0.0,0.0,0.0,0.0,1.145,0.0,1.2307,1.1912,1.1626,1.1553,0.0,0.0,0.0,0.0,0.0,0.0,0.0,0.0,0.0,0.0,0.0,0.0,0.0,0.0,0.0,0.0,0.0,0.0,0.0,0.0,0.0,0.0,0.0,0.0,0.0,0.0,0.0,0.0,0.0,0.0,0.0,0.0,0.0,0.0,0.0,0.0,0.0,0.0,0.0,0.0,0.0,0.0,0.0,0.0,0.0,0.0,0.0,0.0,0.0,0.0,0.0,0.0,0.0,0.0,0.0,0.0,0.0,0.0,0.0,0.0,0.0,0.0,0.0,0.0,0.0,0.0,0.0,0.0,0.0,0.0,0.0,0.0,0.0,0.0,0.0,0.0,0.0,0.0,0.0,0.0,0.0,0.0,0.0,0.0,0.0,0.0,0.0,0.0,0.0,0.0,0.0,0.0,0.0,0.0,0.0,0.0,0.0,0.0,0.0,0.0,0.0,0.0,0.0,0.0,0.0,0.0,0.0,0.0,1.0847,1.2329,1.3189,1.3743,1.43,1.2751,1.2345,0.0,0.0,0.0,0.0,0.0,0.0,0.0,0.0,0.0,0.0,0.0,0.0,0.0,0.0,0.0,0.0,0.0,0.0,0.0,0.0,0.0,0.0,0.0,0.0,0.0,0.0,0.0,0.0,0.0,0.0,0.0,0.0,0.0,0.0,0.0,0.0,0.0,0.0,0.0,0.0,0.0,0.0,0.0,0.0,0.0,0.0,0.0,0.0,0.0,0.0,0.0,0.0,0.0,0.0,0.0,0.0,0.0,0.0,0.0,0.0,0.0,0.0,0.0,0.0,0.0,0.0,0.0,0.0,0.0,0.0,0.0,0.0,0.0,0.0,0.0,0.0,0.0,0.0,0.0,0.0,0.0,0.0,0.0,0.0,0.0,0.0,0.0,0.0,0.0,0.0,0.0,0.0,0.0,0.0,0.0,0.0,0.0,0.0,0.0,0.0,0.0,0.0,0.0,0.0,0.0,0.0,0.0,0.0,0.0,1.2527,1.2716,1.3127,1.371,1.3138,1.314,0.0,0.0,0.0,0.0,0.0,0.0,0.0,0.0,0.0,0.0,0.0,0.0,0.0,0.0,0.0,0.0,0.0,0.0,0.0,0.0,0.0,0.0,0.0,0.0,0.0,0.0,0.0,0.0,0.0,0.0,0.0,0.0,0.0,0.0,0.0,0.0,0.0,0.0,0.0,0.0,0.0,0.0,0.0,0.0,0.0,0.0,0.0,0.0,0.0,0.0,0.0,0.0,0.0,0.0,0.0,0.0,0.0,0.0,0.0,0.0,0.0,0.0,0.0,0.0,0.0,0.0,0.0,0.0,0.0,0.0,0.0,0.0,0.0,0.0,0.0,0.0,0.0,0.0,0.0,0.0,0.0,0.0,0.0,0.0,0.0,0.0,0.0,0.0,0.0,0.0,0.0,0.0,0.0,0.0,0.0,0.0,0.0,0.0,0.0,0.0,0.0,0.0,0.0,0.0,0.0,0.0,0.0,0.0,0.0,1.3526,1.3061,1.3183,1.3995,1.3842,1.3897,1.4206,0.0,0.0,0.0,0.0,0.0,0.0,0.0,0.0,0.0,0.0,0.0,0.0,0.0,0.0,0.0,0.0,0.0,0.0,0.0,0.0,0.0,0.0,0.0,0.0,0.0,0.0,0.0,0.0,0.0,0.0,0.0,0.0,0.0,0.0,0.0,0.0,0.0,0.0,0.0,0.0,0.0,0.0,0.0,0.0,0.0,0.0,0.0,0.0,0.0,0.0,0.0,0.0,0.0,0.0,0.0,0.0,0.0,0.0,0.0,0.0,0.0,0.0,0.0,0.0,0.0,0.0,0.0,0.0,0.0,0.0,0.0,0.0,0.0,0.0,0.0,0.0,0.0,0.0,0.0,0.0,0.0,0.0,0.0,0.0,0.0,0.0,0.0,0.0,0.0,0.0,0.0,0.0,0.0,0.0,0.0,0.0,0.0,0.0,0.0,0.0,0.0,0.0,0.0,0.0,0.0,0.0,0.0,0.0,1.5155,1.4115,1.3958,1.4843,1.4763,1.4628,0.0,0.0,0.0,0.0,0.0,0.0,0.0,0.0,0.0,0.0,0.0,0.0,0.0,0.0,0.0,0.0,0.0,0.0,0.0,0.0,0.0,0.0,0.0,0.0,0.0,0.0,0.0,0.0,0.0,0.0,0.0,0.0,0.0,0.0,0.0,0.0,0.0,0.0,0.0,0.0,0.0,0.0,0.0,0.0,0.0,0.0,0.0,0.0,0.0,0.0,0.0,0.0,0.0,0.0,0.0,0.0,0.0,0.0,0.0,0.0,0.0,0.0,0.0,0.0,0.0,0.0,0.0,0.0,0.0,0.0,0.0,0.0,0.0,0.0,0.0,0.0,0.0,0.0,0.0,0.0,0.0,0.0,0.0,0.0,0.0,0.0,0.0,0.0,0.0,0.0,0.0,0.0,0.0,0.0,0.0,0.0,0.0,0.0,0.0,0.0,0.0,0.0,0.0,0.0,0.0,0.0,0.0,0.0,0.0,1.5763,1.4797,1.446,1.4869,1.4854,1.4824,0.0,0.0,0.0,0.0,0.0,0.0,0.0,0.0,0.0,0.0,0.0,0.0,0.0,0.0,0.0,0.0,0.0,0.0,0.0,0.0,0.0,0.0,0.0,0.0,0.0,0.0,0.0,0.0,0.0,0.0,0.0,0.0,0.0,0.0,0.0,0.0,0.0,0.0,0.0,0.0,0.0,0.0,0.0,0.0,0.0,0.0,0.0,0.0,0.0,0.0,0.0,0.0,0.0,0.0,0.0,0.0,0.0,0.0,0.0,0.0,0.0,0.0,0.0,0.0,0.0,0.0,0.0,0.0,0.0,0.0,0.0,0.0,0.0,0.0,0.0,0.0,0.0,0.0,0.0,0.0,0.0,0.0,0.0,0.0,0.0,0.0,0.0,0.0,0.0,0.0,0.0,0.0,0.0,0.0,0.0,0.0,0.0,0.0,0.0,0.0,0.0,0.0,0.0,0.0,0.0,0.0,0.0,0.0,1.5322,1.6064,1.5388,1.4913,1.4743,1.4785,1.4865,0.0,0.0,0.0,0.0,0.0,0.0,0.0,0.0,0.0,0.0,0.0,0.0,0.0,0.0,0.0,0.0,0.0,0.0,0.0,0.0,0.0,0.0,0.0,0.0,0.0,0.0,0.0,0.0,0.0,0.0,0.0,0.0,0.0,0.0,0.0,0.0,0.0,0.0,0.0,0.0,0.0,0.0,0.0,0.0,0.0,0.0,0.0,0.0,0.0,0.0,0.0,0.0,0.0,0.0,0.0,0.0,0.0,0.0,0.0,0.0,0.0,0.0,0.0,0.0,0.0,0.0,0.0,0.0,0.0,0.0,0.0,0.0,0.0,0.0,0.0,0.0,0.0,0.0,0.0,0.0,0.0,0.0,0.0,0.0,0.0,0.0,0.0,0.0,0.0,0.0,0.0,0.0,0.0,0.0,0.0,0.0,0.0,0.0,0.0,0.0,0.0,0.0,0.0,0.0,0.0,0.0,0.0,0.0,1.5624,1.6328,1.6008,1.5447,1.4682,1.4706,1.481,0.0,0.0,0.0,0.0,0.0,0.0,0.0,0.0,0.0,0.0,0.0,0.0,0.0,0.0,0.0,0.0,0.0,0.0,0.0,0.0,0.0,0.0,0.0,0.0,0.0,0.0,0.0,0.0,0.0,0.0,0.0,0.0,0.0,0.0,0.0,0.0,0.0,0.0,0.0,0.0,0.0,0.0,0.0,0.0,0.0,0.0,0.0,0.0,0.0,0.0,0.0,0.0,0.0,0.0,0.0,0.0,0.0,0.0,0.0,0.0,0.0,0.0,0.0,0.0,0.0,0.0,0.0,0.0,0.0,0.0,0.0,0.0,0.0,0.0,0.0,0.0,0.0,0.0,0.0,0.0,0.0,0.0,0.0,0.0,0.0,0.0,0.0,0.0,0.0,0.0,0.0,0.0,0.0,0.0,0.0,0.0,0.0,0.0,0.0,0.0,0.0,0.0,0.0,0.0,0.0,0.0,0.0,0.0,1.7856,1.791,1.7076,1.6312,1.5618,1.5108,1.4877,0.0,0.0,0.0,0.0,0.0,0.0,0.0,0.0,0.0,0.0,0.0,0.0,0.0,0.0,0.0,0.0,0.0,0.0,0.0,0.0,0.0,0.0,0.0,0.0,0.0,0.0,0.0,0.0,0.0,0.0,0.0,0.0,0.0,0.0,0.0,0.0,0.0,0.0,0.0,0.0,0.0,0.0,0.0,0.0,0.0,0.0,0.0,0.0,1.5183,0.0,0.0,0.0,0.0,0.0,0.0,0.0,0.0,0.0,0.0,0.0,0.0,0.0,0.0,0.0,0.0,0.0,0.0,0.0,0.0,0.0,0.0,0.0,0.0,0.0,0.0,0.0,0.0,0.0,0.0,0.0,0.0,0.0,0.0,0.0,0.0,0.0,0.0,0.0,0.0,0.0,0.0,0.0,0.0,0.0,0.0,0.0,0.0,0.0,0.0,0.0,0.0,0.0,0.0,0.0,0.0,0.0,0.0,0.0,1.8704,1.8907,1.7598,1.6544,1.5826,1.5156,1.4851,0.0,0.0,0.0,0.0,0.0,0.0,0.0,0.0,0.0,0.0,0.0,0.0,0.0,0.0,0.0,0.0,0.0,0.0,0.0,0.0,0.0,0.0,0.0,0.0,0.0,0.0,0.0,0.0,0.0,0.0,0.0,0.0,0.0,0.0,0.0,0.0,0.0,0.0,0.0,0.0,0.0,0.0,0.0,0.0,0.0,0.0,0.0,0.0,0.0,0.0,0.0,0.0,0.0,0.0,0.0,0.0,0.0,0.0,0.0,0.0,0.0,0.0,0.0,0.0,0.0,0.0,0.0,0.0,0.0,0.0,0.0,0.0,0.0,0.0,0.0,0.0,0.0,0.0,0.0,0.0,0.0,0.0,0.0,0.0,0.0,0.0,0.0,0.0,0.0,0.0,0.0,0.0,0.0,0.0,0.0,0.0,0.0,0.0,0.0,0.0,0.0,0.0,0.0,0.0,0.0,0.0,0.0,1.9235,1.9007,1.9462,1.7805,1.6585,1.5882,1.4993,1.4673,1.495,0.0,0.0,0.0,0.0,0.0,0.0,0.0,0.0,0.0,0.0,0.0,0.0,0.0,0.0,0.0,0.0,0.0,0.0,0.0,0.0,0.0,0.0,0.0,0.0,0.0,0.0,0.0,0.0,0.0,0.0,0.0,0.0,0.0,0.0,0.0,0.0,0.0,0.0,1.2934,1.3351,0.0,0.0,0.0,0.0,0.0,0.0,0.0,0.0,1.6405,0.0,0.0,0.0,0.0,0.0,0.0,0.0,0.0,0.0,0.0,0.0,0.0,0.0,0.0,0.0,0.0,0.0,0.0,0.0,0.0,0.0,0.0,0.0,0.0,0.0,0.0,0.0,0.0,0.0,0.0,0.0,0.0,0.0,0.0,0.0,0.0,0.0,0.0,0.0,0.0,0.0,0.0,0.0,0.0,0.0,0.0,0.0,0.0,0.0,0.0,0.0,0.0,0.0,0.0,0.0,0.0,2.0962,1.9973,1.942,1.9331,1.7762,1.6835,1.6658,1.4798,1.4137,1.4897,0.0,0.0,0.0,0.0,0.0,0.0,0.0,0.0,0.0,0.0,0.0,0.0,0.0,0.0,0.0,0.0,0.0,0.0,0.0,0.0,0.0,0.0,0.0,0.0,0.0,0.0,0.0,0.0,0.0,0.0,0.0,0.0,0.0,0.0,0.0,0.0,0.0,0.0,0.0,1.5214,1.5062,0.0,0.0,0.0,0.0,0.0,0.0,0.0,0.0,1.7361,0.0,0.0,0.0,0.0,0.0,0.0,0.0,0.0,0.0,0.0,0.0,0.0,0.0,0.0,0.0,0.0,0.0,0.0,0.0,0.0,0.0,0.0,0.0,0.0,0.0,0.0,0.0,0.0,0.0,0.0,0.0,0.0,0.0,0.0,0.0,0.0,0.0,0.0,0.0,0.0,0.0,0.0,0.0,0.0,0.0,0.0,0.0,0.0,0.0,0.0,0.0,0.0,0.0,0.0,0.0,2.1533,2.0332,1.9907,2.0499,1.8181,1.6908,1.6872,1.5062,1.4527,0.0,0.0,0.0,0.0,0.0,0.0,0.0,0.0,0.0,0.0,0.0,0.0,0.0,0.0,0.0,0.0,0.0,0.0,0.0,0.0,0.0,0.0,0.0,0.0,0.0,0.0,0.0,0.0,0.0,0.0,0.0,0.0,0.0,0.0,0.0,0.0,0.0,0.0,0.0,0.0,1.6052,1.5648,1.4727,0.0,0.0,0.0,0.0,0.0,0.0,1.649,1.7374,0.0,0.0,0.0,0.0,0.0,0.0,0.0,0.0,0.0,0.0,0.0,0.0,0.0,0.0,0.0,0.0,0.0,0.0,0.0,0.0,0.0,0.0,0.0,0.0,0.0,0.0,0.0,0.0,0.0,0.0,0.0,0.0,0.0,0.0,0.0,0.0,0.0,0.0,0.0,0.0,0.0,0.0,0.0,0.0,0.0,0.0,0.0,0.0,0.0,0.0,0.0,0.0,0.0,0.0,0.0,2.1548,2.0269,2.0111,2.1105,1.8419,1.6908,1.6872,1.5368,1.5053,0.0,0.0,0.0,0.0,0.0,0.0,0.0,0.0,0.0,0.0,0.0,0.0,0.0,0.0,0.0,0.0,0.0,0.0,0.0,0.0,0.0,0.0,0.0,0.0,0.0,0.0,0.0,0.0,0.0,0.0,0.0,0.0,0.0,0.0,0.0,0.0,0.0,0.0,0.0,0.0,0.0,1.644,1.5258,1.6484,0.0,0.0,0.0,0.0,1.5957,1.6868,0.0,0.0,0.0,0.0,0.0,0.0,0.0,0.0,0.0,0.0,0.0,0.0,0.0,0.0,0.0,0.0,0.0,0.0,0.0,0.0,0.0,0.0,0.0,0.0,0.0,0.0,0.0,0.0,0.0,0.0,0.0,0.0,0.0,0.0,0.0,0.0,0.0,0.0,0.0,0.0,0.0,0.0,0.0,0.0,0.0,0.0,0.0,0.0,0.0,0.0,0.0,0.0,0.0,0.0,0.0,0.0,1.9872,1.9534,1.9438,1.9499,1.7832,1.6908,1.689,1.5449,1.5126,0.0,0.0,0.0,0.0,0.0,0.0,0.0,0.0,0.0,0.0,0.0,0.0,0.0,0.0,0.0,0.0,0.0,0.0,0.0,0.0,0.0,0.0,0.0,0.0,0.0,0.0,0.0,0.0,0.0,0.0,0.0,0.0,0.0,0.0,0.0,0.0,0.0,0.0,0.0,0.0,0.0,1.8278,1.5714,1.6894,1.7714,0.0,0.0,1.7449,1.6688,1.7975,0.0,0.0,0.0,0.0,0.0,0.0,0.0,0.0,0.0,0.0,0.0,0.0,0.0,0.0,0.0,0.0,0.0,0.0,0.0,0.0,0.0,0.0,0.0,0.0,0.0,0.0,0.0,0.0,0.0,0.0,0.0,0.0,0.0,0.0,0.0,0.0,0.0,0.0,0.0,0.0,0.0,0.0,0.0,0.0,0.0,0.0,0.0,0.0,0.0,0.0,0.0,0.0,0.0,0.0,0.0,1.9986,2.0241,1.9634,1.9517,1.9895,1.7954,1.6908,1.6908,1.5379,1.5269,0.0,0.0,0.0,0.0,0.0,0.0,0.0,0.0,0.0,0.0,0.0,0.0,0.0,0.0,0.0,0.0,0.0,0.0,0.0,0.0,0.0,0.0,0.0,0.0,0.0,0.0,0.0,0.0,0.0,0.0,0.0,0.0,0.0,0.0,0.0,0.0,0.0,0.0,0.0,0.0,0.0,0.0,1.6347,1.788,0.0,0.0,0.0,1.8302,1.7168,0.0,0.0,0.0,0.0,0.0,0.0,0.0,0.0,0.0,0.0,0.0,0.0,0.0,0.0,0.0,0.0,0.0,0.0,0.0,0.0,0.0,0.0,0.0,0.0,0.0,0.0,0.0,0.0,0.0,0.0,0.0,0.0,0.0,0.0,0.0,0.0,0.0,0.0,0.0,0.0,0.0,0.0,0.0,0.0,0.0,0.0,0.0,0.0,0.0,0.0,0.0,0.0,0.0,0.0,0.0,0.0,0.0,2.04,1.9632,1.9554,2.0107,1.8229,1.7092,1.689,1.5539,0.0,0.0,0.0,0.0,0.0,0.0,0.0,0.0,0.0,0.0,0.0,0.0,0.0,0.0,0.0,0.0,0.0,0.0,0.0,0.0,0.0,0.0,0.0,0.0,0.0,0.0,0.0,1.6652,0.0,0.0,0.0,0.0,0.0,0.0,0.0,0.0,0.0,0.0,0.0,0.0,0.0,0.0,1.834,1.7239,1.8724,1.9382,0.0,0.0,1.9034,1.7678,1.841,1.8568,0.0,0.0,0.0,0.0,0.0,0.0,0.0,0.0,0.0,0.0,0.0,0.0,0.0,0.0,0.0,0.0,0.0,0.0,0.0,0.0,0.0,0.0,0.0,0.0,0.0,0.0,0.0,0.0,0.0,0.0,0.0,0.0,0.0,0.0,0.0,0.0,0.0,0.0,0.0,0.0,0.0,0.0,0.0,0.0,0.0,0.0,0.0,0.0,0.0,0.0,0.0,0.0,0.0,0.0,0.0,1.9393,1.9153,1.9163,1.9337,1.8482,1.7649,1.6927,1.6071,1.6116,0.0,0.0,0.0,0.0,0.0,0.0,0.0,0.0,0.0,0.0,0.0,0.0,0.0,0.0,0.0,0.0,0.0,0.0,0.0,0.0,0.0,0.0,0.0,0.0,0.0,0.0,0.0,0.0,0.0,0.0,0.0,0.0,0.0,0.0,0.0,0.0,0.0,0.0,0.0,0.0,0.0,2.054,1.8391,1.9136,1.9856,0.0,0.0,1.9481,1.8415,1.944,1.9744,1.7886,0.0,0.0,0.0,0.0,0.0,0.0,0.0,0.0,0.0,0.0,0.0,0.0,0.0,0.0,0.0,0.0,0.0,0.0,0.0,0.0,0.0,0.0,0.0,0.0,0.0,0.0,0.0,0.0,0.0,0.0,0.0,0.0,0.0,0.0,0.0,0.0,0.0,0.0,0.0,0.0,0.0,0.0,0.0,0.0,0.0,0.0,0.0,0.0,0.0,0.0,0.0,0.0,0.0,1.9685,2.0023,1.9486,1.923,1.9271,1.8519,1.7961,1.7649,1.639,1.6115,0.0,0.0,0.0,0.0,0.0,0.0,0.0,0.0,0.0,0.0,0.0,0.0,0.0,0.0,0.0,0.0,0.0,0.0,0.0,0.0,0.0,0.0,0.0,0.0,0.0,0.0,0.0,0.0,1.7374,1.7051,1.6565,0.0,0.0,0.0,0.0,0.0,0.0,0.0,0.0,0.0,0.0,1.9825,1.8678,1.9687,0.0,0.0,1.9712,1.9941,1.9384,1.9621,1.9504,1.8389,1.9097,0.0,0.0,0.0,0.0,0.0,0.0,0.0,0.0,0.0,0.0,0.0,0.0,0.0,0.0,0.0,0.0,0.0,0.0,0.0,0.0,0.0,0.0,0.0,0.0,0.0,0.0,0.0,0.0,0.0,0.0,0.0,0.0,0.0,0.0,0.0,0.0,0.0,0.0,0.0,0.0,0.0,0.0,0.0,0.0,0.0,0.0,0.0,0.0,0.0,0.0,0.0,0.0,2.012,2.0886,1.9719,1.9281,1.963,1.8867,1.8346,1.8096,1.6995,1.6585,0.0,0.0,0.0,0.0,0.0,0.0,0.0,0.0,0.0,0.0,0.0,0.0,0.0,0.0,0.0,0.0,0.0,0.0,0.0,0.0,0.0,0.0,0.0,0.0,0.0,0.0,0.0,0.0,1.7782,1.7458,1.7589,0.0,0.0,0.0,0.0,0.0,0.0,0.0,0.0,0.0,0.0,1.9681,1.9099,1.9917,2.0276,1.9307,1.9817,2.0265,2.0109,2.0011,1.9804,1.9356,0.0,0.0,0.0,0.0,0.0,0.0,0.0,0.0,0.0,0.0,0.0,0.0,0.0,0.0,0.0,0.0,0.0,0.0,0.0,0.0,0.0,0.0,0.0,0.0,0.0,0.0,0.0,0.0,0.0,0.0,2.0605,0.0,0.0,0.0,0.0,0.0,0.0,0.0,0.0,0.0,0.0,0.0,0.0,0.0,0.0,0.0,0.0,0.0,0.0,0.0,0.0,0.0,0.0,2.057,2.1712,1.9732,1.9219,2.0366,1.9693,1.8893,1.817,1.806,1.7686,1.6945,0.0,0.0,0.0,0.0,0.0,0.0,0.0,0.0,0.0,0.0,0.0,0.0,0.0,0.0,0.0,0.0,0.0,0.0,0.0,0.0,0.0,0.0,0.0,0.0,0.0,0.0,1.8242,1.8078,1.8353,0.0,0.0,0.0,0.0,0.0,0.0,0.0,0.0,0.0,0.0,2.068,2.0651,1.9806,1.9711,1.9859,2.0164,2.0249,2.0348,2.0466,2.0752,2.0987,0.0,0.0,0.0,0.0,0.0,0.0,0.0,0.0,0.0,0.0,0.0,0.0,0.0,0.0,0.0,0.0,0.0,0.0,0.0,0.0,0.0,0.0,0.0,0.0,0.0,0.0,0.0,2.0438,2.0414,0.0,0.0,0.0,0.0,0.0,0.0,0.0,0.0,0.0,0.0,0.0,1.9446,1.9423,0.0,0.0,0.0,0.0,0.0,0.0,0.0,0.0,0.0,0.0,0.0,0.0,2.1179,2.1676,2.0346,1.9641,1.9696,1.9426,1.9168,1.8904,1.8372,1.7979,1.7704,0.0,0.0,0.0,0.0,0.0,0.0,0.0,0.0,0.0,0.0,0.0,0.0,0.0,0.0,0.0,0.0,0.0,0.0,0.0,0.0,0.0,0.0,0.0,0.0,0.0,1.9214,0.0,0.0,0.0,0.0,0.0,0.0,0.0,0.0,0.0,0.0,0.0,2.1524,2.1158,2.1034,2.0682,1.9833,1.9723,1.9747,0.0,0.0,0.0,0.0,0.0,0.0,0.0,0.0,0.0,0.0,0.0,0.0,0.0,0.0,2.8345,2.6364,2.6708,2.7106,2.6507,0.0,0.0,0.0,0.0,0.0,0.0,0.0,0.0,0.0,0.0,0.0,0.0,0.0,0.0,2.0543,0.0,2.0837,0.0,0.0,0.0,0.0,0.0,0.0,0.0,0.0,2.1571,2.11,2.0308,2.022,2.0098,0.0,2.0125,2.0399,0.0,0.0,0.0,0.0,0.0,0.0,0.0,0.0,2.1878,2.2373,2.0813,1.9957,1.9976,1.9526,1.9279,1.9279,1.8519,1.8243,1.85,1.8262,1.8218,0.0,0.0,0.0,0.0,0.0,0.0,0.0,0.0,0.0,0.0,0.0,0.0,0.0,0.0,0.0,0.0,0.0,0.0,0.0,0.0,0.0,0.0,0.0,1.9105,0.0,0.0,0.0,0.0,0.0,0.0,0.0,0.0,0.0,2.2145,2.203,2.1775,2.139,2.1133,2.0731,2.0015,0.0,0.0,0.0,0.0,0.0,0.0,0.0,2.2538,2.2776,2.432,2.5608,2.5768,2.7397,2.8786,2.9156,0.0,0.0,2.806,2.8143,2.8517,2.8547,2.8521,2.8547,2.8796,2.8603,2.8372,0.0,0.0,0.0,0.0,0.0,0.0,0.0,0.0,2.0538,2.0979,0.0,2.1714,0.0,0.0,0.0,0.0,0.0,2.3027,0.0,0.0,2.1629,2.1122,2.0399,2.0203,2.0066,2.0107,2.0542,2.1135,2.1787,2.0538,0.0,0.0,0.0,0.0,0.0,0.0,2.2642,2.3512,2.1113,2.0263,2.1157,1.9993,1.9315,1.9297,1.8555,1.8519,1.9224,1.8555,1.8526,1.9297,2.005,0.0,0.0,0.0,0.0,0.0,0.0,0.0,0.0,0.0,0.0,0.0,0.0,0.0,0.0,0.0,0.0,0.0,0.0,0.0,0.0,1.9056,0.0,0.0,0.0,0.0,0.0,0.0,0.0,0.0,0.0,0.0,2.165,2.2228,2.2296,2.123,0.0,0.0,0.0,0.0,2.0218,2.137,2.1276,2.134,2.212,2.3437,2.4364,2.4376,0.0,0.0,2.7495,2.7603,2.8051,2.8985,2.9748,3.0457,3.1666,3.0477,2.9908,3.124,3.0376,2.9646,3.019,2.9802,2.9261,2.4106,0.0,0.0,0.0,0.0,2.2821,2.2762,2.3059,2.239,2.2261,2.2473,2.2473,0.0,0.0,0.0,0.0,0.0,0.0,2.4005,2.3174,2.3002,2.2482,2.1643,2.1588,2.1525,2.144,2.1563,2.1708,2.1807,2.143,2.1924,2.3266,0.0,0.0,0.0,0.0,2.2859,2.2792,2.1846,2.1146,2.0741,2.0342,1.9877,1.9323,1.9077,1.9077,1.9279,1.9095,1.9326,2.0115,1.997,0.0,0.0,0.0,0.0,0.0,0.0,0.0,0.0,0.0,0.0,0.0,0.0,0.0,0.0,0.0,0.0,0.0,0.0,0.0,1.8523,1.8632,1.8853,0.0,0.0,0.0,0.0,0.0,0.0,0.0,0.0,0.0,2.2889,2.2586,2.2442,0.0,0.0,2.1596,2.1345,2.1469,2.1564,2.1385,2.1859,0.0,2.1847,2.3256,2.4412,2.4412,2.6267,2.8045,2.8917,2.9536,3.0026,3.0346,3.0989,3.182,3.2665,3.2095,3.1318,3.1213,3.1333,3.1522,3.1561,3.1243,3.0836,2.4843,2.4051,2.4448,2.4458,2.4129,2.3605,2.3489,2.3613,2.3039,2.299,2.3321,2.3317,2.3501,2.386,2.3844,0.0,0.0,0.0,2.4858,2.4287,2.4164,2.3788,2.3246,2.3161,2.3071,2.2981,2.2901,2.2836,2.273,2.2749,2.3245,2.4153,0.0,0.0,2.3674,2.3369,2.3057,2.2769,2.226,2.1768,2.1316,2.0764,2.0126,1.9334,1.9279,1.9444,1.9767,1.9767,2.0162,2.0978,2.0981,2.0851,0.0,0.0,0.0,0.0,0.0,0.0,0.0,0.0,0.0,0.0,0.0,2.0218,0.0,0.0,0.0,0.0,1.9651,1.9366,1.8961,1.9272,0.0,0.0,0.0,0.0,0.0,0.0,0.0,2.312,2.3495,2.3861,2.4201,2.3431,2.3005,2.3353,2.2766,2.2338,2.2538,0.0,2.2346,2.2549,2.2394,2.2266,2.2333,2.3399,2.4524,2.542,2.7141,2.8792,2.9842,3.0471,3.1044,3.1732,3.22,3.2729,3.3556,3.3208,3.2729,3.2475,3.2618,3.2786,3.2647,3.2218,3.1749,2.545,2.5399,2.5317,2.4889,2.4206,2.4206,2.374,2.3009,2.3009,2.3432,2.4168,2.4187,2.4601,2.5288,2.5298,0.0,2.5274,2.5253,2.513,2.4949,2.4936,2.4865,2.4746,2.4532,2.4478,2.4469,2.4303,2.4199,2.4181,2.4181,2.4199,2.4171,2.3474,2.3304,2.3667,2.3392,2.3236,2.3236,2.251,2.2253,2.2411,2.1178,2.0107,1.9315,1.937,1.9748,2.0456,2.0584,2.0988,2.1849,2.2538,2.2217,2.0841,0.0,0.0,0.0,0.0,0.0,0.0,0.0,0.0,0.0,0.0,0.0,0.0,0.0,0.0,0.0,2.0306,0.0,2.0027,2.0546,0.0,0.0,0.0,2.214,2.2453,2.2399,2.2736,2.3743,0.0,0.0,2.5374,2.4514,2.3868,2.405,2.3358,2.3079,2.3885,2.3141,2.2899,2.4107,2.2962,2.2222,2.3015,2.377,2.4949,2.6933,2.8281,2.9321,3.0293,3.0655,3.1395,3.2883,3.3164,3.328,3.4041,3.3894,3.3967,3.4392,3.3859,3.3333,3.321,3.2572,3.1842,2.5339,2.5327,2.5298,2.5192,2.5024,2.5019,2.4885,2.4712,2.4716,2.4827,2.5024,2.5005,2.5115,2.5298,2.5146,2.5057,2.5065,2.4821,2.4666,2.4612,2.4459,2.4365,2.433,2.4294,2.4284,2.4257,2.4228,2.4199,2.4199,2.4199,2.4199,2.4171,2.4006,2.3862,2.3685,2.3628,2.3577,2.3577,2.3386,2.2847,2.1963,2.1009,2.0107,1.9315,1.9895,2.0309,2.0503,2.1143,2.1877,2.2639,2.2318,2.2189,2.2401,2.2024,0.0,0.0,0.0,0.0,0.0,0.0,0.0,0.0,0.0,2.1679,2.0029,0.0,2.1588,0.0,2.0482,2.0288,2.0022,2.0535,0.0,0.0,2.1877,2.2378,2.235,2.2534,2.2907,2.3451,2.3926,2.4418,2.4929,2.4743,2.4774,2.5369,2.4476,2.4048,2.4761,2.5035,2.4755,2.4083,2.3809,2.3508,2.288,2.4097,2.5846,2.781,2.8621,2.9285,3.0157,3.0825,3.1568,3.2594,3.3277,3.365,3.3865,3.3842,3.3842,3.3949,3.3515,3.303,3.2833,3.2008,3.1186,2.5654,2.5308,2.5308,2.5308,2.5308,2.5308,2.5308,2.5308,2.5308,2.5308,2.5308,2.5308,2.5253,2.5157,2.5046,2.4968,2.4904,2.4712,2.4575,2.4495,2.4384,2.4284,2.4199,2.4199,2.4199,2.4218,2.4566,2.4548,2.4245,2.4566,2.4548,2.4208,2.4036,2.3947,2.3899,2.3785,2.3721,2.3721,2.3837,2.324,2.184,2.1327,2.0684,1.9895,1.9905,2.0493,2.1566,2.173,2.2345,2.3437,2.3107,2.2905,2.2988,2.2593,2.2336,0.0,0.0,0.0,0.0,0.0,0.0,0.0,0.0,0.0,0.0,0.0,2.1795,2.1061,2.1142,2.1182,2.1042,2.1428,2.1742,2.1872,2.2316,2.2558,2.248,2.2517,2.2921,2.3778,2.4254,2.4786,2.553,2.5456,2.5553,2.6195,2.531,2.4885,2.5619,2.5625,2.5113,2.4646,2.3967,2.341,2.2803,2.4356,2.6076,2.7422,2.8427,2.9372,3.0522,3.1091,3.1751,3.2889,3.3513,3.3807,3.3807,3.3807,3.3715,3.3277,3.2828,3.2412,3.2121,3.1472,3.0828,2.6173,2.5462,2.536,2.5308,2.5308,2.5308,2.5308,2.5308,2.5308,2.5298,2.5264,2.5248,2.5135,2.498,2.4974,2.4917,2.4804,2.4917,2.4858,2.4694,2.4781,2.4716,2.4541,2.4521,2.452,2.452,2.5209,2.5191,2.4557,2.5209,2.5154,2.4373,2.4052,2.4016,2.417,2.3907,2.3756,2.3764,2.4036,2.3456,2.1996,2.1959,2.1547,2.0694,1.9987,2.0684,2.2859,2.2326,2.2639,2.4089,2.4199,2.3878,2.3189,2.3153,2.3153,0.0,2.2483,0.0,0.0,0.0,0.0,0.0,0.0,0.0,0.0,2.1575,2.1601,2.1352,2.1921,2.2313,2.2313,2.2537,2.2682,2.2643,2.2682,2.2682,2.2647,2.2521,2.2941,2.4262,2.4481,2.5039,2.6082,2.6034,2.5961,2.6246,2.5677,2.5475,2.6233,2.5363,2.4693,2.5374,2.3849,2.3122,2.3704,2.484,2.6003,2.6881,2.8036,2.9508,3.1072,3.1397,3.1898,3.3348,3.377,3.3807,3.3807,3.3807,3.3532,3.2834,3.2236,3.1771,3.1387,3.099,3.0526,2.6505,2.6294,2.5577,2.5308,2.5308,2.5308,2.5308,2.5308,2.5308,2.5208,2.5059,2.4949,2.4869,2.4835,2.4835,2.4814,2.4834,2.5484,2.5752,2.5744,2.6202,2.6432,2.6396,2.6229,2.6153,2.6153,2.629,2.63,2.6153,2.63,2.597,2.5191,2.5104,2.4774,2.4226,0.0,0.0,0.0,2.4161,2.3731,2.2804,2.2786,2.2391,2.1592,2.1408,0.0,2.2914,2.2841,2.3208,2.4135,2.4199,0.0,0.0,0.0,0.0,0.0,0.0,0.0,0.0,0.0,0.0,0.0,2.3256,2.2726,2.1954,2.2055,2.2143,2.2107,2.2212,2.2313,2.2296,2.2537,2.2612,2.2429,2.256,2.2625,2.2415,2.2861,2.3392,2.3785,2.4364,2.4747,2.4875,2.4756,2.4934,2.5433,2.5316,2.5465,2.6016,2.5048,2.4409,2.4589,2.4191,2.4306,2.5052,2.5652,2.6416,2.7462,2.8098,2.9263,3.0937,3.1421,3.1953,3.3495,3.3807,3.3807,3.3807,3.3807,3.3532,3.2748,3.215,3.1596,3.0902,3.0309,2.9926,2.7601,0.0,2.6313,2.5942,0.0,2.5923,2.5638,2.5157,2.5157,2.5053,2.4916,2.5248,2.5333,2.5268,2.5654,2.5782,2.5697,2.6115,2.6302,2.632,2.6608,2.6763,2.6753,2.6638,2.6602,2.662,2.6998,2.6998,2.6649,2.6998,2.6594,2.5411,2.5241,2.4829,2.4226,2.4199,2.4199,2.4199,2.4199,2.3804,2.3043,2.3006,2.2804,2.2409,2.2014,0.0,0.0,0.0,0.0,0.0,0.0,0.0,0.0,2.4199,0.0,2.4199,2.4199,2.4199,2.4199,2.4199,2.4064,2.3714,2.3242,2.2716,2.2185,2.2235,2.2313,2.2313,2.2313,2.2313,2.231,2.2426,2.245,2.2321,2.2426,2.2436,2.2389,2.2953,2.3466,2.372,2.4345,2.4801,2.478,2.4792,2.4875,2.5128,2.4969,2.4881,2.4996,2.4767,2.4439,2.4164,2.4111,2.4475,2.5406,2.5937,2.6514,2.7444,2.8378,2.9506,3.0909,3.1613,3.2412,3.3532,3.3807,3.3807,3.3807,3.3807,3.3421,3.2327,3.1903,3.1408,3.044,2.9988,2.9877,2.8723,2.8049,2.7178,2.6755,2.6621,2.6774,2.6184,2.519,0.0,0.0,0.0,2.5842,2.6017,2.5922,2.6591,2.6811,2.6667,2.6847,2.6913,2.6931,2.7038,2.709,2.7109,2.7027,2.7024,2.706,2.7714,2.7677,2.706,2.7548,2.7064,2.5684,2.519,2.4717,2.4235,2.4199,2.4199,2.4199,2.4199,2.3868,2.3244,2.3208,2.3208,2.3208,2.2437,2.2694,2.4116,2.3428,2.3354,2.4135,2.4199,2.4199,2.4199,2.4199,2.4199,2.4199,2.4199,2.417,2.4113,2.4103,2.3937,2.3555,2.2977,2.2537,2.2324,2.2313,2.2313,2.2313,2.2313,2.2313,2.2313,2.2313,2.2313,2.2313,2.2313,2.2296,2.2364,2.3088,2.3649,2.377,2.426,2.4767,2.4994,2.4784,2.4877,2.4957,2.4677,2.436,2.4236,2.4457,2.4416,2.398,2.4147,2.4597,2.5511,2.6068,2.6554,2.7245,2.847,2.9699,3.0753,3.1788,3.2778,3.3642,3.3807,3.3807,3.3807,3.3807,3.322,3.1727,3.1572,3.1323,3.0085,2.9829,2.9981,2.9044,2.8876,2.8068,2.7274,2.6659,2.7395,2.7012,2.5872,2.5689,2.5982,2.659,2.6549,2.6493,2.6491,2.6793,2.6879,2.6925,2.7735,2.8151,2.8179,2.8725,2.8998,2.9006,2.878,2.8656,2.8675,2.8785,2.8767,2.862,2.8081,2.7328,2.6447,2.5701,2.4949,2.4263,2.4199,2.4199,2.4199,2.4199,2.4153,2.4043,2.4025,2.4025,2.4006,2.3254,2.3254,2.4135,2.3428,2.3373,2.4153,2.4199,2.4199,2.4199,2.4199,2.4199,2.4199,2.4199,2.4084,2.3795,2.3756,2.3511,2.288,2.2541,2.2335,2.231,2.2313,2.2313,2.2313,2.2313,2.2313,2.2313,2.2313,2.2313,2.2313,2.2313,2.2313,2.233,2.3494,2.4119,2.372,2.4035,2.438,2.4378,2.3723,2.357,2.4255,2.4358,2.4363,2.4298,2.4281,2.4179,2.4277,2.504,2.5841,2.6337,2.6572,2.6802,2.7222,2.8041,2.9198,3.0553,3.1602,3.2536,3.3574,3.3793,3.3807,3.3807,3.3807,3.3109,3.1801,3.1495,3.102,2.9973,2.9813,2.9896,2.9817,2.9336,2.8529,2.8031,2.779,2.7612,2.7672,2.7772,2.7128,2.6547,2.6186,2.6885,2.7255,2.7302,2.7796,2.8041,2.807,2.8528,2.8738,2.8765,2.904,2.9189,2.9178,2.9055,2.8987,2.8987,2.8987,2.8987,2.895,2.8631,2.7842,2.6594,2.5346,2.4557,2.4226,2.4199,2.4199,2.4199,2.4199,2.4199,2.4199,2.4199,2.4199,2.4199,2.3841,2.3823,2.4199,2.3859,2.3823,2.4199,2.4199,2.4199,2.4199,2.4199,2.4199,2.4208,2.4034,2.3847,2.3714,2.3357,2.3033,2.2721,2.245,2.2313,2.2313,2.2313,2.2313,2.2313,2.2313,2.2313,2.2313,2.2313,2.2313,2.2313,2.2313,2.2313,2.2465,2.3611,2.4159,2.3599,2.4442,2.4743,2.3595,2.3249,2.3087,2.3498,2.3726,2.3954,2.397,2.3912,2.4064,2.4643,2.522,2.5857,2.6556,2.6708,2.6791,2.6954,2.8161,2.9217,3.0236,3.1398,3.2705,3.3342,3.362,3.3793,3.377,3.3421,3.2834,3.232,3.1219,3.0627,3.0339,3.0213,3.0161,3.0544,2.9903,2.9036,2.8823,2.889,2.7673,2.7902,2.8964,2.8149,2.71,2.6237,2.7467,2.8081,2.8136,2.873,2.8987,2.8987,2.8987,2.8987,2.8987,2.8987,2.9097,2.9244,2.9115,2.9097,2.9207,2.9097,2.8987,2.8987,2.8822,2.8014,2.6583,2.5162,2.4465,2.4475,2.4281,2.4199,2.419,2.4141,2.4094,2.4084,2.4034,2.3976,2.3986,2.4054,2.4075,2.4094,2.4161,2.4199,2.4199,2.4199,2.4199,2.419,2.4141,2.4094,2.4064,2.3767,2.3555,2.3455,2.294,2.2612,2.2612,2.2426,2.2313,2.2313,2.2313,2.2313,2.2313,2.2313,2.2313,2.2313,2.2313,2.2313,2.2313,2.2313,2.2313,2.2431,2.3444,2.3926,2.3284,2.4362,2.4604,2.3383,2.3091,2.3147,2.3092,2.3332,2.358,2.3595,2.3595,2.4012,2.4712,2.5125,2.5617,2.6487,2.6708,2.6708,2.6742,2.8015,2.8919,2.9583,3.1097,3.2316,3.2519,3.2865,3.3003,3.312,3.2779,3.2265,3.1812,3.0962,3.0341,3.0434,3.0384,3.0324,3.0856,3.0667,2.9866,2.96,2.9384,2.7735,2.7503,2.8191,2.7928,2.7743,2.764,2.8491,2.8877,2.8895,2.8968,2.8987,2.9005,2.9005,2.9023,2.9042,2.8987,2.939,2.9941,2.9354,2.939,2.9879,2.9335,2.8987,2.895,2.8301,2.7493,2.6583,2.5723,2.5274,2.5191,2.4557,2.4218,2.4208,2.3896,2.3764,2.3742,2.3448,2.3282,2.3311,2.3599,2.3735,2.3795,2.4026,2.4199,2.4199,2.4199,2.419,2.417,2.3917,2.3746,2.3742,2.3426,2.3117,2.281,2.2504,2.2349,2.2335,2.2321,2.2313,2.2313,2.2313,2.2313,2.2313,2.2313,2.2313,2.2313,2.2313,2.2313,2.2313,2.2313,2.2313,2.2398,2.3004,2.3296,2.2797,2.3318,2.3322,2.3223,2.298,2.2981,2.3308,2.346,2.3595,2.3595,2.3595,2.3794,2.441,2.4855,2.5512,2.63,2.6691,2.6505,2.6624,2.7334,2.8015,2.8607,2.9323,3.0178,3.1314,3.1327,3.1547,3.173,3.1494,3.1237,3.0883,3.0398,3.0068,2.9917,2.9851,2.9939,3.1393,3.0883,3.0044,2.9644,2.941,2.8678,2.8464,2.8613,2.8548,2.851,2.8528,2.8877,2.8987,2.8987,2.8987,2.8987,2.9023,2.9482,2.9714,2.9757,3.0191,3.0356,3.0155,2.9898,2.9666,2.9482,2.9152,2.8987,2.8858,2.8191,2.7622,2.7255,2.6502,2.5888,2.5411,2.5081,2.4695,2.4226,2.3876,2.3599,2.3437,2.3477,2.3482,2.3533,2.3816,2.3996,2.4006,2.4141,2.4199,2.4199,2.4199,2.4103,2.3907,2.3774,2.3628,2.3403,2.3093,2.2776,2.249,2.2363,2.2313,2.2313,2.2313,2.2313,2.2313,2.2313,2.2313,2.2313,2.2313,2.2313,2.2313,2.2313,2.2313,2.2313,2.2313,2.2313,2.2313,2.2936,2.3135,2.2525,2.3369,2.3581,2.2744,2.2591,2.2778,2.3107,2.3325,2.3595,2.3595,2.3595,2.3837,2.422,2.4284,2.4423,2.5106,2.5441,2.5412,2.533,2.5866,2.6655,2.7383,2.8331,2.9293,3.0235,3.0431,3.0745,3.1438,3.0528,2.9904,2.9743,2.9413,2.9008,2.8517,2.8604,2.879,3.1469,3.0791,2.9898,2.9435,2.9289,2.9289,2.9171,2.8998,2.8987,2.8987,2.8987,2.8987,2.8987,2.8987,2.8987,2.8987,2.9078,2.961,2.9879,2.9922,3.0485,3.054,3.0191,2.9953,2.9684,2.9335,2.9115,2.8987,2.8932,2.8455,2.8136,2.8007,2.7328,2.6631,2.6054,2.5686,2.5117,2.4537,2.4013,2.3577,2.3403,2.3577,2.3599,2.3471,2.3837,2.4074,2.4064,2.4161,2.4161,2.4074,2.4064,2.3907,2.3588,2.3471,2.3288,2.2995,2.273,2.25,2.231,2.2313,2.2313,2.2313,2.2313,2.2313,2.2313,2.2313,2.2313,2.2313,2.2313,2.2313,2.2313,2.2313,2.2313,2.2313,2.2313,2.2313,2.2347,2.2729,2.264,2.2245,2.3094,2.3726,2.2636,2.2673,2.3017,2.3092,2.334,2.3595,2.3595,2.3595,2.3721,2.3907,2.3492,2.3577,2.4053,2.4275,2.416,2.4232,2.4762,2.5362,2.5965,2.6916,2.7618,2.7971,2.8979,2.9465,2.9344,2.8748,2.8504,2.8861,2.8574,2.7924,2.778,2.772,2.7829,3.0837,3.0493,2.9488,2.9067,2.904,2.904,2.901,2.8987,2.8987,2.8987,2.8987,2.8987,2.8987,2.8987,2.8987,2.8987,2.9005,2.9115,2.9244,2.928,2.9335,2.9574,3.0106,2.9445,2.9464,2.9941,2.9317,2.8987,2.8987,2.895,2.895,2.8858,2.8117,2.7725,2.7394,2.6146,2.5393,2.5179,2.4252,2.3692,2.3653,2.3692,2.3444,2.296,2.3392,2.3756,2.3774,2.4044,2.4064,2.3742,2.3714,2.3566,2.3253,2.2935,2.2639,2.2402,2.2352,2.2324,2.231,2.2313,2.2313,2.2313,2.2364,2.2313,2.2313,2.2381,2.2381,2.2313,2.2313,2.2313,2.2381,2.2431,2.2383,2.2338,2.2302,2.2319,2.2237,2.1905,2.1837,2.1949,2.2371,2.2875,2.3351,2.3535,2.349,2.349,2.3565,2.3565,2.3505,2.3535,2.3359,2.293,2.2792,2.3041,2.3861,2.3661,2.3515,2.3473,2.3571,2.4147,2.4387,2.4749,2.5265,2.5721,2.6393,2.6794,2.6797,2.6859,2.6933,2.7109,2.7177,2.6865,2.6911,2.7312,2.735,3.2213,3.0945,2.9741,2.9257,2.9235,2.9067,2.8987,2.8987,2.8987,2.8987,2.8987,2.8987,2.8987,2.8987,2.8987,2.8987,2.9042,2.9519,3.0032,3.054,3.106,3.1463,3.1604,3.0907,3.0356,3.0099,2.9409,2.8987,2.8987,2.8987,2.8987,2.8968,2.873,2.8338,2.7695,2.6722,2.5944,2.5346,2.4468,2.3935,2.3724,2.3907,2.3692,2.3105,2.3671,2.3917,2.3721,2.3834,2.3724,2.3392,2.338,2.3242,2.2898,2.2603,2.2398,2.2324,2.2313,2.2313,2.2313,2.2313,2.2313,2.2347,2.2736,2.275,2.2496,2.2699,2.2818,2.2431,2.2313,2.2465,2.2902,2.3004,2.2868,2.2612,2.255,2.2261,2.1638,2.1307,2.1295,2.1586,2.2087,2.2823,2.3374,2.3595,2.3595,2.3595,2.3595,2.3415,2.3122,2.3032,2.2808,2.2179,2.1714,2.1512,2.1808,2.2325,2.2437,2.2313,2.2421,2.3125,2.3547,2.3981,2.45,2.5249,2.5354,2.5673,2.6187,2.614,2.6061,2.5753,2.5794,2.6064,2.6023,2.64,2.64,3.2588,3.1095,3.034,2.9731,2.9291,2.9372,2.9244,2.9023,2.8987,2.8987,2.8987,2.8987,2.8987,2.8987,2.8987,2.8987,2.9042,2.9555,3.0118,3.0668,3.1458,3.1812,3.1775,3.1531,3.1127,3.054,2.9776,2.9262,2.9023,2.8987,2.8987,2.8987,2.8767,2.8292,2.7565,2.6611,2.5702,2.5055,2.4286,2.3746,2.3606,2.3764,2.3671,2.3346,2.3649,2.3785,2.3555,2.3544,2.338,2.3111,2.3279,2.3379,2.3275,2.2892,2.2634,2.2649,2.2415,2.2313,2.2313,2.2313,2.2313,2.2313,2.2702,2.2801,2.2381,2.2753,2.2733,2.2415,2.2313,2.2598,2.3211,2.3459,2.3278,2.2845,2.2752,2.2411,2.1503,2.1433,2.1551,2.1894,2.2536,2.3143,2.3475,2.358,2.349,2.3377,2.3332,2.3056,2.2538,2.2358,2.2143,2.15,2.1062,2.0722,2.084,2.1264,2.166,2.1601,2.1864,2.2438,2.2937,2.334,2.3837,2.4577,2.5088,2.5425,2.5541,2.5486,2.5234,2.4881,2.5072,2.5438,2.543,2.5453,2.5638,3.1617,3.0857,3.1169,3.0429,2.9425,2.9854,2.9721,2.9152,2.9023,2.8987,2.8987,2.8987,2.8987,2.8987,2.8987,2.8987,2.9023,2.9097,2.9225,2.9427,3.0063,3.0485,3.0668,3.1182,3.1323,3.1109,3.0485,2.9721,2.9023,2.8987,2.8975,2.8792,2.8175,2.7618,2.7248,2.5791,2.4812,2.4385,2.3714,2.3277,2.32,2.3259,2.3247,2.3177,2.3212,2.3212,2.3165,2.3177,2.3045,2.2833,2.3375,2.4024,2.402,2.356,2.3306,2.3105,2.2665,2.2347,2.2313,2.2313,2.2313,2.2446,2.2395,2.255,2.2634,2.2632,2.2552,2.2377,2.2375,2.2623,2.3177,2.3354,2.3227,2.2849,2.2828,2.2678,2.2017,2.2092,2.2359,2.2546,2.3062,2.3535,2.3595,2.3595,2.34,2.2987,2.2745,2.2461,2.1819,2.162,2.1336,2.0882,2.0554,2.0333,2.0302,2.0395,2.0762,2.1103,2.1573,2.2061,2.2502,2.2894,2.3244,2.3891,2.4325,2.4665,2.4956,2.4927,2.5017,2.4814,2.4924,2.5069,2.5211,2.5346,2.5386,3.1539,3.208,3.1033,3.0632,3.0577,3.0356,3.0044,2.9739,2.9262,2.9005,2.8987,2.8987,2.8987,2.8987,2.8987,2.8987,2.8987,2.9005,2.928,2.9757,3.0069,3.0779,3.1586,3.1513,3.1121,3.0522,2.9757,2.9262,2.9042,2.8987,2.8649,2.7924,2.7597,2.6971,2.6113,2.5087,2.4485,2.4305,2.359,2.3189,2.3189,2.3189,2.3093,2.2885,2.2843,2.2776,2.2611,2.2751,2.2699,2.2436,2.2664,2.2847,2.2931,2.2767,2.2634,2.2617,2.2431,2.2313,2.2313,2.233,2.253,2.2902,2.3038,2.3325,2.3729,2.3682,2.331,2.2713,2.2586,2.2626,2.2475,2.2192,2.2137,2.228,2.2859,2.2481,2.1224,2.1409,2.1842,2.2114,2.2936,2.352,2.3595,2.358,2.3281,2.2649,2.2334,2.1854,2.1149,2.07,2.0396,2.0061,1.9994,2.0089,2.0152,2.0414,2.0862,2.1229,2.163,2.1928,2.2287,2.2682,2.2989,2.3357,2.3735,2.4057,2.4321,2.4553,2.4723,2.491,2.5065,2.5203,2.5293,2.5365,2.5413,3.2281,3.2716,3.1912,3.1439,3.1415,3.1127,3.0742,3.0191,2.9684,2.9299,2.906,2.8987,2.8987,2.8987,2.8987,2.8987,2.8987,2.8987,2.9262,2.9757,3.0118,3.0797,3.1665,3.1549,3.098,3.0265,2.9684,2.928,2.8975,2.8546,2.7997,2.7381,2.6603,2.5825,2.4988,2.4201,2.3734,2.3554,2.3101,2.2857,2.2857,2.2857,2.2773,2.259,2.255,2.2463,2.2321,2.2477,2.2477,2.2386,2.2516,2.2801,2.3054,2.2919,2.2716,2.2668,2.2448,2.2313,2.2313,2.2313,2.2465,2.2888,2.2839,2.2899,2.3303,2.3325,2.2778,2.2245,2.2035,2.1956,2.1696,2.1527,2.1374,2.1396,2.2443,2.2467,2.1424,2.1859,2.2388,2.2667,2.3146,2.34,2.3325,2.3236,2.2778,2.1963,2.1539,2.0909,2.0191,1.9846,1.9674,1.963,1.967,1.9804,2.001,2.0431,2.1007,2.1415,2.1825,2.2063,2.2321,2.2811,2.3189,2.361,2.4016,2.4163,2.4419,2.4642,2.4818,2.5006,2.5187,2.5259,2.5317,2.5383,2.5428,3.342,3.2797,3.333,3.2724,3.1782,3.2228,3.1641,3.043,3.0173,2.9702,2.9115,2.8987,2.8987,2.8987,2.8987,2.8987,2.9005,2.917,2.9133,2.9335,2.9806,3.0375,3.0522,3.0962,3.0815,3.0283,2.9934,2.9544,2.8857,2.7815,2.7248,2.7016,2.547,2.4312,2.3981,2.3128,2.268,2.2518,2.2383,2.238,2.2363,2.2366,2.2335,2.2321,2.2321,2.2321,2.2324,2.2338,2.2338,2.2381,2.2837,2.3359,2.3966,2.368,2.3173,2.3122,2.2649,2.2381,2.2313,2.2209,2.2293,2.2433,2.2008,2.1665,2.2044,2.1922,2.1585,2.1311,2.1246,2.1102,2.1034,2.0997,2.0864,2.0641,2.1546,2.2329,2.3287,2.3251,2.3047,2.3176,2.343,2.331,2.2712,2.2601,2.1745,2.0817,2.0485,1.9835,1.9334,1.9251,1.9339,1.9442,1.9566,1.9788,2.007,2.0532,2.1071,2.1522,2.1955,2.2298,2.2525,2.297,2.3437,2.3847,2.4163,2.4321,2.4503,2.4731,2.4903,2.5078,2.5203,2.5269,2.5321,2.5368,2.5415,3.2139,3.3366,3.2449,3.2467,3.3036,3.2816,3.2063,3.1066,3.0448,2.9812,2.9133,2.8987,2.8987,2.8987,2.8987,2.8987,2.9115,2.9544,2.9519,2.9189,2.9824,3.0173,3.021,3.0381,3.0399,3.0051,2.9105,2.8468,2.8432,2.7176,2.6519,2.642,2.4979,2.3939,2.3502,2.2835,2.2408,2.231,2.2313,2.2313,2.2313,2.2313,2.2313,2.2313,2.2313,2.2313,2.2313,2.2313,2.2313,2.2313,2.2462,2.2649,2.2919,2.2767,2.2665,2.26,2.2465,2.2313,2.2237,2.1972,2.2056,2.2442,2.1659,2.1633,2.2684,2.2148,2.1706,2.147,2.1365,2.0943,2.029,2.016,2.0252,2.0545,2.0813,2.1205,2.2039,2.2188,2.2188,2.2233,2.2688,2.2613,2.2118,2.1626,2.1155,2.0485,1.9914,1.952,1.9042,1.9039,1.9262,1.9548,1.9711,1.9929,2.0244,2.0698,2.115,2.1597,2.2093,2.2625,2.2857,2.3183,2.3631,2.4084,2.4266,2.4435,2.4643,2.4876,2.5031,2.5146,2.5219,2.5293,2.5327,2.5354,2.5391,3.254,3.3733,3.2797,3.2939,3.3715,3.3311,3.2651,3.1843,3.1054,3.0246,2.9555,2.9133,2.8987,2.8987,2.8987,2.8987,2.9067,2.9296,2.9162,2.887,2.9036,2.9355,2.9539,2.9552,2.9454,2.9338,2.8372,2.8057,2.7946,2.6809,2.6225,2.5988,2.4867,2.3978,2.3435,2.3021,2.2581,2.2364,2.2313,2.2313,2.2313,2.2313,2.2313,2.2313,2.2313,2.2313,2.2313,2.2313,2.2313,2.2313,2.2313,2.2313,2.2313,2.2313,2.2313,2.2313,2.2313,2.2313,2.2225,2.1869,2.1808,2.1964,2.1279,2.1209,2.1616,2.1435,2.0951,2.0727,2.0735,2.0375,1.9963,1.9929,2.0423,2.0981,2.0767,2.0976,2.1994,2.2428,2.2338,2.2328,2.2388,2.2313,2.1421,2.0826,2.0376,1.9943,1.9397,1.9113,1.8908,1.9087,1.9303,1.9591,2.0,2.0296,2.0733,2.1227,2.168,2.2071,2.2495,2.3002,2.3247,2.3497,2.3821,2.4192,2.4383,2.4575,2.478,2.4962,2.5072,2.5187,2.5264,2.5298,2.5322,2.5321,2.5363,3.3733,3.3788,3.3715,3.3715,3.3788,3.3788,3.3164,3.2375,3.1623,3.0797,2.9929,2.9245,2.8893,2.894,2.8773,2.8858,2.8846,2.876,2.8647,2.8523,2.8474,2.8542,2.8833,2.8652,2.8513,2.8388,2.7984,2.7787,2.7494,2.6609,2.6207,2.5941,2.5084,2.4232,2.368,2.3427,2.3004,2.2415,2.2313,2.2313,2.2313,2.2313,2.2313,2.2313,2.2313,2.2313,2.2313,2.2313,2.2313,2.2313,2.2313,2.2313,2.2313,2.2313,2.2313,2.2313,2.2313,2.2313,2.224,2.1884,2.1552,2.1464,2.0812,2.028,2.0366,2.0154,1.9974,1.9936,1.9723,1.9849,2.001,2.0363,2.0887,2.1425,2.165,2.2089,2.2523,2.3092,2.3191,2.2688,2.2538,2.1829,2.0892,2.0055,1.953,1.943,1.9013,1.8903,1.9035,1.9446,1.9597,1.976,2.0213,2.0699,2.1242,2.1784,2.2262,2.2703,2.31,2.3493,2.3702,2.3915,2.4089,2.431,2.4538,2.4737,2.4904,2.5028,2.5141,2.5208,2.5279,2.5308,2.5293,2.5308,2.533,3.322,3.3752,3.3133,3.3238,3.3752,3.3788,3.2981,3.1727,3.1507,3.065,2.9423,2.8761,2.8576,2.8533,2.838,2.8134,2.8327,2.8627,2.8956,2.8945,2.8841,2.8454,2.8263,2.8027,2.801,2.7844,2.7274,2.7151,2.7021,2.6264,2.5741,2.6313,2.5296,2.4406,2.422,2.3613,2.3038,2.2431,2.2313,2.2313,2.2313,2.2313,2.2313,2.2313,2.2313,2.2313,2.2313,2.2313,2.2313,2.2313,2.2313,2.2313,2.2313,2.2313,2.2313,2.2313,2.2313,2.2313,2.2225,2.1884,2.146,2.1134,2.0666,2.0143,1.9854,1.9797,1.9723,1.9723,1.9723,1.9899,2.0348,2.0569,2.1036,2.1575,2.2089,2.2254,2.2054,2.2069,2.2173,2.1889,2.1465,2.0678,1.9534,1.9027,1.8749,1.876,1.8784,1.8688,1.914,1.9737,1.9969,2.0095,2.0552,2.1086,2.1665,2.2252,2.2775,2.3206,2.3603,2.3873,2.408,2.4282,2.442,2.4575,2.4733,2.4904,2.5028,2.5146,2.5253,2.5279,2.5308,2.5308,2.5308,2.5308,2.5293,3.3421,3.3733,3.333,3.3421,3.3752,3.3788,3.3109,3.2045,3.1544,3.0826,2.9882,2.924,2.886,2.8661,2.8497,2.8287,2.8084,2.8469,2.865,2.8508,2.8411,2.8204,2.7856,2.7539,2.7394,2.7475,2.7033,2.6885,2.6691,2.6302,2.6175,2.6572,2.5524,2.4863,2.444,2.378,2.3038,2.2448,2.2313,2.2313,2.2313,2.2313,2.2313,2.2313,2.2313,2.2313,2.2313,2.2313,2.2313,2.2313,2.2313,2.2313,2.2313,2.2313,2.2313,2.2313,2.2313,2.2313,2.2194,2.1853,2.143,2.1007,2.0566,2.0141,1.9818,1.9723,1.9723,1.9723,1.9768,1.9977,2.0583,2.0688,2.1017,2.156,2.2014,2.2039,2.1829,2.1949,2.1844,2.1425,2.0957,2.0325,1.9485,1.8726,1.8765,1.9151,1.8893,1.8841,1.9358,1.9929,2.033,2.06,2.1007,2.1505,2.2085,2.2678,2.3271,2.3667,2.402,2.4183,2.4328,2.4546,2.4733,2.4824,2.4898,2.5018,2.5146,2.5259,2.5308,2.5308,2.5308,2.5308,2.5308,2.5308,2.5308,3.3807,3.3807,3.3807,3.3807,3.3807,3.3807,3.333,3.2528,3.188,3.1284,3.0644,2.9908,2.923,2.9082,2.8772,2.8451,2.8275,2.8146,2.8219,2.827,2.8473,2.8235,2.7878,2.7555,2.7263,2.7215,2.6887,2.6758,2.6724,2.6674,2.6436,2.6437,2.5947,2.5033,2.4338,2.3763,2.3038,2.2412,2.2313,2.2313,2.2313,2.2313,2.2313,2.2313,2.2313,2.2313,2.2313,2.2313,2.2313,2.2313,2.2313,2.2313,2.2313,2.2313,2.2313,2.2313,2.2313,2.2313,2.2268,2.1943,2.1553,2.1055,2.0666,2.0193,1.9854,1.9723,1.9723,1.9723,1.9768,1.9974,2.0583,2.0688,2.1017,2.1515,2.1695,2.165,2.165,2.2074,2.162,2.1036,2.0539,2.0001,1.9546,1.8987,1.9244,1.9387,1.9118,1.9099,1.9609,2.0122,2.0565,2.1054,2.1473,2.2121,2.2724,2.2974,2.3581,2.3983,2.4347,2.4476,2.4564,2.4718,2.4891,2.4955,2.5028,2.5146,2.5214,2.5269,2.5308,2.5308,2.5308,2.5308,2.5308,2.5308,2.5308,3.3807,3.3807,3.3807,3.3807,3.3807,3.3807,3.3348,3.2674,3.2386,3.1768,3.0746,2.9705,2.9372,2.9186,2.8357,2.8288,2.8476,2.8305,2.8268,2.867,2.9042,2.8975,2.7824,2.7909,2.7725,2.7029,2.6708,2.6725,2.6708,2.6691,2.642,2.5913,2.5625,2.4932,2.3966,2.3408,2.297,2.2412,2.2313,2.2313,2.2313,2.2313,2.2313,2.2313,2.2313,2.2313,2.2313,2.2313,2.2313,2.2313,2.2313,2.2313,2.2282,2.2282,2.2268,2.2313,2.2313,2.2313,2.2268,2.224,2.1751,2.1229,2.0878,2.0448,1.9927,1.9723,1.9723,1.9723,1.9768,1.9959,2.0598,2.0583,2.0972,2.144,2.1515,2.1365,2.1021,2.0976,2.1066,2.0598,2.0161,1.9826,1.9494,1.9225,1.9281,1.9369,1.9244,1.9321,1.9752,2.0328,2.0862,2.1397,2.1912,2.2669,2.3426,2.3519,2.3832,2.4192,2.451,2.467,2.4769,2.4904,2.501,2.5057,2.5146,2.5224,2.5279,2.525,2.5135,2.5024,2.5135,2.525,2.5154,2.5082,2.5288,3.3807,3.3807,3.3807,3.3807,3.3807,3.3807,3.3335,3.263,3.2365,3.1823,3.1031,3.0254,2.9831,2.9589,2.8864,2.8484,2.8315,2.8518,2.8416,2.8636,2.9042,2.8721,2.7435,2.774,2.7385,2.686,2.6691,2.6708,2.6708,2.6708,2.6268,2.5676,2.527,2.4458,2.3528,2.2987,2.2685,2.233,2.2313,2.2313,2.2313,2.2313,2.2313,2.2313,2.2313,2.2313,2.2313,2.2313,2.2313,2.2254,2.2077,2.2123,2.2166,2.212,2.2061,2.2254,2.2313,2.2313,2.2313,2.2268,2.1886,2.115,2.0991,2.0565,1.998,1.9723,1.9723,1.9723,1.9723,1.9828,2.0124,2.0198,2.0348,2.0576,2.0692,2.0557,2.0318,2.0228,2.0243,2.0258,1.9971,1.9725,1.9574,1.9406,1.9336,1.9299,1.9299,1.9573,1.9945,2.0515,2.1134,2.1852,2.2421,2.3053,2.3738,2.3933,2.4062,2.4395,2.4659,2.4823,2.4949,2.5059,2.5116,2.5179,2.5264,2.5154,2.5101,2.4986,2.4851,2.4697,2.4683,2.4683,2.4774,2.4889,2.5154,3.3807,3.3807,3.3807,3.3748,3.3675,3.368,3.3246,3.2606,3.2282,3.1851,3.1365,3.0837,3.0382,2.9914,2.9179,2.8467,2.8043,2.8637,2.8416,2.8416,2.8721,2.8265,2.73,2.6894,2.6928,2.6776,2.6708,2.6708,2.664,2.6471,2.6116,2.5507,2.4795,2.4051,2.3393,2.275,2.2415,2.2313,2.2313,2.2313,2.2313,2.2313,2.2313,2.2313,2.2313,2.2313,2.2313,2.2313,2.2313,2.2225,2.2063,2.1926,2.2149,2.1959,2.1945,2.224,2.2313,2.2268,2.2166,2.212,2.1705,2.0878,2.0845,2.0413,1.9977,1.9723,1.9723,1.9723,1.9723,1.9723,1.9813,1.9753,1.9768,1.9798,1.9828,1.9753,1.9813,1.9828,1.9857,1.9828,1.9723,1.9672,1.9584,1.9584,1.9512,1.9624,1.9609,1.9811,2.021,2.0813,2.1475,2.23,2.2944,2.3468,2.3943,2.4229,2.4395,2.4625,2.4811,2.4968,2.5065,2.5173,2.5147,2.5014,2.4889,2.4774,2.4736,2.4562,2.4298,2.4105,2.4072,2.4168,2.4394,2.4812,2.5231,3.3807,3.3807,3.3807,3.3592,3.3302,3.3273,3.2993,3.2537,3.2403,3.2175,3.1655,3.0993,3.0466,2.9829,2.8618,2.8383,2.8484,2.8263,2.8281,2.8535,2.8756,2.8383,2.7706,2.7689,2.7131,2.6793,2.6708,2.6708,2.6607,2.6167,2.5778,2.539,2.4492,2.3477,2.3376,2.2801,2.233,2.2313,2.2313,2.2313,2.2313,2.2313,2.2313,2.2313,2.2313,2.2313,2.2313,2.2313,2.2313,2.2282,2.224,2.2223,2.2282,2.2265,2.2223,2.2282,2.2268,2.2106,2.1809,2.1688,2.1352,2.0666,2.0449,2.0156,1.9854,1.9723,1.9723,1.9723,1.9723,1.9723,1.9723,1.9723,1.9723,1.9723,1.9723,1.9723,1.9723,1.9723,1.9723,1.9723,1.9723,1.9723,1.9672,1.969,1.9708,1.9836,1.998,2.0176,2.0585,2.1258,2.1828,2.263,2.3281,2.3821,2.4136,2.4425,2.4617,2.4831,2.4962,2.5082,2.5105,2.51,2.4755,2.4615,2.4452,2.4125,2.3817,2.3644,2.3548,2.3509,2.3437,2.3721,2.4105,2.462,2.525,3.3807,3.3793,3.3569,3.3361,3.3166,3.2937,3.2697,3.2484,3.2213,3.1986,3.1736,3.1255,3.045,2.9433,2.867,2.8399,2.8298,2.7925,2.7942,2.823,2.8247,2.7909,2.73,2.7182,2.6911,2.6826,2.6708,2.6708,2.6556,2.6387,2.6082,2.5542,2.4932,2.4188,2.3545,2.3074,2.2668,2.2431,2.2313,2.2313,2.2313,2.2313,2.2313,2.2313,2.2313,2.2313,2.2313,2.2313,2.2313,2.2254,2.2092,2.1899,2.184,2.1706,2.1539,2.1554,2.1539,2.1538,2.1567,2.1368,2.091,2.0516,2.0263,2.0139,1.9833,1.9723,1.9723,1.9723,1.9723,1.9723,1.9723,1.9723,1.9723,1.9723,1.9723,1.9723,1.9723,1.9723,1.9723,1.9723,1.9723,1.9723,1.9726,1.9764,1.978,1.98,2.0104,2.0483,2.11,2.195,2.2474,2.2991,2.3581,2.4096,2.4347,2.4583,2.4737,2.4917,2.5107,2.5165,2.51,2.4962,2.462,2.4105,2.374,2.3374,2.2913,2.2658,2.2504,2.262,2.2778,2.3259,2.3798,2.4697,2.523,3.3807,3.3766,3.3379,3.3154,3.2983,3.2516,3.2248,3.2127,3.1806,3.1641,3.1464,3.0891,2.9858,2.8874,2.8383,2.7909,2.7536,2.7503,2.7503,2.7519,2.7469,2.7215,2.6928,2.6742,2.6742,2.6708,2.6708,2.6708,2.6708,2.6607,2.6353,2.5845,2.4983,2.4526,2.3833,2.319,2.2685,2.2347,2.2313,2.2313,2.2313,2.2313,2.2313,2.2313,2.2313,2.2313,2.2313,2.2313,2.2313,2.2223,2.1884,2.1673,2.1628,2.1354,2.115,2.1087,2.1023,2.0975,2.1039,2.091,2.06,2.0314,2.0141,1.9982,1.9797,1.9723,1.9723,1.9723,1.9723,1.9723,1.9723,1.9723,1.9723,1.9723,1.9723,1.9723,1.9723,1.9723,1.9723,1.9723,1.9723,1.9723,1.9744,1.9821,1.9839,1.9818,2.0156,2.0699,2.1543,2.2474,2.2912,2.3335,2.3746,2.4201,2.4434,2.4643,2.483,2.5005,2.5187,2.5254,2.5187,2.4865,2.4485,2.3908,2.3278,2.2451,2.1889,2.1654,2.1519,2.1966,2.2408,2.2913,2.3548,2.4524,2.5172,3.3807,3.3762,3.3361,3.2968,3.2534,3.2039,3.164,3.1408,3.131,3.1237,3.1021,2.9856,2.8873,2.8027,2.7486,2.7114,2.6826,2.6776,2.686,2.686,2.6776,2.681,2.6708,2.6708,2.6708,2.6708,2.6708,2.6708,2.6708,2.6691,2.664,2.6437,2.5033,2.4372,2.3746,2.3071,2.2567,2.2313,2.2313,2.2313,2.2313,2.2313,2.2313,2.2313,2.2313,2.2313,2.2313,2.2313,2.2296,2.2282,2.1838,2.1521,2.1445,2.1102,2.0894,2.0715,2.05,2.0449,2.0433,2.0431,2.0158,1.9892,1.9764,1.9803,1.9726,1.9723,1.9723,1.9723,1.9723,1.9723,1.9723,1.9723,1.9723,1.9723,1.9723,1.9723,1.9723,1.9723,1.9723,1.9723,1.9723,1.9723,1.9836,1.9912,1.9982,1.9962,2.06,2.1165,2.1964,2.2818,2.3171,2.3566,2.3907,2.4238,2.4459,2.4666,2.4862,2.5037,2.5208,2.5269,2.5269,2.4865,2.4332,2.3755,2.3067,2.1947,2.1177,2.16,2.185,2.1793,2.2177,2.3124,2.3755,2.4543,2.5011,3.3807,3.378,3.3361,3.2937,3.2434,3.1732,3.1351,3.121,3.119,3.092,3.0463,2.9467,2.8552,2.7858,2.7553,2.7097,2.6776,2.6708,2.6708,2.6708,2.6708,2.6708,2.6708,2.6708,2.6708,2.6708,2.6708,2.6708,2.6708,2.6708,2.6336,2.5795,2.4949,2.4374,2.3748,2.2919,2.2448,2.2313,2.2313,2.2313,2.2313,2.2313,2.2313,2.2313,2.2313,2.2313,2.2313,2.2313,2.2313,2.2166,2.1809,2.1491,2.1181,2.0797,2.0499,2.0311,2.0052,2.0017,1.9982,1.998,1.9854,1.9797,1.9708,1.9723,1.9723,1.9723,1.9723,1.9723,1.9723,1.9723,1.9723,1.9723,1.9723,1.9723,1.9723,1.9723,1.9723,1.9723,1.9723,1.9723,1.9723,1.9723,1.9856,2.0019,2.0089,2.0176,2.0911,2.1668,2.2424,2.3045,2.3392,2.3706,2.4037,2.4311,2.4543,2.4719,2.4889,2.5049,2.5219,2.5269,2.5231,2.4644,2.4086,2.3528,2.3144,2.2489,2.2124,2.2201,2.222,2.2158,2.2855,2.3875,2.437,2.4601,2.4587,3.3807,3.3766,3.3361,3.2937,3.2434,3.1695,3.131,3.121,3.119,3.0615,2.9753,2.9179,2.8399,2.7723,2.7401,2.7215,2.6793,2.6708,2.6708,2.6708,2.6708,2.6708,2.6708,2.6708,2.6708,2.6708,2.6708,2.6708,2.6708,2.6708,2.6116,2.5541,2.5203,2.4425,2.3562,2.2716,2.2313,2.2313,2.2313,2.2313,2.2313,2.2313,2.2313,2.2313,2.2313,2.2313,2.224,2.2166,2.2049,2.1855,2.1522,2.1102,2.0748,2.0398,2.0,1.9818,1.9726,1.9747,1.9821,1.9747,1.9797,1.9892,1.9762,1.9744,1.9723,1.9723,1.9723,1.9723,1.9723,1.9723,1.9723,1.9723,1.9723,1.9723,1.9723,1.9723,1.9723,1.9723,1.9723,1.9723,1.9726,1.978,2.0225,2.0466,2.0765,2.0862,2.1318,2.2012,2.2699,2.3242,2.3555,2.3868,2.4144,2.4391,2.4639,2.4814,2.4949,2.5018,2.5168,2.5269,2.5101,2.4586,2.4202,2.3855,2.3509,2.3144,2.299,2.2913,2.272,2.2528,2.3355,2.4182,2.4067,2.4144,2.3805,3.3807,3.3748,3.3375,3.2952,3.2501,3.1986,3.1565,3.122,3.1024,3.026,2.9077,2.8824,2.8061,2.7046,2.6894,2.681,2.6759,2.6708,2.6708,2.6708,2.6708,2.6708,2.6708,2.6708,2.6708,2.6708,2.6691,2.6674,2.6607,2.6674,2.5913,2.4965,2.4558,2.4086,2.3359,2.2665,2.2313,2.2313,2.2313,2.2313,2.2313,2.2313,2.2313,2.2313,2.2313,2.2313,2.2254,2.193,2.1794,2.1658,2.0959,2.0566,2.0399,2.0017,1.9764,1.9726,1.9744,1.9927,2.0244,1.9945,1.9982,2.0124,1.9965,1.9815,1.9726,1.9723,1.9723,1.9723,1.9723,1.9723,1.9723,1.9723,1.9723,1.9723,1.9723,1.9723,1.9723,1.9723,1.9723,1.9762,1.9797,1.9907,2.0449,2.0943,2.1382,2.1654,2.19,2.2411,2.3057,2.338,2.3682,2.3988,2.4247,2.4451,2.4685,2.4865,2.5004,2.5052,2.5127,2.5259,2.5308,2.5063,2.4678,2.4279,2.4125,2.3966,2.374,2.3528,2.3432,2.3394,2.3605,2.4086,2.3918,2.3537,2.3069,3.3807,3.3793,3.3652,3.3346,3.2872,3.2127,3.1715,3.1394,3.033,2.9178,2.8247,2.7723,2.73,2.6776,2.6708,2.6708,2.6725,2.6708,2.6708,2.6708,2.6708,2.6708,2.6691,2.6657,2.6657,2.6691,2.6657,2.6302,2.5964,2.6353,2.5794,2.4812,2.4051,2.3359,2.2818,2.2378,2.2313,2.2313,2.2313,2.2313,2.2313,2.2313,2.2313,2.2313,2.2313,2.2313,2.2268,2.184,2.1583,2.1445,2.0715,2.0297,2.0195,1.9892,1.9726,1.9815,1.9925,2.0449,2.0814,2.0813,2.0465,2.0347,2.0176,1.9945,1.978,1.9723,1.9723,1.9723,1.9723,1.9723,1.9723,1.9723,1.9723,1.9723,1.9723,1.9723,1.9723,1.9723,1.9726,1.9818,1.9856,2.0448,2.0991,2.1454,2.1884,2.2224,2.2455,2.28,2.338,2.3544,2.3774,2.4067,2.4348,2.4528,2.4723,2.4891,2.5047,2.5135,2.5198,2.5274,2.5308,2.5308,2.5173,2.4793,2.4812,2.4832,2.4409,2.4125,2.4259,2.4356,2.3952,2.3721,2.361,2.2932,2.207,3.3807,3.3807,3.3807,3.3648,3.3288,3.2433,3.1897,3.1431,3.0275,2.9313,2.8601,2.7875,2.7554,2.7419,2.6979,2.6945,2.7012,2.6776,2.6708,2.6708,2.6708,2.6708,2.6657,2.6471,2.6234,2.6268,2.6031,2.5676,2.5677,2.6099,2.5591,2.4592,2.378,2.3105,2.2564,2.2313,2.2465,2.2533,2.2584,2.2313,2.2313,2.2313,2.2313,2.2313,2.2313,2.2313,2.2137,2.1811,2.1384,2.1134,2.0682,2.0141,2.0,1.9907,1.9903,2.0241,2.0893,2.1133,2.1006,2.129,2.0846,2.0348,2.0314,2.0106,1.9818,1.9723,1.9723,1.9723,1.9723,1.9723,1.9723,1.9723,1.9723,1.9723,1.9723,1.9723,1.9723,1.9723,1.9818,1.9909,2.0176,2.0814,2.149,2.1984,2.2398,2.2703,2.2984,2.3335,2.366,2.3774,2.3888,2.4144,2.4384,2.4537,2.4697,2.4871,2.5024,2.5182,2.5253,2.5308,2.5308,2.5308,2.5308,2.5288,2.5135,2.4981,2.4812,2.4659,2.424,2.3721,2.3158,2.3086,2.3201,2.2374,2.1293,3.3807,3.3807,3.3807,3.3793,3.3606,3.2727,3.195,3.1181,3.1108,3.0598,2.9886,2.9042,2.8705,2.8536,2.7418,2.7165,2.7435,2.6979,2.6759,2.6708,2.6708,2.6708,2.6454,2.6065,2.5879,2.5473,2.5186,2.5185,2.549,2.5761,2.5321,2.4558,2.3932,2.3241,2.2767,2.2431,2.26,2.2685,2.255,2.233,2.2313,2.2313,2.2313,2.2313,2.2313,2.2237,2.1988,2.1554,2.115,2.0731,2.0208,1.9889,1.9726,1.9723,2.0487,2.1311,2.215,2.1681,2.1135,2.143,2.1118,2.0616,2.0416,2.0122,1.9854,1.9723,1.9723,1.9723,1.9723,1.9723,1.9723,1.9723,1.9723,1.9723,1.9723,1.9723,1.9723,1.9797,1.9945,2.0106,2.0382,2.0927,2.1655,2.2231,2.2712,2.3015,2.3288,2.3606,2.3876,2.3986,2.4095,2.421,2.4419,2.4537,2.4704,2.4904,2.5047,2.5214,2.5259,2.5308,2.5308,2.5308,2.5308,2.5288,2.5231,2.5038,2.4639,2.4144,2.3624,2.3067,2.2427,2.2274,2.235,2.1504,2.0596,3.3807,3.3807,3.3807,3.3652,3.3255,3.24,3.1385,3.0484,3.0412,3.0006,2.9296,2.9094,2.9094,2.8874,2.7943,2.7722,2.7452,2.7148,2.681,2.6708,2.6708,2.6708,2.642,2.593,2.5676,2.5287,2.4931,2.4491,2.4864,2.522,2.5186,2.4541,2.4118,2.3594,2.3021,2.2547,2.2567,2.2567,2.2415,2.2347,2.2313,2.2313,2.2313,2.2313,2.2254,2.2135,2.1749,2.1291,2.0878,2.0448,1.9997,1.9708,1.9723,2.0145,2.0904,2.1744,2.2297,2.2386,2.1883,2.1945,2.1645,2.0878,2.0715,2.033,1.9995,1.9723,1.9723,1.9723,1.9723,1.9723,1.9723,1.9723,1.9723,1.9723,1.9723,1.9723,1.9723,1.9762,1.9927,2.0382,2.0649,2.1275,2.1998,2.2472,2.2942,2.3259,2.3555,2.3816,2.4006,2.4103,2.4209,2.4303,2.44,2.451,2.4802,2.5036,2.5141,2.5253,2.5274,2.5303,2.5308,2.5308,2.5308,2.5231,2.5115,2.4736,2.4259,2.3712,2.3107,2.2342,2.1727,2.1596,2.1346,2.0708,2.0285,3.3807,3.3807,3.3807,3.3462,3.2856,3.2127,3.1291,3.0622,3.0548,3.0243,2.9854,2.9585,2.9585,2.9738,2.8856,2.8281,2.823,2.7571,2.708,2.6708,2.6708,2.6454,2.615,2.5592,2.4966,2.4628,2.4188,2.3646,2.4171,2.4694,2.4778,2.4085,2.4068,2.3611,2.2987,2.2496,2.2347,2.2347,2.2313,2.2313,2.2313,2.2313,2.2313,2.2268,2.2194,2.1884,2.1567,2.1118,2.06,2.028,1.9909,1.9708,1.9957,2.0624,2.1036,2.1841,2.252,2.2176,2.1593,2.1735,2.1338,2.0862,2.0665,2.0345,1.9997,1.9723,1.9723,1.9723,1.9723,1.9723,1.9723,1.9723,1.9723,1.9723,1.9723,1.9723,1.9723,1.9723,2.0102,2.06,2.1166,2.1796,2.2337,2.2776,2.3045,2.3129,2.338,2.3735,2.3937,2.4084,2.418,2.4275,2.4393,2.4501,2.4809,2.503,2.5071,2.5165,2.5264,2.5274,2.5303,2.5284,2.5284,2.5149,2.4962,2.4442,2.3808,2.3199,2.2575,2.1731,2.1017,2.0852,2.0755,2.0576,2.0292,3.3807,3.3793,3.3703,3.3181,3.2451,3.1933,3.1492,3.121,3.1123,3.1157,3.097,3.0463,3.0497,3.0531,2.9501,2.8891,2.8467,2.7841,2.7097,2.6708,2.6708,2.6471,2.5896,2.5015,2.4712,2.368,2.3105,2.3274,2.3594,2.4135,2.4338,2.3458,2.3492,2.3173,2.2564,2.2398,2.2313,2.2313,2.2313,2.2313,2.2313,2.2313,2.2313,2.2237,2.1988,2.1675,2.1414,2.0943,2.0331,2.0193,1.9965,1.9726,2.0401,2.1227,2.155,2.1875,2.2688,2.2266,2.1705,2.1628,2.1102,2.0582,2.0139,2.0104,1.996,1.9726,1.9723,1.9723,1.9723,1.9723,1.9723,1.9723,1.9723,1.9723,1.9723,1.9723,1.9723,1.9907,2.0396,2.0926,2.1522,2.2092,2.229,2.2669,2.286,2.2905,2.3247,2.3682,2.3847,2.4016,2.4181,2.4275,2.4384,2.4501,2.4674,2.4864,2.4943,2.503,2.5182,2.5269,2.5303,2.5284,2.5274,2.5,2.4668,2.3947,2.3289,2.258,2.1756,2.0891,2.0294,2.0077,2.006,2.0314,2.0288,3.3807,3.3734,3.3105,3.2484,3.195,3.1526,3.131,3.119,3.119,3.121,3.1157,3.1021,3.0954,3.0835,2.9721,2.9061,2.8671,2.7807,2.6996,2.6742,2.6708,2.6522,2.6268,2.549,2.4831,2.422,2.3661,2.3088,2.3374,2.3881,2.4101,2.3444,2.3308,2.2919,2.2347,2.2313,2.2313,2.2313,2.2313,2.2313,2.2313,2.2313,2.2282,2.2268,2.2092,2.1838,2.1553,2.1118,2.0633,2.0314,1.9927,2.0167,2.0896,2.1953,2.2345,2.2423,2.2829,2.2388,2.1998,2.1645,2.1291,2.091,2.0582,2.0243,1.9997,1.9815,1.9723,1.9723,1.9723,1.9723,1.9723,1.9723,1.9723,1.9723,1.9723,1.9723,1.9741,2.0206,2.0682,2.1245,2.1825,2.2135,2.2304,2.2463,2.2652,2.296,2.338,2.3732,2.3806,2.3958,2.421,2.433,2.441,2.4518,2.4654,2.4749,2.4843,2.4974,2.5124,2.5208,2.5269,2.5187,2.5069,2.4689,2.4249,2.375,2.2954,2.166,2.083,2.0499,2.0417,2.0553,2.0436,2.0588,2.0425,3.3694,3.3433,3.2565,3.2057,3.1752,3.1353,3.119,3.123,3.1389,3.137,3.121,3.1173,3.1021,3.0768,2.9803,2.889,2.8501,2.7655,2.708,2.681,2.6657,2.642,2.615,2.5828,2.4797,2.4103,2.3325,2.2885,2.3071,2.3156,2.3173,2.2987,2.2888,2.2736,2.2313,2.2313,2.2313,2.2313,2.2313,2.2313,2.2313,2.2313,2.2313,2.2296,2.2061,2.1853,2.1506,2.1118,2.0748,2.0583,2.0414,2.0977,2.1564,2.202,2.2481,2.2639,2.2693,2.233,2.1927,2.1676,2.1401,2.0862,2.0665,2.0176,1.9889,1.9723,1.9723,1.9723,1.9723,1.9723,1.9723,1.9723,1.9723,1.9723,1.9723,1.9723,1.996,2.0362,2.0715,2.1055,2.1645,2.2209,2.2338,2.2335,2.2504,2.2603,2.311,2.3477,2.3599,2.3927,2.4182,2.4348,2.4393,2.4469,2.4578,2.4666,2.4773,2.4904,2.5041,2.5037,2.5037,2.4981,2.4822,2.4618,2.4366,2.3993,2.3019,2.1942,2.1622,2.1635,2.1452,2.1297,2.1139,2.1015,2.106,3.3536,3.3014,3.2179,3.1771,3.1678,3.1334,3.119,3.1235,3.1501,3.1499,3.1281,3.1174,3.0709,3.0294,2.9888,2.8889,2.806,2.7486,2.708,2.6826,2.6708,2.6488,2.6184,2.5761,2.4932,2.39,2.2936,2.2581,2.2465,2.2567,2.2584,2.2347,2.2313,2.2313,2.2313,2.2313,2.2313,2.2313,2.2313,2.2313,2.2313,2.2313,2.2313,2.2152,2.1928,2.1703,2.143,2.1118,2.0813,2.0862,2.1039,2.1472,2.1777,2.1962,2.2229,2.2448,2.2039,2.1593,2.1213,2.1166,2.0649,2.0208,2.0244,2.0106,1.9818,1.9723,1.9723,1.9723,1.9723,1.9723,1.9723,1.9723,1.9723,1.9723,1.9723,1.9726,2.0085,2.0431,2.0715,2.0943,2.1524,2.2137,2.2296,2.231,2.2349,2.2443,2.2673,2.2977,2.3346,2.3816,2.419,2.4266,2.4275,2.4366,2.4471,2.4567,2.4663,2.4759,2.485,2.4821,2.4797,2.4771,2.4766,2.4785,2.4498,2.4024,2.3763,2.3043,2.2859,2.2581,2.2282,2.1976,2.2017,2.1948,2.1991,3.3346,3.2583,3.2022,3.164,3.1332,3.1213,3.119,3.115,3.095,3.1112,3.1316,3.0899,3.0463,3.004,2.9414,2.8674,2.8101,2.7487,2.7029,2.6708,2.6808,2.6639,2.6336,2.5962,2.5439,2.4255,2.297,2.2415,2.2313,2.2313,2.2313,2.2313,2.2313,2.2313,2.2313,2.2313,2.2313,2.2313,2.2313,2.2313,2.2313,2.2313,2.2313,2.2254,2.2223,2.2163,2.2003,2.1628,2.1476,2.146,2.1478,2.1638,2.172,2.1766,2.1891,2.1945,2.1548,2.1166,2.091,2.0813,2.0347,2.0141,2.0158,2.007,1.9836,1.9723,1.9723,1.9723,1.9723,1.9723,1.9723,1.9723,1.9723,1.9723,1.9723,1.9729,1.9927,2.0296,2.0633,2.1007,2.1477,2.1959,2.2313,2.2296,2.231,2.2484,2.2824,2.3111,2.3247,2.3703,2.418,2.4199,2.4199,2.4199,2.4257,2.4418,2.4516,2.4612,2.4674,2.4685,2.4681,2.4626,2.4612,2.4617,2.4322,2.3859,2.365,2.3842,2.3412,2.3078,2.2824,2.2656,2.2776,2.2895,2.2969]}]]